[[{"header":{"parameterUnit":"m.s-1","parameterCategory":1,"la1":30.6,"la2":29.2853,"lo1":-89.7004,"lo2":-87.6739,"dy":0.0162,"dx":0.0183,"nx":112,"ny":82,"refTime":"2023-07-25T06:00:00:Z","depth":0,"parameterNumber":2,"parameterNumberName":"U-component_of_WINDS"},"data":[0.0,0.0,0.0,0.0,0.0,0.0,0.0,0.0,0.0,0.0,0.0,0.0,0.0,0.0,0.0,0.0,0.0,0.0,0.0,0.0,0.0,0.0,0.0,0.0,0.0,0.0,0.0,0.0,0.0,0.0,0.0,0.0,0.0,0.0,0.0,0.0,0.0,0.0,0.0,0.0,0.0,0.0,0.0,0.0,0.0,0.0,0.0,0.0,0.0,0.0,0.0,0.0,0.0,0.0,0.0,0.0,0.0,0.0,0.0,0.0,0.0,0.0,0.0,0.0,0.0,0.0,0.0,0.0,0.0,0.0,0.0,0.0,0.0,0.0,0.0,0.0,0.0,0.0,0.0,0.0,0.0,0.0,0.0,0.0,0.0,0.0,0.0,0.0,0.0,0.0,-3.5553,-3.6573,-3.7034,-3.7204,-3.7051,-3.6445,-3.612,-3.6255,0.0,0.0,0.0,0.0,0.0,0.0,0.0,0.0,0.0,0.0,0.0,0.0,0.0,0.0,0.0,0.0,0.0,0.0,0.0,0.0,0.0,0.0,0.0,0.0,0.0,0.0,0.0,0.0,0.0,0.0,0.0,0.0,0.0,0.0,0.0,0.0,0.0,0.0,0.0,0.0,0.0,0.0,0.0,0.0,0.0,0.0,0.0,0.0,0.0,0.0,0.0,0.0,0.0,0.0,0.0,0.0,0.0,0.0,0.0,0.0,0.0,0.0,0.0,0.0,0.0,0.0,0.0,0.0,0.0,0.0,0.0,0.0,0.0,0.0,0.0,0.0,0.0,0.0,0.0,0.0,0.0,0.0,0.0,0.0,0.0,0.0,0.0,0.0,0.0,0.0,0.0,0.0,0.0,0.0,0.0,0.0,0.0,0.0,0.0,0.0,0.0,0.0,0.0,0.0,-3.5454,-3.5237,-3.607,-3.6307,-3.5517,-3.5439,-3.548,-3.5629,0.0,0.0,0.0,0.0,0.0,0.0,0.0,0.0,0.0,0.0,0.0,0.0,0.0,0.0,0.0,0.0,0.0,0.0,0.0,0.0,0.0,0.0,0.0,0.0,0.0,0.0,0.0,0.0,0.0,0.0,0.0,0.0,0.0,0.0,0.0,0.0,0.0,0.0,0.0,0.0,0.0,0.0,0.0,0.0,0.0,0.0,0.0,0.0,0.0,0.0,0.0,0.0,0.0,0.0,0.0,0.0,0.0,0.0,0.0,0.0,0.0,0.0,0.0,0.0,0.0,0.0,0.0,0.0,0.0,0.0,0.0,0.0,0.0,0.0,0.0,0.0,0.0,0.0,0.0,0.0,0.0,0.0,0.0,0.0,0.0,0.0,0.0,0.0,0.0,0.0,0.0,0.0,0.0,0.0,0.0,0.0,0.0,0.0,0.0,0.0,0.0,0.0,0.0,-3.531,-3.5239,-3.5029,-3.5504,-3.5687,-3.525,-3.5258,-3.536,-3.5483,-3.5489,0.0,0.0,0.0,0.0,0.0,0.0,0.0,0.0,0.0,0.0,0.0,0.0,0.0,0.0,0.0,0.0,0.0,0.0,0.0,0.0,0.0,0.0,0.0,0.0,0.0,0.0,0.0,0.0,0.0,0.0,0.0,0.0,0.0,0.0,0.0,0.0,0.0,0.0,0.0,0.0,0.0,0.0,0.0,0.0,0.0,0.0,0.0,0.0,0.0,0.0,0.0,0.0,0.0,0.0,0.0,0.0,0.0,0.0,0.0,0.0,0.0,0.0,0.0,0.0,0.0,0.0,0.0,0.0,0.0,0.0,0.0,0.0,0.0,0.0,0.0,0.0,0.0,0.0,0.0,0.0,0.0,0.0,0.0,0.0,0.0,0.0,0.0,0.0,0.0,0.0,0.0,0.0,0.0,0.0,0.0,0.0,0.0,0.0,0.0,0.0,0.0,0.0,-3.4832,-3.5088,-3.5053,-3.5227,-3.5319,-3.5289,-3.536,-3.543,-3.554,-3.5607,0.0,0.0,0.0,0.0,0.0,0.0,0.0,0.0,0.0,0.0,0.0,0.0,0.0,0.0,0.0,0.0,0.0,0.0,0.0,0.0,0.0,0.0,0.0,0.0,0.0,0.0,0.0,0.0,0.0,0.0,0.0,0.0,0.0,0.0,0.0,0.0,0.0,0.0,0.0,0.0,0.0,0.0,0.0,0.0,0.0,0.0,0.0,0.0,0.0,0.0,0.0,0.0,0.0,0.0,0.0,0.0,0.0,0.0,0.0,0.0,0.0,0.0,0.0,0.0,0.0,0.0,0.0,0.0,0.0,0.0,0.0,0.0,0.0,0.0,0.0,0.0,0.0,0.0,0.0,0.0,0.0,0.0,0.0,0.0,0.0,0.0,0.0,0.0,0.0,0.0,0.0,0.0,0.0,0.0,0.0,0.0,0.0,0.0,0.0,0.0,0.0,0.0,-3.4889,-3.5053,-3.4936,-3.5258,-3.5437,-3.5315,-3.5522,-3.5673,-3.5698,-3.5693,0.0,0.0,0.0,0.0,0.0,0.0,0.0,0.0,0.0,0.0,0.0,0.0,0.0,0.0,0.0,0.0,0.0,0.0,0.0,0.0,0.0,0.0,0.0,0.0,0.0,0.0,0.0,0.0,0.0,0.0,0.0,0.0,0.0,0.0,0.0,0.0,0.0,0.0,0.0,0.0,0.0,0.0,0.0,0.0,0.0,0.0,0.0,0.0,0.0,0.0,0.0,0.0,0.0,0.0,0.0,0.0,0.0,0.0,0.0,0.0,0.0,0.0,0.0,0.0,0.0,0.0,0.0,0.0,0.0,0.0,0.0,0.0,0.0,0.0,0.0,0.0,0.0,0.0,0.0,0.0,0.0,0.0,0.0,0.0,0.0,0.0,0.0,0.0,0.0,0.0,0.0,0.0,0.0,0.0,0.0,0.0,0.0,0.0,0.0,0.0,0.0,0.0,-3.4898,-3.5079,0.0,-3.5235,-3.5395,-3.5423,-3.5522,-3.5608,-3.5684,0.0,0.0,0.0,0.0,0.0,0.0,0.0,0.0,0.0,0.0,0.0,0.0,0.0,0.0,0.0,0.0,0.0,0.0,0.0,0.0,0.0,0.0,0.0,0.0,0.0,0.0,0.0,0.0,0.0,0.0,0.0,0.0,0.0,0.0,0.0,0.0,0.0,0.0,0.0,0.0,0.0,0.0,0.0,0.0,0.0,0.0,0.0,0.0,0.0,0.0,0.0,0.0,0.0,0.0,0.0,0.0,0.0,0.0,0.0,0.0,0.0,0.0,0.0,0.0,0.0,0.0,0.0,0.0,0.0,0.0,0.0,0.0,0.0,0.0,0.0,0.0,0.0,0.0,0.0,0.0,0.0,0.0,0.0,0.0,0.0,0.0,0.0,0.0,0.0,0.0,0.0,0.0,0.0,0.0,0.0,0.0,0.0,0.0,0.0,0.0,0.0,0.0,-3.4367,-3.4753,-3.5,0.0,-3.5155,-3.5266,-3.5374,-3.545,-3.554,-3.562,0.0,0.0,0.0,0.0,0.0,0.0,0.0,0.0,0.0,0.0,0.0,0.0,0.0,0.0,0.0,0.0,0.0,0.0,0.0,0.0,0.0,0.0,0.0,0.0,0.0,0.0,0.0,0.0,0.0,0.0,0.0,0.0,0.0,0.0,0.0,0.0,0.0,0.0,0.0,0.0,0.0,0.0,0.0,0.0,0.0,0.0,0.0,0.0,0.0,0.0,0.0,0.0,0.0,0.0,0.0,0.0,0.0,0.0,0.0,0.0,0.0,0.0,0.0,0.0,0.0,0.0,0.0,0.0,0.0,0.0,0.0,0.0,0.0,0.0,0.0,0.0,0.0,0.0,0.0,0.0,0.0,0.0,0.0,0.0,0.0,0.0,0.0,0.0,0.0,0.0,0.0,0.0,0.0,0.0,0.0,0.0,0.0,0.0,0.0,0.0,0.0,0.0,-3.3969,-3.4469,-3.481,-3.4898,-3.5018,-3.5096,-3.5105,-3.534,-3.5509,0.0,0.0,0.0,0.0,0.0,0.0,0.0,0.0,0.0,0.0,0.0,0.0,0.0,0.0,0.0,0.0,0.0,0.0,0.0,0.0,0.0,0.0,0.0,0.0,0.0,0.0,0.0,0.0,0.0,0.0,0.0,0.0,0.0,0.0,0.0,0.0,0.0,0.0,0.0,0.0,0.0,0.0,0.0,0.0,0.0,0.0,0.0,0.0,0.0,0.0,0.0,0.0,0.0,0.0,0.0,0.0,0.0,0.0,0.0,0.0,0.0,0.0,0.0,0.0,0.0,0.0,0.0,0.0,0.0,0.0,0.0,0.0,0.0,0.0,0.0,0.0,0.0,0.0,0.0,0.0,0.0,0.0,0.0,0.0,0.0,0.0,0.0,0.0,0.0,0.0,0.0,0.0,0.0,0.0,0.0,0.0,0.0,0.0,0.0,0.0,0.0,0.0,0.0,-3.3956,-3.43,-3.463,-3.487,-3.4945,-3.4991,-3.5096,-3.5171,-3.5296,-3.5502,0.0,0.0,0.0,0.0,0.0,0.0,0.0,0.0,0.0,0.0,0.0,0.0,0.0,0.0,0.0,0.0,0.0,0.0,0.0,0.0,0.0,0.0,0.0,0.0,0.0,0.0,0.0,0.0,0.0,0.0,0.0,0.0,0.0,0.0,0.0,0.0,0.0,0.0,0.0,0.0,0.0,0.0,0.0,0.0,0.0,0.0,0.0,0.0,0.0,0.0,0.0,0.0,0.0,0.0,0.0,0.0,0.0,0.0,0.0,0.0,0.0,0.0,0.0,0.0,0.0,0.0,0.0,0.0,0.0,0.0,0.0,0.0,0.0,0.0,0.0,0.0,0.0,0.0,0.0,0.0,0.0,0.0,0.0,0.0,0.0,0.0,0.0,0.0,0.0,0.0,0.0,0.0,0.0,0.0,0.0,0.0,0.0,0.0,0.0,0.0,0.0,0.0,-3.3828,-3.4111,-3.4428,-3.4821,-3.4869,-3.4898,-3.5009,-3.507,-3.5037,-3.4873,0.0,0.0,0.0,0.0,0.0,0.0,0.0,0.0,0.0,0.0,0.0,0.0,0.0,0.0,0.0,0.0,0.0,0.0,0.0,0.0,0.0,0.0,0.0,0.0,0.0,0.0,0.0,0.0,0.0,0.0,0.0,0.0,0.0,0.0,0.0,0.0,0.0,0.0,0.0,0.0,0.0,0.0,0.0,0.0,0.0,0.0,0.0,0.0,0.0,0.0,0.0,0.0,0.0,0.0,0.0,0.0,0.0,0.0,0.0,0.0,0.0,0.0,0.0,0.0,0.0,0.0,0.0,0.0,0.0,0.0,0.0,0.0,0.0,0.0,0.0,0.0,0.0,0.0,0.0,0.0,0.0,0.0,0.0,0.0,0.0,0.0,0.0,0.0,0.0,0.0,0.0,0.0,0.0,0.0,0.0,0.0,0.0,0.0,0.0,0.0,0.0,0.0,-3.3648,-3.3923,-3.4257,-3.4737,-3.4778,-3.48,-3.4889,-3.5,-3.4736,-3.3941,0.0,0.0,0.0,0.0,0.0,0.0,0.0,0.0,0.0,0.0,0.0,0.0,0.0,0.0,0.0,0.0,0.0,0.0,0.0,0.0,0.0,0.0,0.0,0.0,0.0,0.0,0.0,0.0,0.0,0.0,0.0,0.0,0.0,0.0,0.0,0.0,0.0,0.0,0.0,0.0,0.0,0.0,0.0,0.0,0.0,0.0,0.0,0.0,0.0,0.0,0.0,0.0,0.0,0.0,0.0,0.0,0.0,0.0,0.0,0.0,-4.0215,0.0,0.0,0.0,0.0,0.0,0.0,0.0,0.0,0.0,0.0,0.0,0.0,0.0,0.0,0.0,0.0,0.0,0.0,0.0,0.0,0.0,0.0,0.0,0.0,0.0,0.0,0.0,0.0,0.0,0.0,0.0,0.0,0.0,0.0,0.0,0.0,0.0,0.0,0.0,0.0,0.0,-3.3634,-3.3742,-3.4006,-3.4572,-3.4645,-3.4687,-3.4819,-3.4859,-3.4585,-3.3933,-3.3941,0.0,0.0,0.0,0.0,0.0,0.0,0.0,0.0,0.0,0.0,0.0,0.0,0.0,0.0,0.0,0.0,0.0,0.0,0.0,0.0,0.0,0.0,0.0,0.0,0.0,0.0,0.0,0.0,0.0,0.0,0.0,0.0,0.0,0.0,0.0,0.0,0.0,0.0,0.0,0.0,0.0,0.0,0.0,0.0,0.0,0.0,0.0,0.0,0.0,0.0,0.0,0.0,0.0,0.0,0.0,0.0,0.0,0.0,0.0,0.0,-4.0284,0.0,0.0,0.0,0.0,0.0,0.0,0.0,0.0,0.0,0.0,0.0,0.0,0.0,0.0,0.0,0.0,0.0,0.0,0.0,0.0,0.0,0.0,0.0,0.0,0.0,0.0,0.0,0.0,0.0,0.0,0.0,0.0,0.0,0.0,0.0,0.0,0.0,0.0,0.0,0.0,-3.2338,-3.2684,-3.3138,-3.372,-3.4139,-3.4461,-3.4676,-3.434,-3.3816,-3.308,-3.2759,0.0,0.0,0.0,0.0,0.0,0.0,0.0,0.0,0.0,0.0,0.0,0.0,0.0,0.0,0.0,0.0,0.0,0.0,0.0,0.0,0.0,0.0,0.0,0.0,0.0,0.0,0.0,0.0,0.0,0.0,0.0,0.0,0.0,0.0,0.0,0.0,0.0,0.0,0.0,0.0,0.0,0.0,0.0,0.0,0.0,0.0,0.0,0.0,0.0,0.0,0.0,0.0,0.0,-4.0212,-4.0583,-4.0662,-4.0728,-4.0752,-4.0752,-4.0704,-4.0373,-3.9888,0.0,0.0,0.0,0.0,0.0,0.0,0.0,0.0,0.0,0.0,0.0,0.0,0.0,0.0,0.0,0.0,0.0,0.0,0.0,0.0,0.0,0.0,0.0,0.0,0.0,-3.2059,-3.1695,0.0,0.0,0.0,0.0,0.0,0.0,0.0,0.0,0.0,0.0,0.0,0.0,-3.0946,-3.148,-3.2124,-3.2748,-3.3414,-3.3932,-3.4226,-3.363,-3.2847,-3.1895,-3.1383,-3.1018,0.0,0.0,0.0,0.0,0.0,0.0,0.0,0.0,0.0,0.0,0.0,0.0,0.0,0.0,0.0,0.0,0.0,0.0,0.0,0.0,0.0,0.0,0.0,0.0,0.0,0.0,0.0,0.0,0.0,0.0,0.0,0.0,-3.5584,-3.6166,0.0,0.0,0.0,0.0,0.0,0.0,0.0,0.0,0.0,0.0,0.0,0.0,0.0,-3.9394,-3.8718,-3.9368,-3.942,-3.8854,-3.9447,-3.9765,-3.9791,-4.0079,-4.0213,-4.0196,-3.991,0.0,-4.0653,-3.9284,0.0,0.0,0.0,0.0,0.0,0.0,0.0,0.0,0.0,0.0,0.0,0.0,0.0,0.0,0.0,0.0,0.0,0.0,0.0,0.0,0.0,0.0,-3.0985,-3.0478,-3.0245,-3.0055,0.0,-3.0263,-3.0815,-3.0869,0.0,0.0,0.0,0.0,0.0,0.0,0.0,0.0,-3.0874,-3.0992,-3.1429,-3.2378,-3.2556,-3.269,-3.2858,-3.276,-3.215,-3.0878,-3.0725,-3.044,-2.9907,-2.9916,0.0,0.0,0.0,0.0,0.0,0.0,0.0,0.0,0.0,0.0,0.0,0.0,0.0,0.0,0.0,0.0,0.0,0.0,0.0,0.0,0.0,0.0,0.0,0.0,0.0,0.0,0.0,0.0,0.0,-3.514,-3.54,-3.6275,-3.6014,-3.5968,0.0,0.0,0.0,0.0,0.0,0.0,0.0,0.0,0.0,-3.8379,-3.8695,-3.8418,-3.7488,-3.8418,-3.8596,-3.8076,-3.8679,-3.9022,-3.9113,-3.9236,-3.9315,-3.9315,-3.9375,-3.9489,-3.9622,-3.9088,-3.8653,-3.8265,0.0,0.0,0.0,0.0,0.0,-3.6831,-3.5865,-3.5459,0.0,0.0,0.0,0.0,0.0,0.0,0.0,0.0,0.0,0.0,0.0,0.0,0.0,-2.9961,-2.9896,-2.9837,-2.9556,-2.9259,-2.9135,0.0,-2.931,-2.9213,-2.9403,0.0,0.0,0.0,0.0,-2.9485,-2.914,-2.9655,-3.0268,-3.0826,-3.1288,-3.1628,-3.179,-3.14,-3.0895,-3.0291,-2.988,-2.9507,-2.9203,-2.9301,-2.9324,0.0,0.0,0.0,0.0,0.0,0.0,0.0,0.0,0.0,0.0,0.0,0.0,0.0,0.0,0.0,0.0,0.0,0.0,0.0,0.0,0.0,0.0,0.0,0.0,0.0,0.0,0.0,0.0,-3.4964,-3.4832,-3.5983,-3.5569,-3.5477,0.0,0.0,0.0,0.0,0.0,0.0,-3.8262,-3.8153,-3.7854,-3.7417,-3.7854,-3.7562,-3.6523,-3.7533,-3.7809,-3.731,-3.7924,-3.8278,-3.8374,-3.8458,-3.8486,-3.8513,-3.8657,-3.8601,-3.8409,-3.8931,-3.8645,-3.7906,-3.8306,-3.8327,-3.8173,-3.8259,-3.794,-3.7302,-3.6061,-3.5374,-3.4817,-3.3528,0.0,-3.3348,-3.3736,0.0,0.0,0.0,0.0,-3.1445,-3.022,0.0,-2.9896,-2.9896,-2.9896,-2.9783,-2.941,-2.8582,-2.802,0.0,-2.8293,-2.8243,-2.8492,0.0,0.0,0.0,0.0,-2.8244,-2.7652,-2.8317,-2.9008,-2.9438,-3.0036,-3.0476,-3.0721,-3.0176,-2.9784,-2.9635,-2.9089,-2.8796,-2.8797,-2.8943,-2.8982,-2.8872,0.0,0.0,0.0,0.0,0.0,0.0,0.0,0.0,0.0,0.0,0.0,0.0,0.0,0.0,0.0,0.0,0.0,0.0,0.0,0.0,0.0,0.0,0.0,0.0,0.0,0.0,0.0,0.0,0.0,-3.4879,-3.5141,0.0,0.0,0.0,0.0,-3.7342,-3.7415,-3.7648,-3.8266,-3.7767,-3.7431,-3.7417,-3.7431,-3.7148,-3.6523,-3.7118,-3.7148,-3.6569,-3.7178,-3.7476,-3.746,-3.7783,-3.7927,-3.7927,-3.7608,-3.746,-3.7549,-3.8707,-3.8543,-3.7554,-3.7892,-3.7599,-3.7003,-3.7336,-3.7434,-3.72,-3.5736,-3.5653,-3.5907,-3.4077,-3.3737,-3.3924,-3.3332,-3.3161,0.0,0.0,-3.0975,-3.0791,-3.0091,-2.9896,-2.9896,-2.9896,-2.9896,-2.9524,-2.8109,-2.7867,-2.7916,0.0,-2.6967,-2.6162,-2.618,0.0,-2.6826,-2.6792,-2.7072,-2.728,-2.7228,-2.7279,-2.773,-2.8818,-2.8971,-2.9127,-2.9472,-2.9451,-2.9191,-2.8613,-2.8536,-2.8589,-2.8785,-2.8797,-2.8809,-2.8797,-2.8797,0.0,0.0,0.0,0.0,0.0,0.0,0.0,0.0,0.0,0.0,0.0,0.0,0.0,0.0,0.0,0.0,0.0,0.0,0.0,0.0,0.0,0.0,0.0,0.0,0.0,0.0,0.0,0.0,-3.3981,-3.4171,0.0,-3.5058,-3.5364,-3.5845,-3.6569,-3.6229,-3.6303,-3.7117,-3.6952,-3.6816,-3.6816,-3.6816,-3.6723,-3.6492,-3.6723,-3.6723,-3.6492,-3.6723,-3.6816,-3.6831,-3.6952,-3.6983,-3.7013,-3.7089,-3.7029,-3.683,-3.6999,-3.7391,-3.7934,-3.8286,-3.8301,-3.8048,-3.7915,-3.7552,-3.6995,-3.5958,-3.5446,-3.5026,-3.3486,-3.3087,-3.3149,-3.2908,-3.3249,-3.3387,-3.1598,-3.1102,-3.076,-2.9257,-2.8865,-2.8848,-2.8701,-2.8471,-2.8106,-2.7461,-2.6741,-2.622,-2.622,-2.606,-2.5917,-2.5811,-2.6048,-2.626,-2.626,-2.6607,-2.6874,-2.6874,-2.7069,-2.7364,-2.7766,-2.7816,-2.7846,-2.7971,-2.7986,-2.7894,-2.7672,-2.7858,-2.8014,-2.8097,-2.8309,-2.8419,-2.8419,-2.8419,-2.8419,0.0,0.0,0.0,0.0,0.0,0.0,0.0,0.0,0.0,0.0,0.0,0.0,0.0,0.0,0.0,0.0,0.0,0.0,0.0,0.0,0.0,0.0,0.0,0.0,0.0,0.0,-3.1788,-3.3135,-3.3269,-3.3463,-3.4097,-3.441,-3.4904,-3.5706,-3.5392,-3.5535,-3.6352,-3.6245,-3.6153,-3.6153,-3.5922,-3.5845,-3.5845,-3.6045,-3.6153,-3.6153,-3.6384,-3.6492,-3.6476,-3.6261,-3.6153,-3.6168,-3.6166,-3.6027,-3.5799,-3.5546,-3.5992,-3.6908,-3.7287,-3.7422,-3.7402,-3.7232,-3.6881,-3.6349,-3.557,-3.4748,-3.386,-3.2873,-3.2303,-3.1997,-3.2047,-3.2399,-3.2485,-3.1004,-3.0575,-3.0188,-2.8455,-2.8004,-2.7906,-2.7552,-2.7254,-2.6954,-2.6585,-2.5876,-2.5216,-2.5001,-2.5214,-2.5365,-2.5272,-2.5516,-2.5738,-2.5793,-2.6173,-2.6487,-2.6521,-2.6725,-2.6924,-2.7021,-2.7037,-2.7085,-2.7181,-2.7197,-2.7197,-2.7197,-2.7415,-2.7537,-2.7537,-2.785,-2.8039,-2.8039,-2.7993,-2.7904,-2.776,0.0,0.0,0.0,0.0,0.0,0.0,0.0,0.0,0.0,0.0,0.0,0.0,0.0,0.0,0.0,0.0,0.0,0.0,0.0,0.0,0.0,0.0,0.0,-3.1861,-3.15,-3.1402,-3.2328,-3.2484,-3.2523,-3.2672,-3.328,-3.4027,-3.481,-3.4993,-3.537,-3.6102,-3.5692,-3.543,-3.5445,-3.4844,-3.4475,-3.4431,-3.5137,-3.5476,-3.543,-3.6107,-3.6414,-3.6368,-3.5722,-3.5415,-3.5384,-3.4723,-3.4431,-3.4431,-3.4415,-3.4415,-3.4445,-3.4765,-3.4909,-3.4922,-3.5247,-3.5355,-3.5229,-3.4462,-3.3524,-3.2572,-3.2279,-3.1444,-3.0555,-3.0688,-3.0484,-3.0089,-2.9529,-2.9354,-2.903,-2.7712,-2.7334,-2.7157,-2.6493,-2.6324,-2.6116,-2.5401,-2.5241,-2.5019,-2.4368,-2.4266,-2.4338,-2.4389,-2.4812,-2.5198,-2.5316,-2.567,0.0,-2.6066,-2.6083,-2.6227,-2.6556,-2.659,-2.674,-2.7065,-2.7096,-2.7096,-2.7096,-2.7114,-2.7147,-2.7147,-2.7472,-2.7686,-2.7686,-2.756,-2.7282,-2.6888,0.0,0.0,0.0,0.0,0.0,0.0,0.0,0.0,0.0,0.0,0.0,0.0,0.0,0.0,0.0,0.0,0.0,0.0,0.0,0.0,0.0,0.0,-3.0327,-3.1196,-3.0771,-3.0619,-3.1322,-3.1879,-3.2209,-3.2244,-3.2926,-3.3492,-3.3851,-3.3919,-3.4143,-3.4665,-3.458,-3.4421,-3.4288,-3.442,-3.4149,-3.3425,-3.4408,-3.4514,-3.3709,-3.4382,-3.4442,-3.3963,-3.3784,-3.3694,-3.3679,-3.3499,-3.3425,-3.338,-3.287,-3.2691,-3.2826,-3.4113,-3.4606,-3.4574,-3.4376,-3.4125,-3.3724,-3.2703,-3.1706,-3.0758,-2.9889,-2.9418,-2.9163,-2.9188,-2.9611,-2.9866,-2.8932,-2.8312,-2.769,-2.6535,-2.5874,-2.5429,-2.5168,-2.4821,-2.4482,-2.413,-2.3813,-2.3371,-2.2743,-2.2646,-2.302,-2.4132,-2.4133,-2.3983,-2.4021,-2.3739,0.0,-2.3606,-2.3606,-2.3769,-2.4191,-2.4226,-2.4379,-2.4763,-2.4812,-2.4796,-2.473,-2.5429,-2.5812,-2.5812,-2.6662,-2.7114,-2.7114,-2.708,-2.7017,0.0,0.0,0.0,0.0,0.0,0.0,0.0,0.0,0.0,0.0,0.0,0.0,0.0,0.0,0.0,0.0,0.0,0.0,0.0,0.0,0.0,0.0,-2.9459,-2.9471,-2.9858,-3.0224,-3.062,-3.0947,-3.1371,-3.1533,-3.1292,-3.1663,-3.2077,-3.2521,-3.2374,-3.2608,-3.3438,-3.3039,-3.2744,-3.2624,-3.2766,-3.2557,-3.1952,-3.303,-3.3225,-3.2594,-3.3243,-3.3393,-3.2994,-3.2712,-3.2594,0.0,-3.2268,-3.215,-3.212,-3.1736,-3.1589,0.0,0.0,0.0,0.0,0.0,-3.2235,-3.1994,-3.0937,-3.0133,-2.942,-2.8678,-2.8114,-2.7735,-2.7787,-2.7899,-2.7858,-2.7298,-2.6674,-2.5979,-2.5065,-2.4558,-2.4173,-2.3913,-2.3652,-2.342,-2.3327,-2.2893,-2.2417,-2.2062,0.0,0.0,-2.2753,-2.2818,-2.2762,-2.2781,-2.2661,-2.2567,0.0,-2.2603,-2.2695,-2.298,-2.3016,-2.3103,-2.3345,-2.3362,0.0,0.0,0.0,-2.468,-2.5279,-2.6202,0.0,0.0,0.0,-2.6522,0.0,0.0,0.0,0.0,-2.7467,-2.8139,0.0,0.0,0.0,0.0,0.0,0.0,0.0,0.0,0.0,0.0,0.0,0.0,0.0,0.0,0.0,0.0,-2.8056,-2.8255,-2.8386,-2.9742,-3.0748,-3.0861,-3.0846,-3.0611,-3.0153,-3.0035,-3.026,-3.0934,-3.0664,-3.0971,-3.2201,0.0,0.0,0.0,0.0,-3.0389,-3.0283,-3.1315,-3.179,-3.1671,-3.2379,-3.2674,-3.254,-3.1981,-3.1701,-3.1642,-3.1086,-3.0851,-3.0851,-3.0851,-3.0807,-3.0749,-3.0867,-3.0896,-3.0822,-3.0217,-3.0164,0.0,0.0,0.0,0.0,-2.8063,-2.7254,-2.6443,-2.6491,-2.5878,-2.5176,-2.5274,-2.4829,-2.4226,-2.364,-2.344,-2.3278,-2.2879,-2.2692,-2.2612,-2.2674,-2.2169,-2.1708,-2.1636,-2.1146,-2.0734,-2.0723,-2.1167,-2.153,-2.1613,-2.1889,0.0,-2.2204,-2.2204,-2.2222,-2.2277,0.0,0.0,-2.2332,-2.235,-2.2332,-2.2332,-2.2748,-2.3608,-2.5029,-2.5693,-2.6039,-2.5982,-2.5982,-2.5815,-2.5448,-2.5448,-2.5448,-2.5483,-2.6815,-2.7454,0.0,0.0,0.0,0.0,0.0,0.0,0.0,0.0,0.0,0.0,0.0,0.0,0.0,0.0,0.0,-2.7711,-2.7412,-2.7412,-2.8267,-2.8703,-2.9225,-3.0075,-2.9795,-2.9712,-3.0064,-2.9719,-2.9516,-2.968,-2.961,-2.9728,-3.0174,-2.9992,0.0,-2.9635,-2.9929,-2.9718,-2.899,-3.0305,-3.052,-2.9677,0.0,0.0,-2.9862,-3.0015,-2.9927,-2.9663,-2.98,-2.9867,-2.9867,-2.9867,-2.957,-2.922,-2.9988,-3.0276,-3.0202,-2.9596,-2.94,-2.9296,-2.8223,-2.7766,-2.755,-2.6627,-2.621,-2.593,-2.5463,-2.5196,0.0,-2.462,-2.4035,-2.3534,-2.3502,-2.315,-2.2758,-2.2666,-2.1979,-2.1349,-2.1349,-2.0667,-1.9897,-1.9351,-1.9244,-1.9176,-1.901,-1.9782,-2.0401,-2.0421,-2.0049,-1.9771,-1.979,-1.9775,-1.9923,-2.0309,-2.0345,-2.0454,-2.0719,-2.0736,-2.0734,-2.0663,-2.1295,-2.2277,-2.3629,-2.3817,-2.4143,-2.4664,-2.4679,-2.4634,-2.4549,-2.4549,-2.4549,-2.458,-2.624,-2.702,0.0,0.0,0.0,0.0,0.0,0.0,0.0,0.0,0.0,0.0,0.0,-2.6152,0.0,0.0,-2.5757,-2.611,-2.6038,-2.6116,-2.6391,-2.6812,-2.7621,-2.8996,-2.89,-2.8674,-2.8426,-2.8157,-2.8099,-2.8444,-2.7915,-2.7875,-2.856,-2.8067,-2.7699,-2.7591,-2.7979,-2.7992,-2.7517,-2.8351,-2.8548,-2.7986,-2.8477,-2.8463,-2.7986,-2.8182,-2.8021,-2.7611,-2.788,-2.7845,-2.7606,-2.7713,-2.7567,-2.7312,-2.748,-2.8122,-2.8857,-2.8237,-2.8006,-2.7877,-2.6997,-2.6701,-2.6617,-2.6074,-2.5697,-2.54,-2.5091,-2.4556,-2.3994,-2.3773,-2.3052,-2.237,-2.2418,-2.2038,-2.1554,-2.136,-2.0894,-2.0456,-2.0248,-1.9578,-1.8898,-1.8559,-1.8305,-1.8112,-1.8016,-1.8442,-1.8965,-1.9517,-1.9304,-1.9101,-1.9101,-1.9101,-1.918,-1.9424,-1.9442,-1.9515,-1.9699,-1.9702,-1.977,-1.9945,-2.0621,-2.1403,-2.2266,-2.264,-2.3149,-2.3784,-2.3799,-2.3948,-2.4302,-2.4302,-2.4302,-2.4333,-2.5312,-2.592,0.0,0.0,0.0,0.0,0.0,0.0,0.0,-2.6038,-2.5537,-2.5537,-2.4978,-2.4497,-2.4497,-2.4497,-2.4466,-2.4383,-2.4703,-2.4819,-2.4424,-2.497,-2.5927,-2.7368,-2.7698,-2.7519,-2.6782,-2.661,-2.6762,-2.7233,-2.6422,-2.6303,-2.7208,-2.6422,-2.5896,-2.5896,-2.6148,-2.6308,-2.6308,-2.6625,-2.6815,-2.6815,-2.6883,-2.6819,-2.6649,-2.6716,-2.6409,-2.5884,-2.6104,-2.5973,-2.5563,-2.561,-2.5633,-2.5568,-2.4962,-2.5627,-2.6906,-2.6423,-2.6271,-2.6202,-2.5716,-2.5536,-2.5522,-2.5411,-2.498,-2.4493,-2.4356,-2.3522,-2.2634,-2.2609,-2.1947,-2.124,-2.124,-2.0853,-2.0347,-2.0057,-1.9719,-1.9406,-1.9091,-1.8442,-1.7934,-1.7934,-1.7566,-1.7271,-1.7353,-1.7374,-1.77,-1.8655,-1.8789,-1.8803,-1.8822,-1.8822,-1.8822,-1.8841,-1.8841,-1.8841,-1.8841,-1.8841,-1.8993,-1.9314,-1.9841,-2.0374,-2.0916,-2.1485,-2.2132,-2.2842,-2.294,-2.3193,-2.3655,-2.377,-2.3767,-2.3644,-2.3821,-2.4343,-2.5644,-2.6249,-2.661,-2.585,-2.5819,-2.5746,0.0,-2.47,-2.4658,-2.4658,-2.4583,-2.4497,-2.4497,-2.4497,-2.4373,-2.4022,-2.3992,-2.4033,-2.3883,-2.398,-2.4226,-2.4763,-2.5583,-2.6238,-2.6636,-2.6265,-2.6017,-2.6099,-2.5955,-2.5955,-2.6087,-2.5955,-2.5896,-2.5896,-2.5931,-2.5953,-2.5953,-2.6274,-2.6467,-2.6467,-2.6748,-2.6493,-2.5769,-2.6041,-2.576,-2.5038,-2.5377,-2.5497,-2.5394,-2.4859,-2.4666,-2.4601,-2.3919,-2.3785,-2.4014,-2.4226,-2.4316,-2.4316,-2.425,-2.4195,-2.4145,-2.3659,-2.3173,-2.2671,-2.2075,-2.1467,-2.0951,-2.0901,-2.0787,-2.0684,-2.0684,-2.028,-1.9887,-1.9845,-1.8722,-1.7682,-1.7641,-1.692,-1.6271,-1.6271,-1.6321,-1.6457,-1.6816,-1.6879,-1.7055,-1.7585,-1.7666,-1.772,-1.7848,-1.7801,-1.7821,-1.7928,-1.7948,-1.7948,-1.7948,-1.7948,-1.7968,-1.8008,-1.8083,-1.8579,-1.9569,-1.9622,-2.0147,-2.1254,-2.1606,-2.1648,-2.138,-2.1843,-2.1837,-2.1355,-2.1388,-2.2273,-2.3436,-2.4397,-2.4956,-2.4584,-2.4386,-2.4178,-2.378,-2.3501,-2.3433,-2.3833,-2.357,-2.343,-2.3851,-2.357,-2.3152,0.0,-2.2755,-2.255,-2.202,-2.215,-2.2256,-2.2153,-2.2691,-2.3642,-2.5096,-2.5051,-2.5028,-2.5358,-2.5099,-2.5064,-2.5358,-2.5099,-2.4921,-2.4921,-2.4921,-2.4921,-2.4921,-2.5052,-2.5123,-2.5111,-2.4963,-2.4664,-2.4323,-2.4169,-2.3836,-2.332,-2.3142,-2.3135,-2.3229,-2.2978,-2.2861,-2.2836,-2.2573,-2.2445,-2.2567,-2.3403,-2.3715,-2.3715,-2.3846,-2.3696,-2.3347,-2.2926,-2.2154,-2.1341,-2.1117,-2.0582,-2.0141,-2.0505,-2.0384,-2.0054,-1.976,-1.927,-1.8721,-1.8084,-1.7423,-1.6855,-1.6536,-1.6159,-1.5869,-1.5869,-1.5925,-1.6013,-1.6185,-1.6207,-1.6272,-1.6484,-1.7084,-1.7517,-1.7592,-1.7558,-1.7558,-1.7632,-1.7632,-1.7632,-1.7632,-1.7632,-1.7632,-1.7632,-1.7632,-1.7842,-1.829,-1.8262,-1.8632,-1.9475,-1.9666,-1.9839,-2.0061,-2.0605,-2.0749,-2.0534,-2.0857,-2.1173,-2.139,-2.2267,-2.2756,-2.2756,-2.2532,-2.2298,-2.2265,-2.2083,-2.2121,-2.2761,-2.2513,-2.2403,-2.3091,-2.2765,-2.2261,-2.1907,-2.1755,-2.1423,-2.0683,-2.0745,-2.078,-2.0537,-2.0759,-2.1562,-2.3191,-2.3618,-2.3948,-2.4348,-2.4274,-2.425,-2.4432,-2.4068,-2.3776,-2.3545,-2.3545,-2.3545,-2.3545,-2.3545,-2.3545,-2.3545,-2.3017,-2.2715,-2.2548,-2.2162,-2.1854,-2.1588,-2.12,-2.1008,-2.0967,-2.1169,-2.1265,-2.1265,-2.1466,-2.1561,-2.1686,-2.2543,-2.2925,-2.3002,-2.3001,-2.2643,-2.2132,-2.1586,-2.0616,-1.9672,-1.985,-1.9406,-1.904,-1.9838,-1.9773,-1.9338,-1.8795,-1.8286,-1.7661,-1.6764,-1.6441,-1.626,-1.5876,-1.5792,-1.5792,-1.5792,-1.5792,-1.5792,-1.5792,-1.5792,-1.5792,-1.5792,-1.6505,-1.7042,-1.7084,-1.7126,-1.7126,-1.7126,-1.7126,-1.7126,-1.7126,-1.7126,-1.7126,-1.7126,-1.7126,-1.7188,-1.7312,-1.7291,-1.7552,-1.8131,-1.8262,-1.849,-1.8861,-1.9387,-1.9522,-1.9238,-1.9756,-1.9649,-2.0114,-2.021,-2.021,-2.021,-2.0127,-2.0096,-2.0105,-2.0359,-2.0681,-2.1185,-2.1507,-2.1872,-2.235,-2.2438,-2.2261,-2.1792,-2.1447,-2.1049,-2.0564,-2.0188,-2.006,-2.0459,-2.0498,-2.0681,0.0,-2.214,-2.2734,-2.2771,-2.3655,-2.3861,-2.3113,-2.3038,-2.2692,-2.1918,-2.1869,-2.1869,-2.1869,-2.1869,-2.1869,-2.1869,-2.1459,-2.1001,-2.0475,-2.0265,-2.0172,-2.015,-2.0139,-1.9737,-1.9144,-1.9835,-2.0139,-2.0226,-2.0935,-2.1233,-2.1233,-2.1253,-2.1486,-2.169,-2.1178,-2.0671,-2.0109,-1.9057,-1.8029,-1.7284,-1.7743,-1.7505,-1.7305,-1.8345,-1.864,-1.8522,-1.7977,-1.7445,-1.6927,-1.6504,-1.6074,-1.5727,-1.5804,-1.5792,-1.5792,-1.5792,-1.5792,-1.5792,-1.5792,-1.5792,-1.5792,-1.5792,-1.5836,-1.5891,-1.6032,-1.6154,-1.6231,-1.6231,-1.6231,-1.6231,-1.6231,-1.6231,-1.6231,-1.6231,-1.6231,-1.6414,-1.6816,-1.6752,-1.6985,-1.751,-1.7919,-1.7904,-1.747,-1.7983,-1.7774,-1.6821,-1.7231,-1.7149,-1.76,-1.849,-1.948,-1.9178,-1.9093,-1.9054,-1.9059,-1.8939,-1.8991,-1.9843,-1.9707,-1.9788,-2.098,-2.0844,-2.0497,-2.0395,-2.0271,-2.005,-1.9702,-1.9295,-1.9078,-1.9232,-1.8999,0.0,0.0,0.0,0.0,-2.1638,-2.2075,-2.2199,-2.1945,-2.2107,-2.2069,-2.1804,-2.1794,-2.1794,-2.1794,-2.1794,-2.1794,-2.1794,-2.1026,-2.0259,-1.9489,-1.9412,-1.9375,-1.9375,-1.9375,-1.9243,-1.9011,-1.9276,-1.9375,-1.9408,-1.9639,-1.9737,-1.9737,-1.9737,-1.963,-1.9614,-2.0477,-1.9995,-1.8912,-1.8278,-1.7336,-1.6548,-1.7101,-1.7075,-1.7095,-1.8266,-1.8339,-1.7951,-1.7408,-1.6903,-1.6421,-1.5913,-1.5688,-1.5558,-1.5614,-1.5603,-1.5603,-1.5603,-1.5603,-1.5603,-1.5603,-1.53,-1.5108,-1.5187,-1.5536,-1.5814,-1.5859,-1.5903,-1.5925,-1.5925,-1.5925,-1.5925,-1.5925,-1.5925,-1.5925,-1.5925,-1.5925,-1.5991,-1.6132,-1.611,-1.6185,-1.6367,-1.6489,-1.65,-1.6345,-1.656,-1.6455,-1.6045,-1.6447,-1.6508,-1.5459,-1.6301,-1.7278,-1.7007,-1.6822,-1.6737,-1.6722,-1.6614,-1.6702,-1.7517,-1.7466,-1.7621,-1.8822,-1.8983,-1.8862,-1.8728,-1.8824,-1.8932,-1.9046,-1.8704,-1.8607,-1.8956,-1.8674,-1.8391,0.0,0.0,0.0,-2.0537,-2.1038,-2.1163,-2.0894,-2.1096,-2.1106,-2.0798,-2.0875,-2.0914,-2.0914,-2.0914,-2.0834,-2.0675,-1.9949,-1.9303,-1.8842,-1.8714,-1.8633,-1.8633,-1.8633,-1.8509,-1.8273,-1.8533,-1.8633,-1.8677,-1.8911,-1.9011,-1.9011,-1.9011,-1.8547,-1.8082,-1.9066,-1.8547,-1.7335,-1.6754,-1.5973,-1.5303,-1.5894,-1.6264,-1.6621,-1.736,-1.7478,-1.7243,-1.6688,-1.6196,-1.5787,-1.5507,-1.5435,-1.5424,-1.5491,-1.5345,-1.5198,-1.5198,-1.5074,-1.4949,-1.4949,-1.4674,-1.4479,-1.4582,-1.4903,-1.5255,-1.5513,-1.5367,-1.5255,-1.5255,-1.5255,-1.5255,-1.5255,-1.5255,-1.5255,-1.5255,-1.5255,-1.5255,-1.5232,-1.5232,-1.521,-1.5164,-1.5164,-1.5164,-1.5164,-1.5209,-1.5072,-1.4821,-1.5386,-1.5504,-1.358,-1.3805,-1.3886,-1.3855,-1.3601,-1.3398,-1.3398,-1.3644,-1.401,-1.4469,-1.4981,-1.5528,-1.6071,-1.6938,-1.7444,-1.6994,-1.7224,-1.7788,-1.8634,-1.8435,-1.8588,0.0,0.0,0.0,0.0,0.0,0.0,-1.945,0.0,-2.0643,-1.9855,-2.0012,-1.9786,-1.9002,-1.9192,-1.9262,-1.9262,-1.9301,-1.91,-1.8705,-1.8274,-1.8274,-1.8517,-1.8139,-1.7935,-1.7935,-1.7935,-1.7535,-1.6943,-1.7672,-1.7935,-1.8003,-1.8643,-1.8877,-1.89,-1.8859,-1.8048,-1.6986,-1.6913,-1.6361,-1.5486,-1.4674,-1.4032,-1.3703,-1.4303,-1.5142,-1.5887,-1.5811,-1.617,-1.644,-1.584,-1.535,-1.5064,-1.5188,-1.5222,-1.5255,-1.5379,-1.4994,-1.4629,-1.4629,-1.4271,-1.3978,-1.3944,-1.3978,-1.3967,-1.3954,-1.3954,-1.4212,-1.4949,-1.4605,-1.4305,-1.4305,-1.4305,-1.4305,-1.4305,-1.4305,-1.4271,-1.4271,-1.4271,-1.4258,-1.4199,-1.4199,-1.4129,-1.4001,-1.4001,-1.4001,-1.4001,-1.3978,-1.3684,-1.3214,-1.4072,-1.4165,-1.1225,-1.2336,-1.3422,-1.3092,-1.3207,-1.3398,-1.3398,-1.3449,-1.3649,-1.3985,-1.4301,-1.4747,-1.5455,-1.5971,-1.6405,-1.6807,-1.6976,0.0,-1.7881,-1.8365,0.0,-1.9251,-1.9724,-1.9744,-1.9093,-1.8939,0.0,0.0,-1.8816,-1.9015,-1.8785,-1.8953,-1.9002,-1.8772,-1.8962,-1.9073,-1.9073,-1.9231,-1.91,-1.8705,-1.8274,-1.7972,-1.7763,-1.7362,-1.7166,-1.7166,-1.7166,-1.7072,-1.6908,-1.7107,-1.7166,-1.721,-1.7373,-1.7442,-1.7366,-1.6764,-1.6148,-1.5474,-1.4573,-1.4456,-1.4695,-1.4466,-1.4032,-1.3837,-1.5117,-1.5691,-1.6041,-1.6778,-1.6524,-1.5957,-1.5403,-1.4631,-1.3994,-1.402,-1.4035,-1.4035,-1.4082,-1.3988,-1.3894,-1.3894,-1.3776,-1.3586,-1.3174,-1.3508,-1.3732,-1.3328,-1.3351,-1.3613,-1.4212,-1.4165,-1.4118,-1.4212,-1.4142,-1.4118,-1.4222,-1.4142,-1.4095,-1.4095,-1.4095,-1.4071,-1.4048,-1.4048,-1.4025,-1.4001,-1.4001,-1.4001,-1.4001,-1.3589,-1.328,-1.306,-1.3548,-1.363,-0.9593,-1.0836,-1.2034,-1.196,-1.2289,-1.2669,-1.2669,-1.2537,-1.2574,-1.2879,-1.3135,-1.3443,-1.3979,-1.4571,-1.5032,-1.5216,-1.5643,-1.6225,-1.7037,-1.7589,-1.8174,-1.8893,-1.9176,-1.9079,-1.8369,-1.8026,-1.7661,0.0,-1.7751,-1.8072,-1.7651,-1.7821,-1.7781,-1.7408,-1.7594,-1.7666,-1.7666,-1.7819,-1.7757,-1.7505,-1.6979,-1.6716,-1.6629,-1.6219,-1.6188,-1.6428,0.0,-1.6571,-1.6621,-1.6726,-1.676,-1.6795,-1.6874,-1.6764,-1.6467,-1.5927,-1.5172,-1.4344,-1.3561,-1.3349,-1.3402,-1.3402,-1.3185,-1.314,-1.417,-1.4811,-1.5227,-1.5505,-1.5374,-1.5018,-1.4497,-1.3809,-1.3314,-1.3539,-1.3597,-1.3597,-1.3597,-1.342,-1.3194,-1.2987,-1.2939,-1.2842,-1.254,-1.2798,-1.2953,-1.2638,-1.2672,-1.2842,-1.3122,-1.3276,-1.3372,-1.3443,-1.3396,-1.3372,-1.3443,-1.3372,-1.3348,-1.3348,-1.3348,-1.3324,-1.3266,-1.3242,-1.3218,-1.317,-1.317,-1.317,-1.317,-1.2856,-1.2672,-1.2608,-1.3175,-1.3377,-0.8352,-0.9282,-1.0106,-1.0571,-1.0975,-1.1339,-1.1518,-1.1365,-1.128,-1.1659,-1.1981,-1.2208,-1.2377,-1.3124,-1.3619,-1.3195,-1.3871,-1.4867,-1.5995,-1.6473,-1.7159,-1.8354,-1.8361,-1.7983,-1.724,-1.6684,-1.6169,-1.5813,-1.6954,-1.7326,-1.6576,-1.6706,-1.6453,-1.5737,-1.5854,-1.5962,-1.6003,-1.6003,-1.598,-1.5927,-1.5316,-1.5232,-1.5598,-1.5087,-1.5197,-1.5824,0.0,0.0,-1.6236,-1.6481,-1.6577,-1.6568,-1.6697,-1.6478,-1.6014,-1.5619,-1.4665,-1.3544,-1.325,-1.2666,-1.2051,-1.2076,-1.2101,-1.2208,-1.2737,-1.3466,-1.4053,-1.3638,-1.3825,-1.3988,-1.3455,-1.3016,-1.2822,-1.33,-1.3396,-1.3396,-1.3396,-1.305,-1.2579,-1.2166,-1.2101,-1.2101,-1.2101,-1.2101,-1.2101,-1.2101,-1.2101,-1.2101,-1.2101,-1.2298,-1.2446,-1.248,-1.2455,-1.2446,-1.248,-1.2455,-1.2455,-1.2455,-1.2455,-1.2397,-1.2274,-1.2274,-1.2224,-1.2101,-1.2101,-1.2101,-1.2101,-1.2101,-1.2101,-1.2119,-1.2831,-1.3177,-0.6902,-0.7735,-0.8552,-0.8838,-0.8981,-0.9351,-1.0467,-1.0668,-1.0882,-1.1842,-1.2183,-1.2366,-1.2404,-1.2699,-1.3001,-1.3098,-1.3244,-1.3656,-1.4556,-1.5727,-1.6722,-1.7311,-1.8313,-1.8651,-1.7676,-1.7301,0.0,0.0,0.0,-1.576,-1.5636,-1.5677,-1.567,-1.5696,-1.5737,-1.5812,-1.6003,-1.6003,-1.5907,-1.5671,-1.5202,-1.527,-1.5745,-1.5008,-1.5053,-1.579,0.0,0.0,-1.5915,-1.6209,-1.6342,-1.6341,-1.609,-1.592,-1.5733,-1.4689,-1.3927,-1.3329,-1.2636,-1.212,-1.1803,-1.2026,-1.2101,-1.2339,-1.3561,-1.3844,-1.3842,-1.4514,-1.4222,-1.3572,-1.3047,-1.2573,-1.224,-1.2338,-1.2363,-1.2363,-1.2363,-1.2289,-1.219,-1.2126,-1.2101,-1.2101,-1.2101,-1.2101,-1.2101,-1.2101,-1.2101,-1.2101,-1.2101,-1.215,-1.22,-1.2323,-1.2249,-1.22,-1.2332,-1.2224,-1.2175,-1.2175,-1.2175,-1.215,-1.215,-1.2126,-1.2126,-1.2101,-1.2101,-1.2101,-1.2101,-1.2101,-1.2101,-1.2119,-1.2351,-1.2464,-0.5986,-0.6773,-0.7634,-0.797,-0.8354,-0.8827,-0.9489,-1.0077,-1.0691,-1.131,-1.1947,-1.2452,-1.2576,-1.2689,-1.2813,-1.291,-1.305,-1.3269,-1.383,-1.469,-1.5426,-1.5783,-1.6553,-1.6844,-1.6222,-1.5775,-1.5291,-1.463,0.0,-1.4174,-1.4636,-1.4258,-1.4048,-1.4119,-1.4161,-1.4196,-1.4273,-1.4273,-1.4165,-1.3872,-1.3539,-1.3575,-1.3873,-1.3433,-1.3562,-1.4093,-1.4305,0.0,-1.4984,-1.539,-1.5686,-1.5894,-1.5836,-1.5508,-1.4968,-1.4263,-1.357,-1.2914,-1.2378,-1.198,-1.1728,-1.1852,-1.1902,-1.2061,-1.2939,-1.3064,-1.303,-1.348,-1.3264,-1.2812,-1.2358,-1.2058,-1.1902,-1.1902,-1.1902,-1.1902,-1.1902,-1.1902,-1.1902,-1.1902,-1.1902,-1.1902,-1.1902,-1.1902,-1.1927,-1.1977,-1.1753,-1.1569,-1.1518,-1.1292,-1.1401,-1.2126,-1.1902,-1.1703,-1.1769,-1.1435,-1.1217,-1.1217,-1.1217,-1.1217,-1.1217,-1.1217,-1.1217,-1.1217,-1.1141,-1.1116,-1.1116,-1.104,-1.109,-1.1231,-1.1499,-1.17,-0.531,-0.5957,-0.6623,-0.7064,-0.7599,-0.8129,-0.8471,-0.9426,-1.0359,-1.0805,-1.176,-1.2544,-1.2775,-1.2813,-1.2813,-1.2813,-1.291,-1.3133,-1.3375,-1.3825,-1.4242,-1.4509,-1.4792,-1.4837,-1.4535,-1.4099,0.0,-1.3441,0.0,0.0,-1.3669,-1.3082,-1.2705,-1.2705,-1.2705,-1.2705,-1.2705,-1.265,-1.2487,-1.2228,-1.1922,-1.1925,-1.2124,-1.202,-1.2137,-1.2504,-1.2895,0.0,0.0,-1.4288,-1.4657,-1.4926,-1.4992,-1.4639,-1.409,-1.3778,-1.3267,-1.2624,-1.2359,-1.2,-1.1708,-1.1629,-1.1644,-1.1774,-1.2192,-1.2245,-1.22,-1.2289,-1.2245,-1.2103,-1.1783,-1.1703,-1.1703,-1.1703,-1.1703,-1.1703,-1.1703,-1.1703,-1.1703,-1.1703,-1.1703,-1.1703,-1.1703,-1.1594,-1.1544,-1.1644,-1.1217,-1.0854,-1.0788,-1.0415,-1.055,-1.1535,-1.1259,-1.1006,-1.1006,-1.0584,-1.0312,-1.0312,-1.0312,-1.0312,-1.0312,-1.0312,-1.0312,-1.0312,-1.021,-1.0167,-1.0167,-1.0038,-1.0128,-1.0408,-1.0677,-1.0928,-0.4793,-0.4905,-0.507,-0.5375,-0.5475,-0.5922,-0.7363,-0.853,-0.9694,-1.0893,-1.2037,-1.2786,-1.2807,-1.2813,-1.2813,-1.2813,0.0,-1.2889,-1.3121,-1.3374,-1.368,-1.3925,-1.4214,-1.427,-1.4017,-1.3705,-1.342,0.0,0.0,0.0,-1.2833,-1.2747,-1.2705,-1.2705,-1.2705,-1.2705,-1.2705,-1.2469,-1.2216,-1.1916,-1.1651,-1.1789,-1.2254,-1.1912,-1.1998,-1.2504,-1.2813,0.0,0.0,-1.3016,-1.3159,-1.2931,-1.2581,-1.2746,-1.3172,-1.2771,-1.2769,-1.2897,-1.253,-1.2125,-1.173,-1.1438,-1.1502,-1.1774,-1.2192,-1.2049,-1.1836,-1.22,-1.204,-1.1747,-1.1712,-1.1703,-1.1703,-1.1703,-1.1703,-1.1703,-1.1703,-1.1703,-1.1703,-1.1703,-1.1703,-1.1703,-1.1703,-1.1242,-1.088,-1.0905,-1.0431,-1.009,-1.009,-1.0038,-1.0064,-1.0167,-1.0149,-1.0115,-1.0115,-1.0064,-1.0038,-1.0038,-1.0038,-1.0038,-1.0038,-1.0038,-1.0038,-1.0038,-1.0012,-1.0012,-1.0012,-1.002,-1.0128,-1.0408,-1.0193,-1.0246,-0.4783,-0.476,-0.4834,-0.4937,-0.509,-0.5388,-0.6234,-0.7865,-0.9395,-1.0092,-1.1624,-1.2813,-1.2813,-1.2813,-1.2813,0.0,0.0,0.0,-1.2932,-1.3116,-1.3291,-1.3434,-1.3652,-1.3763,0.0,0.0,-1.2984,0.0,0.0,0.0,-1.2491,-1.2619,-1.2705,-1.2705,-1.2705,-1.2626,-1.2469,-1.2367,-1.206,-1.1645,-1.1543,-1.1536,-1.1552,-1.1402,-1.1376,-1.1431,-1.152,0.0,0.0,-1.2032,-1.2226,-1.2336,-1.2163,-1.2114,-1.2109,-1.1972,-1.1844,-1.1819,-1.2055,-1.1747,-1.1241,-1.1505,-1.1302,-1.1015,-1.1533,-1.1599,-1.1478,-1.1644,-1.1574,-1.1452,-1.1452,-1.1452,-1.1452,-1.1452,-1.1452,-1.1452,-1.1452,-1.1167,-1.0913,-1.0913,-1.0651,-1.0438,-1.0438,-1.0233,-1.0105,-1.0182,-0.9744,-0.9406,-0.9399,-0.9112,-0.8863,-0.8758,-0.9197,-0.951,-0.951,-0.9223,-0.904,-0.904,-0.904,-0.904,-0.904,-0.904,-0.904,-0.904,-0.8961,-0.8916,-0.8916,-0.8958,-0.9109,-0.9365,-0.9427,-0.9602,-0.4784,-0.4784,-0.4784,-0.4784,-0.4937,-0.5238,-0.5934,-0.7617,-0.9247,-0.9944,-1.1526,-1.2813,-1.2813,-1.2813,-1.2813,0.0,0.0,-1.2813,-1.2813,-1.2904,-1.3007,-1.3007,0.0,-1.3303,0.0,-1.2897,0.0,0.0,0.0,0.0,0.0,-1.2378,-1.2421,-1.2421,-1.2463,-1.238,-1.2116,-1.2079,-1.1856,-1.1495,-1.1411,-1.1266,-1.1111,-1.1111,-1.0966,-1.0683,0.0,0.0,0.0,-1.1046,-1.1142,-1.1328,-1.1328,-1.1291,-1.1212,-1.1212,-1.1169,-1.121,-1.1569,-1.1341,-1.0909,-1.1115,-1.0751,-1.0296,-1.0632,-1.0888,-1.1065,-1.1242,-1.1175,-1.104,-1.104,-1.0913,-1.0804,-1.0804,-1.0804,-1.0804,-1.0804,-1.0446,-1.0164,-1.0164,-0.9847,-0.9588,-0.9588,-0.9458,-0.9399,-0.9477,-0.9021,-0.8685,-0.8672,-0.8342,-0.8062,-0.7928,-0.8454,-0.8817,-0.8817,-0.848,-0.8242,-0.8242,-0.8242,-0.8242,-0.8242,-0.8242,-0.8242,-0.8242,-0.8242,-0.8232,-0.8232,-0.8363,-0.8537,-0.8771,-0.8956,-0.9152,-0.4784,-0.4784,-0.4784,-0.4784,-0.4784,-0.5233,-0.6825,-0.8014,-0.9247,-1.0828,-1.2063,-1.2813,-1.2813,-1.2813,-1.2813,-1.2813,-1.2813,0.0,-1.2813,-1.2813,-1.2813,-1.2813,-1.2813,-1.2813,-1.2813,-1.2563,0.0,0.0,0.0,0.0,0.0,-1.184,-1.1696,-1.1696,-1.1904,-1.1864,-1.1611,-1.1555,-1.1501,-1.1489,-1.1212,-1.1111,-1.1111,-1.1111,-1.0966,0.0,0.0,0.0,0.0,-0.9907,-0.9757,-0.9516,-0.9516,-0.9926,-1.0516,-1.0516,-1.0937,-1.1465,-1.1135,-1.0996,-1.0857,-1.0079,-0.9816,-0.976,-0.9506,-0.988,-1.0531,-1.1141,-1.0863,-1.0403,-1.0403,-1.0035,-0.9614,-0.9614,-0.9614,-0.9614,-0.9614,-0.9614,-0.9614,-0.9614,-0.9614,-0.9588,-0.9588,-0.9171,-0.8804,-0.8804,-0.8289,-0.7901,-0.7901,-0.7901,-0.7901,-0.7901,-0.7901,-0.7928,-0.7928,-0.7901,-0.7901,-0.7901,-0.7901,-0.7901,-0.7901,-0.7901,-0.7901,-0.7901,-0.8153,-0.8285,-0.8285,-0.8572,-0.8753,-0.8892,-0.8892,-0.8939,-0.4784,-0.4784,-0.4935,-0.5489,-0.5639,-0.6037,-0.767,-0.8859,-0.9944,-1.0974,-1.2063,-1.2813,-1.2813,-1.2813,-1.2813,-1.2813,-1.2813,0.0,0.0,-1.2813,-1.2813,-1.2813,-1.2813,-1.2683,0.0,0.0,0.0,0.0,0.0,0.0,0.0,-1.1319,-1.1358,-1.1691,-1.1571,-1.1399,-1.1111,-1.1109,-1.1014,-1.0828,-1.0741,-1.07,-1.07,-1.07,0.0,0.0,0.0,0.0,0.0,-0.9451,-0.9221,-0.9183,-0.9312,-0.9498,-0.969,-0.9792,-0.9881,-1.004,-1.039,-1.0291,-1.0013,-1.0205,-0.9853,-0.9339,-0.9439,-0.9578,-0.9777,-1.0053,-0.9925,-0.9725,-0.9725,-0.9529,-0.9313,-0.9313,-0.9313,-0.937,-0.9517,-0.9234,-0.9049,-0.922,-0.8928,-0.8657,-0.8657,-0.8514,-0.84,-0.84,-0.8235,-0.8098,-0.8098,-0.8098,-0.8057,-0.7906,-0.791,-0.7901,-0.7887,-0.7901,-0.7869,-0.7783,-0.7756,-0.7729,-0.7628,-0.7628,-0.7709,-0.791,-0.7992,-0.8091,-0.8247,-0.8496,-0.875,-0.8966,-0.8966,-0.8745,-0.5327,-0.5236,-0.5438,-0.6239,-0.6439,-0.6886,-0.8612,-0.9505,-1.0293,-1.1277,-1.2165,-1.2764,-1.2521,-1.2662,-1.2813,-1.2813,-1.2813,-1.2813,0.0,0.0,0.0,-1.2813,0.0,0.0,0.0,0.0,0.0,0.0,0.0,0.0,0.0,-1.0434,-1.0422,-1.0708,-1.094,-1.0903,-1.0654,-1.0726,-1.0678,-1.0513,-1.0513,-1.0513,-1.0513,-1.0513,0.0,0.0,0.0,0.0,0.0,-0.9228,-0.8985,-0.9017,-0.9145,-0.9177,-0.921,-0.928,-0.9247,-0.9236,-0.9678,-0.9605,-0.9358,-0.9622,-0.9244,-0.8714,-0.8893,-0.9119,-0.9347,-0.9425,-0.9249,-0.9021,-0.9021,-0.8804,-0.8586,-0.8691,-0.8717,-0.8774,-0.8955,-0.8736,-0.8563,-0.8726,-0.8445,-0.8191,-0.8191,-0.8191,-0.8191,-0.8191,-0.8191,-0.8191,-0.8191,-0.8191,-0.8159,-0.8023,-0.8006,-0.8,-0.8018,-0.7852,-0.7708,-0.7622,-0.7709,-0.7734,-0.7658,-0.7727,-0.7852,-0.8006,-0.8097,-0.8228,-0.8357,-0.8576,-0.8779,-0.8926,-0.8598,-0.8204,0.0,-0.6134,-0.6289,-0.7089,-0.7288,-0.7779,-0.9604,-1.0051,0.0,-1.1683,-1.237,-1.2565,-1.2078,-1.2419,-1.2813,-1.2813,-1.2813,-1.2813,-1.2813,-1.2813,0.0,0.0,-1.2813,0.0,0.0,0.0,0.0,0.0,0.0,0.0,0.0,-0.9268,-0.8996,-0.8982,-0.9899,-1.0302,-1.0186,-1.0331,-1.04,-1.0475,-1.0475,-1.0475,-1.0475,-1.0475,0.0,0.0,0.0,0.0,0.0,-0.9195,-0.8952,-0.8952,-0.8985,-0.8985,-0.8985,-0.8985,-0.8985,-0.8985,-0.8985,-0.8985,-0.8918,-0.8541,-0.8229,-0.8019,-0.8019,-0.8524,-0.9141,-0.9141,-0.8758,-0.8378,-0.8378,-0.7949,-0.7575,-0.7835,-0.7886,-0.796,-0.8163,-0.8214,-0.819,-0.8207,-0.8212,-0.8212,-0.8212,-0.8212,-0.8212,-0.8212,-0.8212,-0.8212,-0.8212,-0.8212,-0.8207,-0.819,-0.8214,-0.8179,-0.8162,-0.779,-0.7545,-0.7545,-0.7761,-0.7915,-0.7886,-0.8061,-0.8167,-0.8214,-0.8457,-0.8581,-0.8581,-0.8723,-0.877,-0.877,-0.7884,-0.7456,-0.7557,0.0,-0.7089,-0.7935,-0.8134,-0.8478,0.0,-1.031,-1.0502,-1.1243,-1.1834,-1.2175,-1.2024,-1.2419,-1.2813,-1.2813,-1.2813,-1.2813,-1.2813,-1.2813,0.0,-1.2813,-1.2813,-1.2624,0.0,0.0,0.0,0.0,0.0,0.0,0.0,-0.8622,-0.8029,-0.788,-0.8107,-0.878,-0.9954,-0.942,-0.9425,-1.003,-1.003,-1.003,-1.003,-1.003,0.0,0.0,0.0,0.0,-0.9313,-0.8804,-0.8608,-0.8641,-0.8802,-0.8835,-0.8861,-0.8958,-0.8926,-0.8835,-0.8835,-0.8738,-0.8598,-0.8511,-0.8327,-0.8157,-0.8157,-0.8278,-0.8437,-0.8437,-0.8259,-0.8086,-0.8086,-0.7918,-0.7732,-0.7821,-0.7832,-0.7898,-0.8138,-0.8187,-0.8247,-0.8407,-0.8445,-0.8445,-0.8445,-0.8445,-0.8445,-0.8445,-0.8445,-0.8445,-0.8445,-0.8445,-0.8369,-0.8209,-0.8187,-0.8116,-0.7906,-0.7991,-0.7982,-0.7884,-0.7939,-0.7944,-0.7832,-0.7857,-0.7977,-0.8187,-0.8402,-0.8527,-0.8527,-0.8554,-0.8582,-0.8544,-0.7819,-0.719,-0.8634,-0.8258,-0.7935,-0.873,-0.8931,-0.9225,-1.0167,-1.0413,-1.0462,-1.0757,-1.1247,-1.1536,-1.1292,-1.1683,-1.2078,-1.2078,-1.2078,-1.2175,0.0,0.0,-1.2419,-1.2419,-1.2373,0.0,0.0,0.0,0.0,0.0,0.0,0.0,0.0,-0.743,-0.7025,-0.6892,-0.6549,-0.7122,-0.8765,-0.8351,-0.8542,-0.9349,-0.9349,-0.9539,-0.9884,-0.9884,-0.9863,0.0,0.0,0.0,-0.9017,-0.8662,-0.8517,-0.8517,-0.8608,-0.8679,-0.8673,-0.8738,-0.8732,-0.8679,-0.8679,-0.8582,-0.8517,-0.8517,-0.8425,-0.8349,-0.8349,-0.8325,-0.8301,-0.8075,-0.7979,-0.7914,-0.7914,-0.7855,-0.7828,-0.7966,-0.7987,-0.8057,-0.8295,-0.8349,-0.8355,-0.849,-0.8517,-0.8517,-0.8517,-0.8517,-0.8517,-0.8517,-0.8517,-0.8517,-0.8517,-0.8517,-0.8463,-0.8365,-0.8349,-0.8264,-0.814,-0.8253,-0.8215,-0.7925,-0.8012,-0.8048,-0.7987,-0.8065,-0.8188,-0.8344,-0.8447,-0.8517,-0.8517,-0.8112,-0.7912,-0.7879,-0.6761,-0.6034,-0.9458,-0.9005,-0.87,-0.9422,-0.9579,-0.9727,-1.0167,-1.0265,-1.0265,-1.0265,-1.0703,-1.0953,-1.0462,-1.085,-1.1194,-1.1194,0.0,0.0,-1.1834,-1.1883,-1.1883,-1.1883,-1.1677,0.0,0.0,0.0,0.0,0.0,0.0,0.0,0.0,-0.6205,-0.6012,-0.5973,-0.5323,-0.567,-0.7119,-0.7234,-0.7693,-0.8508,-0.8623,-0.9026,-0.9675,-0.9793,-0.9739,0.0,0.0,0.0,-0.8879,-0.8608,-0.8517,-0.8517,-0.8517,-0.8517,-0.8517,-0.8517,-0.8517,-0.8517,-0.8517,-0.8517,-0.8517,-0.8517,-0.8517,-0.8517,-0.8517,-0.8517,-0.8431,-0.8021,-0.7908,-0.7908,-0.7908,-0.7908,-0.7957,-0.8187,-0.8236,-0.829,-0.8404,-0.842,-0.8414,-0.8349,-0.8349,-0.8349,-0.8349,-0.8382,-0.8414,-0.8349,-0.8382,-0.8414,-0.8349,-0.8349,-0.8349,-0.8349,-0.8349,-0.8349,-0.8349,-0.8284,-0.8053,-0.7658,-0.7968,-0.8142,-0.8105,-0.8174,-0.822,-0.822,-0.8149,-0.8117,-0.8084,-0.7349,-0.7018,-0.6948,-0.5474,-0.4815,-0.9676,-0.9496,-0.9288,-0.9538,-0.9579,-0.9628,-0.9723,-0.9727,-0.9727,-0.9727,-1.0167,-1.0511,-1.0413,-1.085,-1.1194,-1.1194,0.0,-1.1243,0.0,0.0,-1.134,-1.134,0.0,0.0,0.0,0.0,0.0,0.0,0.0,0.0,0.0,-0.5626,-0.509,-0.4932,-0.4973,-0.5132,-0.5362,-0.6051,-0.6815,-0.7693,-0.8389,-0.8642,-0.8572,-0.9327,-0.9497,0.0,0.0,-0.8927,-0.8879,-0.8608,-0.8517,-0.8517,-0.8517,-0.8517,-0.8517,-0.8517,-0.8517,-0.8517,-0.8517,-0.8517,-0.8517,-0.8517,-0.8517,-0.8517,-0.8517,-0.8517,-0.8501,-0.8425,-0.8404,-0.8404,-0.8404,-0.8404,-0.8414,-0.8452,-0.8458,-0.8372,-0.8144,-0.8084,-0.7987,-0.7722,-0.7657,-0.7657,-0.7657,-0.7884,-0.7987,-0.7689,-0.7884,-0.7987,-0.7689,-0.7657,-0.7657,-0.7657,-0.7657,-0.7657,-0.7657,-0.7232,-0.6944,-0.6882,-0.7589,-0.7899,-0.7603,-0.7214,-0.697,-0.697,-0.6531,-0.6301,-0.6301,-0.6166,-0.61,-0.6067,-0.5209,-0.4815,-0.9477,-0.9341,-0.9283,-0.9559,-0.9579,-0.9579,-0.9579,-0.9579,-0.9579,-0.9579,-0.9772,-0.9969,-0.9969,-1.0167,-1.0364,-1.0364,0.0,-1.0462,-1.0708,-1.0757,-1.0711,0.0,0.0,0.0,0.0,0.0,0.0,0.0,0.0,0.0,0.0,0.0,-0.4621,-0.4543,-0.4621,-0.4673,-0.4617,-0.4991,-0.5894,-0.7284,-0.7284,-0.7821,-0.8786,-0.8837,-0.8932,-0.9046,0.0,-0.8825,-0.8667,-0.856,-0.8517,-0.8517,-0.8517,-0.8517,-0.8517,-0.8517,-0.8382,-0.8214,-0.8214,-0.8117,-0.7954,-0.7954,-0.7954,-0.7954,-0.7954,-0.7954,-0.7954,-0.7954,-0.822,-0.8452,-0.8284,-0.8214,-0.8182,-0.8019,-0.7954,-0.7922,-0.7754,-0.7722,-0.7689,-0.7521,-0.7489,-0.7489,-0.7489,-0.7619,-0.7689,-0.7526,-0.7619,-0.7689,-0.7526,-0.7489,-0.7391,-0.7097,-0.7068,-0.6966,-0.6662,-0.6404,-0.6272,-0.6272,-0.6634,-0.6793,-0.6629,-0.6404,-0.6272,-0.6272,-0.6038,-0.5903,-0.5903,-0.5404,-0.514,-0.514,-0.4317,-0.3923,-0.9456,-0.9189,-0.9181,-0.9539,-0.9579,-0.9579,-0.9579,-0.9579,-0.9579,-0.9579,-0.9579,-0.9579,-0.9579,-0.9579,0.0,-0.9579,-0.9579,-0.9723,-1.0167,0.0,0.0,0.0,0.0,0.0,0.0,0.0,0.0,0.0,0.0,0.0,0.0,0.0,-0.4373,-0.4271,-0.4349,-0.4339,-0.4238,-0.4238,-0.4972,-0.6404,-0.611,-0.6788,-0.8274,-0.8004,-0.8068,-0.8441,-0.8441,-0.8376,-0.8284,-0.8349,-0.8382,-0.8382,-0.8484,-0.8452,-0.8382,-0.8382,-0.8187,-0.7884,-0.7884,-0.7722,-0.7489,-0.7489,-0.7489,-0.7489,-0.7489,-0.7489,-0.7489,-0.7489,-0.7857,-0.822,-0.7954,-0.7884,-0.7819,-0.7559,-0.7489,-0.7456,-0.7396,-0.7363,-0.733,-0.7265,-0.7232,-0.7232,-0.7232,-0.7297,-0.7297,-0.7097,-0.7129,-0.7092,-0.6896,-0.6863,-0.6699,-0.6309,-0.6243,-0.6042,-0.551,-0.5444,-0.5411,-0.5279,-0.5507,-0.5642,-0.5642,-0.551,-0.5444,-0.5444,-0.5345,-0.5279,-0.5279,-0.4547,-0.4181,-0.4181,-0.3525,-0.3192,-0.9957,-0.9418,-0.9181,-0.9539,-0.9579,-0.9579,-0.9579,-0.9579,-0.9579,-0.9579,-0.9579,-0.9579,-0.9579,-0.9579,-0.9579,-0.9579,-0.9579,-0.9628,0.0,0.0,0.0,0.0,0.0,0.0,0.0,0.0,0.0,0.0,0.0,0.0,0.0,0.0,0.0,-0.3944,-0.4171,-0.4234,-0.4126,-0.4123,-0.4196,-0.4341,-0.5201,-0.5622,-0.5614,-0.6486,-0.6971,-0.7045,-0.7045,-0.7237,-0.7591,-0.7922,-0.8052,-0.8052,-0.8382,-0.8317,-0.8052,-0.8052,-0.7819,-0.7521,-0.7521,-0.7526,-0.7489,-0.7489,-0.7489,-0.7489,-0.7489,-0.7489,-0.7489,-0.7489,-0.7521,-0.7559,-0.7554,-0.7521,-0.7521,-0.7489,-0.7489,-0.7396,-0.7012,-0.6946,-0.6848,-0.6552,-0.6482,-0.6482,-0.6482,-0.6749,-0.6679,-0.5848,-0.6009,-0.591,-0.5113,-0.4978,-0.4981,-0.4948,-0.4948,-0.4719,-0.4192,-0.4125,-0.3928,-0.3426,-0.432,-0.4882,-0.4882,-0.4389,-0.4125,-0.4125,-0.3658,-0.3391,-0.3391,-0.3326,-0.3293,-0.3293,-0.3226,-0.3192,-1.0327,-0.9693,-0.9181,-0.9539,-0.9579,-0.9579,-0.9579,-0.9579,-0.9579,-0.9579,-0.9579,-0.9579,0.0,0.0,-0.9579,-0.9579,-0.9579,-0.9587,0.0,0.0,0.0,0.0,0.0,0.0,0.0,0.0,0.0,0.0,0.0,0.0,0.0,0.0,0.0,-0.3703,-0.3762,-0.3762,-0.3664,-0.3661,-0.3631,-0.3537,-0.4224,-0.4954,-0.5661,-0.5598,-0.5833,-0.6264,-0.6264,-0.6568,-0.6999,-0.7134,-0.7396,-0.7657,-0.7461,-0.7297,-0.7167,-0.683,-0.6662,-0.6638,-0.6638,-0.6704,-0.6811,-0.6811,-0.6811,-0.6811,-0.6811,-0.6811,-0.6811,-0.6811,-0.6811,-0.6876,-0.7073,-0.7138,-0.7073,-0.6876,-0.6811,-0.6778,-0.6613,-0.6585,-0.6552,-0.642,-0.6387,-0.6284,-0.5951,-0.6017,-0.5881,-0.5216,-0.5213,-0.518,-0.4848,-0.4815,-0.4683,-0.4323,-0.399,-0.3623,-0.3222,-0.3188,-0.3023,-0.2591,-0.3357,-0.3789,-0.3789,-0.3627,-0.3493,-0.3493,-0.3293,-0.3192,-0.3192,-0.3192,-0.3092,-0.2889,-0.2889,-0.2788,-1.0127,-0.9605,-0.9181,-0.9539,-0.9579,-0.9579,-0.9579,-0.9579,-0.9579,-0.9579,-0.9579,-0.9579,-0.9579,0.0,0.0,0.0,-0.9543,0.0,0.0,0.0,0.0,0.0,0.0,0.0,0.0,0.0,0.0,0.0,0.0,0.0,0.0,0.0,0.0,0.0,-0.3487,-0.3413,-0.3322,-0.332,-0.3289,-0.3194,-0.3528,-0.4199,-0.5113,-0.4683,-0.4815,-0.5408,-0.5408,-0.5675,-0.6108,-0.6207,-0.6535,-0.6961,-0.6605,-0.6371,-0.6207,-0.5837,-0.5807,-0.5943,-0.5943,-0.6148,-0.6387,-0.6387,-0.6387,-0.6387,-0.6387,-0.6387,-0.6387,-0.6387,-0.6284,-0.6214,-0.6416,-0.6613,-0.6683,-0.6453,-0.6387,-0.6387,-0.6387,-0.6251,-0.6148,-0.6148,-0.6017,-0.5782,-0.5415,-0.5348,-0.5113,-0.4483,-0.4384,-0.4284,-0.4018,-0.3984,-0.3854,-0.3458,-0.3092,-0.279,-0.2554,-0.2554,-0.2453,-0.2221,-0.2624,-0.2891,-0.2891,-0.2891,-0.2891,-0.2891,-0.2891,-0.2891,-0.2891,-0.2891,-0.2757,-0.2554,-0.2554,-0.2421,-0.94,-0.9096,-0.9181,-0.9539,-0.9579,-0.9579,-0.9579,-0.9579,-0.9579,-0.9579,-0.9579,-0.9579,-0.9579,-0.9579,0.0,-0.9433,0.0,0.0,0.0,0.0,0.0,0.0,0.0,0.0,0.0,0.0,0.0,0.0,0.0,0.0,0.0,0.0,0.0,0.0,-0.3397,-0.3318,-0.3194,-0.3192,-0.3192,-0.3192,-0.3192,-0.3295,-0.3498,-0.3694,-0.399,-0.4287,-0.4287,-0.4483,-0.4815,-0.5143,-0.554,-0.5903,-0.587,-0.5639,-0.5276,-0.5276,-0.5411,-0.558,-0.5583,-0.5951,-0.6387,-0.6387,-0.6387,-0.6383,-0.6383,-0.6383,-0.6383,-0.6383,-0.5984,-0.558,-0.558,-0.5984,-0.6383,-0.6383,-0.6383,-0.6383,-0.6383,-0.5951,-0.5583,-0.5583,-0.515,-0.4782,-0.4782,-0.4782,-0.4483,-0.362,-0.3487,-0.3188,-0.2321,-0.2188,-0.2188,-0.2188,-0.2188,-0.2188,-0.2188,-0.2188,-0.2188,-0.2188,-0.2188,-0.2188,-0.2188,-0.2188,-0.2188,-0.2188,-0.2188,-0.2188,-0.2188,-0.2188,-0.2188,-0.2188,-0.2188,-0.2188,-0.995,-0.9497,-0.9181,-0.9539,-0.9579,-0.9579,-0.9579,-0.9579,-0.9579,-0.9579,-0.9579,-0.9579,-0.9579,-0.943,0.0,0.0,0.0,0.0,0.0,0.0,0.0,0.0,0.0,0.0,0.0,0.0,0.0,0.0,0.0,0.0,0.0,0.0,0.0,0.0,-0.3301,-0.3254,-0.3192,-0.3192,-0.3192,-0.3192,-0.3192,-0.3228,-0.3295,-0.336,-0.3426,-0.3525,-0.3525,-0.3792,-0.4289,-0.4749,-0.5014,-0.508,-0.4719,-0.4489,-0.4323,-0.3956,-0.409,-0.4525,-0.4918,-0.5382,-0.5881,-0.6284,-0.6148,-0.5848,-0.5848,-0.5418,-0.4918,-0.4918,-0.4616,-0.4278,-0.4278,-0.4583,-0.4984,-0.5216,-0.5547,-0.5749,-0.5348,-0.4951,-0.4686,-0.4686,-0.4314,-0.3913,-0.3513,-0.348,-0.3249,-0.2688,-0.2587,-0.2488,-0.2221,-0.2188,-0.2188,-0.2188,-0.2188,-0.2087,-0.1817,-0.1783,-0.1681,-0.1446,-0.1412,-0.1648,-0.2188,-0.2188,-0.2188,-0.2188,-0.2188,-0.2188,-0.2188,-0.2188,-0.2052,-0.1783,-0.1783,-0.1648,-0.9736,-0.9422,-0.9181,-0.9539,-0.9579,-0.9579,-0.9579,-0.9579,-0.9579,0.0,-0.9529,-0.943,-0.943,-0.9229,0.0,0.0,0.0,0.0,0.0,0.0,0.0,0.0,0.0,0.0,0.0,0.0,0.0,0.0,0.0,0.0,0.0,0.0,0.0,0.0,-0.3254,-0.3192,-0.3192,-0.3192,-0.3192,-0.3192,-0.3192,-0.3192,-0.3192,-0.3192,-0.3192,-0.3192,-0.3192,-0.3393,-0.3694,-0.4023,-0.4154,-0.412,-0.3792,-0.3694,-0.3627,-0.3326,-0.3527,-0.4061,-0.4356,-0.4818,-0.5348,-0.565,-0.5448,-0.5084,-0.5084,-0.4616,-0.4048,-0.4048,-0.3747,-0.3378,-0.3378,-0.3547,-0.3882,-0.445,-0.4851,-0.4984,-0.4683,-0.4148,-0.3749,-0.3749,-0.3382,-0.3017,-0.2683,-0.2618,-0.2484,-0.2018,-0.185,-0.1749,-0.1749,-0.1749,-0.1749,-0.1749,-0.1749,-0.1681,-0.1412,-0.1412,-0.1311,-0.1109,-0.1109,-0.1311,-0.1748,-0.1749,-0.1749,-0.1749,-0.1749,-0.1749,-0.1749,-0.1749,-0.1648,-0.1412,-0.1412,-0.1277,-0.9109,-0.9084,-0.9181,-0.9539,-0.9579,-0.9579,-0.9579,-0.9579,-0.9579,-0.9579,0.0,-0.9187,-0.9183,-0.8867,0.0,0.0,0.0,0.0,0.0,0.0,0.0,0.0,0.0,0.0,0.0,0.0,0.0,0.0,0.0,0.0,0.0,0.0,0.0,0.0,-0.3159,-0.3159,-0.3192,-0.3192,-0.3192,0.0,-0.3192,-0.3192,-0.3192,-0.3192,-0.3192,-0.3192,-0.3192,-0.3192,-0.3192,-0.3192,-0.3192,-0.3192,-0.3192,-0.3192,-0.3192,-0.3192,-0.3493,-0.3894,-0.3928,-0.4256,-0.4646,-0.468,-0.445,-0.4187,-0.4187,-0.3849,-0.3511,-0.3511,-0.3145,-0.2746,-0.2746,-0.2746,-0.3013,-0.3851,-0.412,-0.4154,-0.412,-0.3416,-0.278,-0.278,-0.2418,-0.2087,-0.2087,-0.2087,-0.1985,-0.1614,-0.1311,-0.1109,-0.1109,-0.1109,-0.1109,-0.1109,-0.1109,-0.1109,-0.1109,-0.1109,-0.1109,-0.1109,-0.1109,-0.1109,-0.1109,-0.1109,-0.1109,-0.1109,-0.1109,-0.1109,-0.1109,-0.1109,-0.1109,-0.1109,-0.1109,-0.1111,-0.8984,-0.8986,-0.9181,-0.9539,-0.9579,-0.9579,-0.9579,-0.943,-0.9286,-0.9286,-0.9236,-0.9133,-0.8928,0.0,0.0,0.0,0.0,0.0,0.0,0.0,0.0,0.0,0.0,0.0,0.0,0.0,0.0,0.0,0.0,0.0,0.0,0.0,0.0,-0.2788,-0.282,-0.2922,-0.3192,-0.3192,-0.3192,0.0,-0.3192,-0.3192,-0.3192,-0.3192,-0.3192,-0.3192,-0.3192,-0.3192,-0.3192,-0.3192,-0.3192,-0.3192,-0.3192,-0.3192,-0.3192,-0.3192,-0.309,-0.3054,-0.3456,-0.3485,-0.338,-0.3813,-0.3611,-0.3213,-0.3213,-0.2648,-0.2048,-0.2048,-0.178,-0.1478,-0.1478,-0.1679,-0.1914,-0.215,-0.2716,-0.3115,-0.2721,-0.2252,-0.1882,-0.1882,-0.1579,-0.1344,-0.1344,-0.1344,-0.1311,-0.121,-0.1143,-0.1109,-0.1109,-0.1109,-0.1109,-0.1109,-0.1109,-0.1109,-0.1109,-0.1109,-0.1109,-0.1109,-0.1109,-0.1109,-0.1109,-0.1109,-0.1109,-0.1109,-0.1109,-0.1109,-0.1109,-0.1109,-0.1109,-0.1109,-0.1109,-0.1089,-0.921,-0.9138,-0.9181,-0.9539,-0.9579,-0.9579,-0.943,-0.8917,-0.836,-0.8122,-0.8073,-0.8021,-0.787,0.0,0.0,0.0,0.0,0.0,0.0,0.0,0.0,0.0,0.0,0.0,0.0,0.0,0.0,0.0,0.0,0.0,0.0,-0.2206,-0.2354,-0.2686,-0.2686,-0.2855,-0.3192,-0.3192,-0.3192,-0.3192,-0.3025,-0.2956,-0.2956,-0.3125,-0.3192,-0.3192,-0.3192,-0.3192,-0.3192,-0.3192,-0.3192,-0.3192,-0.3192,-0.3092,-0.2956,-0.2956,-0.2755,-0.2487,-0.2788,-0.2753,-0.2618,-0.2883,-0.2649,-0.2281,-0.2281,-0.1847,-0.1344,-0.1344,-0.1244,-0.1109,-0.1109,-0.1244,-0.1344,-0.1344,-0.1813,-0.2214,-0.195,-0.1614,-0.1344,-0.1344,-0.121,-0.1109,-0.1109,-0.1109,-0.1109,-0.1109,-0.1109,-0.1081,-0.0959,-0.1029,-0.1068,-0.1012,-0.0804,-0.0664,-0.0664,-0.0664,-0.0661,-0.0686,-0.0972,-0.1147,-0.1098,-0.1146,-0.114,-0.111,-0.1109,-0.1109,-0.1109,-0.109,-0.1097,-0.1097,-0.1043,-0.0775,-0.9527,-0.9246,-0.9013,-0.9227,-0.9182,-0.897,-0.8746,-0.7938,-0.706,-0.6608,-0.6509,-0.6509,0.0,0.0,0.0,0.0,0.0,0.0,0.0,0.0,0.0,0.0,0.0,0.0,0.0,0.0,0.0,0.0,0.0,0.0,-0.1985,-0.2018,-0.2151,-0.2485,-0.2519,-0.2688,-0.3025,-0.3025,-0.3025,-0.3025,-0.2755,-0.2621,-0.2621,-0.2891,-0.3092,-0.3192,-0.3192,-0.3159,-0.3125,-0.3125,-0.3092,-0.3025,-0.3025,-0.2857,-0.2621,-0.2621,-0.2386,-0.2087,-0.2087,-0.2052,-0.2018,-0.2018,-0.1783,-0.1513,-0.1513,-0.1311,-0.1109,-0.1109,-0.1109,-0.1109,-0.1109,-0.1109,-0.1109,-0.1109,-0.1278,-0.148,-0.1513,-0.1311,-0.1076,-0.1043,-0.1009,-0.1009,-0.1009,-0.1009,-0.0941,-0.084,-0.081,-0.0683,-0.0384,-0.0492,-0.0533,-0.04,-0.0036,0.0182,0.0182,0.0036,-0.0036,-0.0035,-0.0684,-0.1047,-0.0988,-0.1045,-0.1,-0.0784,-0.0818,-0.0818,-0.0783,-0.0628,-0.0564,-0.0564,-0.0469,-0.0036,-0.9566,-0.8916,-0.8284,-0.8149,-0.7495,-0.6842,-0.6781,-0.6112,-0.5494,0.0,-0.5334,0.0,0.0,0.0,0.0,0.0,0.0,0.0,0.0,0.0,0.0,0.0,0.0,0.0,0.0,0.0,0.0,0.0,0.0,0.0,-0.1244,-0.1244,-0.1412,-0.1748,-0.1748,-0.1951,-0.2322,-0.2322,-0.2322,-0.2322,-0.2288,-0.2255,-0.2255,-0.2322,-0.2656,-0.3192,-0.3192,-0.3025,-0.2753,-0.2753,-0.2587,-0.2322,-0.2322,-0.2322,-0.2255,-0.2255,-0.2018,-0.1681,-0.1681,-0.148,-0.1244,-0.1244,-0.121,-0.1176,-0.1176,-0.1143,-0.1109,-0.1109,-0.1109,-0.1109,-0.1109,-0.1109,-0.1109,-0.1109,-0.101,-0.0943,-0.1144,-0.1143,-0.1043,-0.0876,-0.0708,-0.0573,-0.0573,-0.0573,-0.0371,0.0202,0.0377,0.0697,0.1362,0.1534,0.1594,0.16,0.1673,0.171,0.171,0.1018,0.058,0.0579,-0.0145,-0.0582,-0.058,-0.0582,-0.0254,0.0432,0.0288,0.0288,0.0468,0.1228,0.1592,0.1592,0.1598,0.1654,-0.9208,-0.8398,-0.771,-0.7085,-0.6567,-0.6111,-0.5774,-0.4917,-0.419,-0.3968,-0.3461,0.0,0.0,0.0,0.0,0.0,0.0,0.0,0.0,0.0,0.0,0.0,0.0,0.0,0.0,0.0,0.0,0.0,0.0,-0.1109,-0.1109,-0.1109,-0.1244,-0.158,-0.1614,-0.1783,-0.2188,-0.2188,-0.2087,-0.185,-0.185,-0.185,-0.185,-0.185,-0.2153,-0.2624,-0.2624,-0.2555,-0.2421,-0.2421,-0.2321,-0.2188,-0.2188,-0.2052,-0.185,-0.185,-0.1648,-0.1311,-0.1311,-0.121,-0.1109,-0.1109,-0.1109,-0.1109,-0.1109,-0.1109,-0.1109,-0.1109,-0.1109,-0.1109,-0.1109,-0.1009,-0.0943,-0.0943,-0.0775,-0.064,-0.074,-0.0775,-0.064,-0.0168,0.0336,0.0672,0.0672,0.0748,0.0894,0.1168,0.0914,0.1006,0.1893,0.1585,0.1493,0.2043,0.1896,0.1784,0.1784,0.0987,0.0491,0.0521,0.0264,0.0151,0.0186,0.0602,0.1061,0.1515,0.0884,0.0836,0.1418,0.1768,0.1929,0.193,0.207,0.2323,-0.8516,-0.7619,-0.685,-0.5969,-0.555,-0.5151,-0.4487,0.0,-0.2892,0.0,0.0,0.0,0.0,0.0,0.0,0.0,0.0,0.0,0.0,0.0,0.0,0.0,0.0,0.0,0.0,0.0,0.0,0.0,0.0,-0.1109,-0.1109,-0.1109,-0.121,-0.148,-0.148,-0.1614,-0.1918,-0.1918,-0.1783,-0.148,-0.148,-0.148,-0.148,-0.148,-0.1648,-0.1918,-0.212,-0.2154,-0.2052,-0.2052,-0.1985,-0.1918,-0.1918,-0.1748,-0.148,-0.148,-0.1311,-0.1109,-0.1109,-0.1109,-0.1109,-0.1109,-0.1109,-0.1109,-0.1109,-0.1109,-0.1109,-0.1109,-0.1109,-0.1076,-0.1043,-0.0774,-0.0505,-0.0472,-0.0168,0.0034,-0.0202,-0.0337,-0.0236,0.0437,0.0906,0.1177,0.1185,0.1277,0.1402,0.1588,0.1191,0.1182,0.2107,0.1783,0.1763,0.2536,0.2506,0.2468,0.2468,0.1685,0.1206,0.126,0.1163,0.1087,0.1143,0.1743,0.2228,0.2579,0.1887,0.1815,0.2446,0.2602,0.27,0.2702,0.2831,0.3246,-0.758,-0.6473,-0.5451,-0.4766,-0.3866,-0.3035,0.0,0.0,-0.1473,-0.14,0.0,0.0,0.0,0.0,0.0,0.0,0.0,0.0,0.0,0.0,0.0,0.0,0.0,0.0,0.0,0.0,0.0,0.0,0.0,-0.1109,-0.1109,-0.1109,-0.1109,-0.1109,-0.1109,-0.1143,-0.1143,-0.1143,-0.1143,-0.1109,-0.1109,-0.1109,-0.1109,-0.1109,-0.1143,-0.121,-0.1884,-0.1985,-0.1614,-0.1614,-0.1446,-0.1143,-0.1143,-0.1143,-0.1109,-0.1109,-0.1109,-0.1109,-0.1109,-0.1109,-0.1109,-0.1109,-0.1109,-0.1109,-0.1109,-0.1109,-0.1109,-0.1109,-0.1109,-0.1042,-0.0876,-0.0303,0.0269,0.0403,0.1108,0.1543,0.0638,0.0034,-0.0101,0.0639,0.0404,0.0068,0.007,0.0105,0.0319,0.1015,0.1224,0.1509,0.2192,0.3081,0.3669,0.3713,0.4384,0.482,0.482,0.4068,0.3634,0.363,0.2852,0.2384,0.2421,0.2462,0.2854,0.3713,0.3665,0.3661,0.3701,0.4453,0.4851,0.4851,0.4857,0.4859,-0.7458,-0.623,-0.5,-0.3732,-0.3092,-0.2485,-0.1276,-0.0883,-0.0615,-0.0127,0.0,0.0,0.0,0.0,0.0,0.0,0.0,0.0,0.0,0.0,0.0,0.0,0.0,0.0,0.0,0.0,0.0,0.0,0.0,0.0,-0.1076,-0.1109,-0.1109,-0.1109,-0.1109,-0.1109,-0.1109,-0.1109,-0.1109,-0.1109,-0.1109,-0.1109,-0.1109,-0.1109,-0.1109,-0.1109,-0.1379,-0.1412,-0.1277,-0.1277,-0.121,-0.1109,-0.1109,-0.1109,-0.1109,-0.1109,-0.1109,-0.1109,-0.1109,-0.1109,-0.1109,-0.1109,-0.1109,-0.1109,-0.1109,-0.1009,-0.0909,-0.0909,-0.0808,-0.0707,-0.064,-0.0337,-0.0034,0.0135,0.0438,0.0706,0.084,0.1075,0.1176,0.1008,0.1194,0.1522,0.2095,0.2267,0.2584,0.3348,0.3156,0.3167,0.3945,0.3893,0.3988,0.4501,0.4382,0.4226,0.4226,0.3441,0.2971,0.2971,0.3207,0.3324,0.3324,0.3834,0.4268,0.4582,0.4582,0.4582,0.4582,0.4859,0.5018,0.5018,0.5018,0.5018,-0.7342,-0.6008,-0.4603,-0.3377,-0.2882,-0.2346,-0.0868,-0.0437,-0.0174,0.0592,0.0,0.0,0.0,0.0,0.0,0.0,0.0,0.0,0.0,0.0,0.0,0.0,0.0,0.0,0.0,0.0,0.0,0.0,0.0,0.0,-0.0538,-0.0571,-0.0638,-0.084,-0.1008,-0.1109,-0.1109,-0.1109,-0.1109,-0.1109,-0.1109,-0.1109,-0.1109,-0.1109,-0.1109,-0.1109,-0.1109,-0.1109,-0.1109,-0.1109,-0.1109,-0.1109,-0.1109,-0.1109,-0.1109,-0.1109,-0.1109,-0.1109,-0.1109,-0.1109,-0.1076,-0.1009,-0.1009,-0.0975,-0.0908,-0.0808,-0.0708,-0.0708,-0.0607,-0.0506,-0.0438,-0.0135,0.0269,0.0605,0.0908,0.1143,0.1377,0.1612,0.1717,0.153,0.1865,0.2355,0.3002,0.3176,0.341,0.3931,0.3639,0.3558,0.4109,0.3951,0.3988,0.4543,0.4343,0.4185,0.4185,0.3679,0.3326,0.3326,0.3873,0.4185,0.4185,0.4701,0.5018,0.5018,0.5018,0.5018,0.5018,0.5018,0.5018,0.5018,0.5018,0.5018,0.0,0.0,0.0,-0.3719,-0.3175,-0.2473,-0.126,0.0,-0.0042,0.0715,0.0,0.0,0.0,0.0,0.0,0.0,0.0,0.0,0.0,0.0,0.0,0.0,0.0,0.0,0.0,0.0,0.0,0.0,0.0,0.0504,0.0504,0.0504,0.0269,-0.0269,-0.0773,-0.1042,-0.1042,-0.1076,-0.1076,-0.1076,-0.1076,-0.1109,-0.1109,-0.1109,-0.1109,-0.1109,-0.1109,-0.1109,-0.1109,-0.1109,-0.1109,-0.1109,-0.1109,-0.1109,-0.1109,-0.1109,-0.1109,-0.1109,-0.1109,-0.1076,-0.1042,-0.0843,-0.0776,-0.0742,-0.0573,-0.0506,-0.0506,-0.0506,-0.0506,-0.0472,-0.0337,0.037,0.1244,0.1913,0.2614,0.2948,0.2248,0.1613,0.139,0.2157,0.2311,0.235,0.2506,0.2531,0.2556,0.2574,0.2582,0.2582,0.2582,0.3324,0.383,0.383,0.4543,0.5018,0.5018,0.5018,0.5018,0.5018,0.5018,0.5018,0.5018,0.5018,0.5018,0.5018,0.5018,0.5018,0.5018,0.5018,0.5018,0.5018,0.5018,0.5018,-0.7311,0.0,0.0,0.0,0.0,0.0,0.0,0.0,0.0,0.1988,0.0,0.0,0.0,0.0,0.0,0.0,0.0,0.0,0.0,0.0,0.0,0.0,0.0,0.0,0.0,0.0,0.0,0.0,0.1076,0.0908,0.0504,0.0504,0.0437,0.0269,0.0134,0.0067,0.0067,-0.0336,-0.0538,-0.0538,-0.0908,-0.1109,-0.1109,-0.1109,-0.1109,-0.1109,-0.1109,-0.1109,-0.1109,-0.1109,-0.1109,-0.1109,-0.1109,-0.1109,-0.1109,-0.1109,-0.1109,-0.1076,-0.0943,-0.0876,-0.0843,-0.064,-0.0573,-0.0573,-0.0506,-0.0438,-0.0371,-0.0371,-0.0236,-0.0135,-0.0101,0.0101,0.0471,0.121,0.1545,0.1745,0.2047,0.2453,0.2668,0.2374,0.2379,0.2673,0.3315,0.3448,0.3651,0.4224,0.4309,0.4309,0.4309,0.4504,0.4659,0.4659,0.4859,0.5018,0.5018,0.5018,0.5018,0.5018,0.5018,0.5018,0.5018,0.5018,0.5018,0.5018,0.5018,0.5018,0.5018,0.5018,0.5018,0.5018,0.5018,0.5018,-0.7326,-0.6094,-0.4875,0.0,0.0,0.0,-0.0999,0.0044,0.1001,0.0,0.0,0.0,0.0,0.0,0.0,0.0,0.0,0.0,0.0,0.0,0.0,0.0,0.0,0.0,0.0,0.0,0.0,0.1949,0.1882,0.168,0.1244,0.0975,0.084,0.084,0.0605,0.0504,0.0504,0.0202,0.0034,0.0034,-0.0269,-0.0538,-0.0773,-0.0773,-0.0874,-0.1109,-0.1109,-0.1109,-0.1109,-0.1109,-0.1109,-0.1109,-0.1109,-0.1043,-0.0976,-0.0976,-0.0909,-0.0841,-0.0708,-0.0674,-0.064,-0.0472,-0.0404,-0.0404,-0.0303,-0.0236,-0.0169,-0.0169,0.0135,0.0471,0.0471,0.0673,0.0975,0.1411,0.1745,0.2087,0.2552,0.3311,0.373,0.2985,0.3158,0.3634,0.4213,0.4305,0.4462,0.4937,0.5018,0.5018,0.5018,0.5018,0.5018,0.5018,0.5018,0.5018,0.5018,0.5018,0.5018,0.5018,0.5018,0.5018,0.5018,0.5018,0.5018,0.5018,0.5018,0.5018,0.5018,0.5018,0.5018,0.5018,0.5018,0.5018,-0.7343,-0.6165,-0.5068,0.0,0.0,0.0,-0.1747,-0.0416,0.0834,0.0,0.0,0.0,0.0,0.0,0.0,0.0,0.0,0.0,0.0,0.0,0.0,0.0,0.0,0.0,0.0,0.3792,0.3525,0.282,0.272,0.2554,0.2255,0.1715,0.1412,0.1412,0.0941,0.0672,0.0672,0.0638,0.0605,0.0605,0.0538,0.0235,-0.0202,-0.0269,-0.0571,-0.1008,-0.1008,-0.1042,-0.1076,-0.1008,-0.1042,-0.1109,-0.1076,-0.0942,-0.0809,-0.0776,-0.064,-0.0506,-0.0472,-0.0472,-0.0438,-0.0303,-0.027,-0.0236,-0.0067,0.0067,0.0135,0.0202,0.0639,0.1109,0.1176,0.1644,0.2114,0.2213,0.2721,0.3286,0.3474,0.4148,0.4528,0.3869,0.4323,0.4852,0.496,0.5018,0.5018,0.5018,0.5018,0.5018,0.5018,0.5018,0.5018,0.5018,0.5018,0.5018,0.5018,0.5018,0.5018,0.5018,0.5018,0.5018,0.5018,0.5018,0.5018,0.5018,0.5018,0.5018,0.5018,0.5018,0.5018,0.5018,0.5018,0.5018,0.0,0.0,0.0,0.0,0.0,0.0,-0.1661,-0.0596,0.0516,0.0,0.2147,0.0,0.0,0.0,0.0,0.0,0.0,0.0,0.0,0.0,0.0,0.0,0.0,0.0,0.0,0.3792,0.3591,0.3125,0.2855,0.2686,0.2621,0.222,0.2018,0.2018,0.1918,0.1884,0.1884,0.1379,0.1143,0.1143,0.0706,0.0437,0.0336,-0.0101,-0.037,-0.047,-0.047,-0.0605,-0.0809,-0.0403,-0.0571,-0.1076,-0.0909,-0.0843,-0.0776,-0.0607,-0.0539,-0.0472,-0.0371,-0.0337,-0.0303,-0.0135,-0.0067,-0.0067,0.0,0.0404,0.1008,0.1544,0.1411,0.121,0.1779,0.2013,0.2248,0.2848,0.3171,0.3539,0.4149,0.4535,0.4723,0.4611,0.4784,0.4949,0.5012,0.5018,0.5018,0.5018,0.5018,0.5018,0.5018,0.5018,0.5018,0.5018,0.5018,0.5018,0.5018,0.5018,0.5018,0.5018,0.5018,0.5018,0.5018,0.5018,0.5018,0.5018,0.5018,0.5018,0.5018,0.5018,0.5018,0.5018,0.5018,0.5018,0.0,0.0,0.0,-0.489,0.0,0.0,0.0,-0.102,0.0189,0.0756,0.1664,0.2385,0.2385,0.0,0.0,0.0,0.0,0.0,0.0,0.0,0.0,0.0,0.0,0.0,0.0,0.4061,0.3894,0.3527,0.3157,0.2956,0.2956,0.279,0.2622,0.2453,0.2453,0.2354,0.2188,0.1884,0.1749,0.1748,0.148,0.1176,0.0874,0.0605,0.0336,0.0101,0.0302,0.0303,0.0168,0.0604,0.057,0.0235,-0.0034,-0.0101,0.0,0.0101,0.0202,0.0269,-0.0034,0.0101,0.0404,0.0505,0.0774,0.1042,0.1042,0.131,0.1678,0.2013,0.2114,0.2213,0.2547,0.2917,0.3288,0.3656,0.3837,0.4067,0.4512,0.4705,0.4814,0.4874,0.4936,0.5018,0.5018,0.5018,0.5018,0.5018,0.5018,0.5054,0.5129,0.5168,0.5171,0.5287,0.5287,0.5287,0.5287,0.521,0.521,0.5287,0.5093,0.5054,0.5129,0.5168,0.521,0.5287,0.521,0.521,0.5287,0.5287,0.5212,0.5018,0.5018,0.5018,0.0,0.0,0.0,0.0,0.0,-0.3154,0.0,0.0,0.0,-0.0036,0.1113,0.0,0.0,0.0,0.0,0.0,0.0,0.0,0.0,0.0,0.0,0.0,0.0,0.0,0.0,0.4367,0.4197,0.3928,0.3527,0.3326,0.3326,0.3226,0.3092,0.282,0.2787,0.2654,0.2389,0.2389,0.2389,0.2389,0.2389,0.2153,0.1647,0.1546,0.1276,0.0873,0.1209,0.131,0.1276,0.1643,0.1776,0.1643,0.1007,0.0873,0.1008,0.1041,0.1142,0.121,0.0605,0.0807,0.1276,0.1276,0.1644,0.2114,0.228,0.2213,0.2147,0.2449,0.285,0.3215,0.3384,0.3859,0.43,0.43,0.444,0.4566,0.4668,0.4768,0.4898,0.5035,0.5054,0.5054,0.5018,0.5015,0.5054,0.5054,0.5093,0.5171,0.5323,0.5359,0.544,0.5598,0.5598,0.5598,0.5598,0.544,0.544,0.5598,0.5287,0.5171,0.5359,0.5359,0.544,0.5598,0.544,0.544,0.5598,0.5598,0.5443,0.5132,0.5132,0.5146,0.0,0.0,0.0,0.0,-0.4788,0.0,0.0,0.0,-0.0916,-0.017,0.0,0.0,0.0,0.0,0.0,0.0,0.0,0.0,0.0,0.0,0.0,0.0,0.0,0.0,0.0,0.0,0.43,0.4233,0.3928,0.3725,0.3725,0.3393,0.3192,0.3159,0.3159,0.3125,0.3092,0.3092,0.3092,0.3092,0.3092,0.3058,0.2958,0.2485,0.2249,0.2181,0.2248,0.208,0.1844,0.2348,0.2348,0.2012,0.1811,0.1744,0.1777,0.1911,0.198,0.198,0.1879,0.1913,0.198,0.198,0.2047,0.2213,0.2882,0.2614,0.2382,0.3694,0.3656,0.3351,0.3995,0.4233,0.43,0.43,0.4503,0.4671,0.4687,0.4833,0.5038,0.524,0.5282,0.5207,0.5015,0.5129,0.5282,0.5282,0.5401,0.5521,0.5559,0.5559,0.5559,0.5598,0.5598,0.5598,0.5598,0.5598,0.5559,0.5598,0.5559,0.5559,0.5559,0.5559,0.5559,0.5598,0.5559,0.5559,0.5598,0.5598,0.5559,0.5521,0.5521,0.562,0.0,0.0,0.0,0.0,0.0,0.0,-0.3623,0.0,-0.1544,0.0,0.0,0.0,0.0,0.0,0.0,0.0,0.3422,0.0,0.0,0.0,0.0,0.0,0.0,0.0,0.0,0.0,0.0,0.0,0.0,0.4425,0.4097,0.393,0.3761,0.3558,0.3558,0.3426,0.3192,0.3192,0.3192,0.3192,0.3192,0.3192,0.3192,0.2956,0.2855,0.2889,0.3121,0.3119,0.305,0.3458,0.3525,0.3355,0.3322,0.3017,0.2648,0.2714,0.2748,0.2681,0.2248,0.238,0.2815,0.322,0.3389,0.3424,0.3758,0.3625,0.3491,0.4131,0.4064,0.3925,0.4233,0.43,0.4317,0.4384,0.4564,0.4745,0.4888,0.5042,0.5246,0.544,0.5479,0.544,0.5365,0.5404,0.5479,0.5479,0.5559,0.5637,0.575,0.5789,0.5828,0.5986,0.5986,0.5986,0.5986,0.5867,0.5828,0.5986,0.5867,0.5789,0.5789,0.5676,0.5715,0.5986,0.5867,0.5867,0.5986,0.6067,0.6106,0.6106,0.5869,0.5817,-1.0984,0.0,0.0,0.0,0.0,0.0,0.0,0.0,0.0,0.0,0.0,0.0,0.0,0.0,0.0,0.0,0.0,0.3689,0.0,0.0,0.0,0.0,0.0,0.0,0.0,0.0,0.0,0.0,0.5002,0.5002,0.4432,0.4398,0.4277,0.4004,0.4004,0.3823,0.3496,0.3496,0.3496,0.3496,0.3496,0.3496,0.3496,0.3496,0.3496,0.3529,0.3794,0.3928,0.3961,0.4197,0.43,0.43,0.43,0.3961,0.3487,0.3487,0.3487,0.342,0.2885,0.3052,0.3587,0.4131,0.43,0.43,0.43,0.43,0.43,0.43,0.43,0.43,0.43,0.43,0.4327,0.4479,0.4635,0.4832,0.5064,0.5266,0.5437,0.5634,0.5673,0.5712,0.5792,0.5715,0.5673,0.5673,0.5754,0.5831,0.5983,0.6018,0.6099,0.6261,0.63,0.63,0.63,0.6138,0.6099,0.63,0.6136,0.6077,0.6077,0.5924,0.6006,0.6358,0.6119,0.6119,0.6358,0.6463,0.6535,0.6536,0.6252,0.615,0.0,0.0,0.0,-0.8318,0.0,0.0,0.0,0.0,-0.368,0.0,0.0,0.0,0.0,0.0,0.0,0.0,0.0,0.0,0.0,0.0,0.0,0.0,0.0,0.0,0.0,0.0,0.0,0.5594,0.5565,0.5317,0.4712,0.4679,0.4621,0.4469,0.4463,0.4412,0.4267,0.4267,0.4267,0.4267,0.4267,0.4267,0.4267,0.4267,0.4267,0.4267,0.4267,0.43,0.43,0.43,0.43,0.43,0.43,0.43,0.4267,0.4267,0.4267,0.4267,0.4233,0.4233,0.4267,0.43,0.43,0.43,0.43,0.43,0.43,0.43,0.43,0.43,0.43,0.43,0.4327,0.4479,0.4744,0.5016,0.5101,0.5346,0.5637,0.5864,0.5899,0.598,0.6219,0.606,0.5899,0.5899,0.6099,0.63,0.63,0.63,0.63,0.63,0.63,0.63,0.63,0.63,0.63,0.63,0.6429,0.6464,0.6464,0.6464,0.6464,0.6504,0.6371,0.6368,0.6504,0.6511,0.6549,0.6695,0.6692,0.6731,0.0,0.0,-0.9824,-0.916,0.0,0.0,0.0,0.0,0.0,0.0,0.0,0.0,0.0,0.0,0.0,0.0,0.0,0.0,0.0,0.0,0.0,0.0,0.0,0.0,0.0,0.0,0.0,0.5649,0.5512,0.5228,0.0,0.469,0.4668,0.4627,0.4547,0.4487,0.4449,0.4338,0.43,0.43,0.43,0.43,0.43,0.43,0.43,0.43,0.43,0.43,0.43,0.43,0.43,0.43,0.43,0.43,0.43,0.43,0.43,0.43,0.43,0.43,0.43,0.43,0.43,0.43,0.43,0.43,0.43,0.43,0.43,0.43,0.43,0.4357,0.4513,0.4779,0.4938,0.5173,0.553,0.5713,0.5867,0.6099,0.618,0.618,0.63,0.6219,0.618,0.618,0.6257,0.649,0.7026,0.7099,0.7099,0.7099,0.7099,0.6872,0.6338,0.6385,0.6484,0.6546,0.6597,0.6624,0.6624,0.6624,0.6624,0.6624,0.6576,0.6576,0.6624,0.6725,0.68,0.6854,0.6906,0.6927,-1.1654,-1.0818,0.0,-0.9735,-0.8576,0.0,-0.6896,0.0,0.0,0.0,0.0,0.0,0.0,0.0,0.0,0.0,0.0,0.0,0.0,0.4192,0.0,0.0,0.0,0.0,0.0,0.0,0.6488,0.5768,0.5627,0.5337,0.0,0.0,0.4799,0.4755,0.464,0.4558,0.4506,0.4398,0.4341,0.43,0.43,0.43,0.43,0.43,0.43,0.43,0.43,0.43,0.43,0.43,0.43,0.43,0.43,0.43,0.43,0.43,0.43,0.43,0.43,0.43,0.43,0.43,0.43,0.43,0.43,0.43,0.43,0.43,0.43,0.4311,0.4453,0.4554,0.469,0.508,0.5254,0.5463,0.5832,0.598,0.6099,0.6261,0.63,0.63,0.63,0.63,0.63,0.63,0.63,0.649,0.7026,0.733,0.7484,0.7484,0.7537,0.725,0.6493,0.6542,0.6597,0.6695,0.6753,0.678,0.678,0.678,0.678,0.678,0.6729,0.6725,0.678,0.6839,0.6913,0.6964,0.7055,0.7048]},{"header":{"parameterUnit":"m.s-1","parameterCategory":1,"la1":30.6,"la2":29.2853,"lo1":-89.7004,"lo2":-87.6739,"dy":0.0162,"dx":0.0183,"nx":112,"ny":82,"refTime":"2023-07-25T06:00:00:Z","depth":0,"parameterNumber":3,"parameterNumberName":"V-component_of_WINDS"},"data":[0.0,0.0,0.0,0.0,0.0,0.0,0.0,0.0,0.0,0.0,0.0,0.0,0.0,0.0,0.0,0.0,0.0,0.0,0.0,0.0,0.0,0.0,0.0,0.0,0.0,0.0,0.0,0.0,0.0,0.0,0.0,0.0,0.0,0.0,0.0,0.0,0.0,0.0,0.0,0.0,0.0,0.0,0.0,0.0,0.0,0.0,0.0,0.0,0.0,0.0,0.0,0.0,0.0,0.0,0.0,0.0,0.0,0.0,0.0,0.0,0.0,0.0,0.0,0.0,0.0,0.0,0.0,0.0,0.0,0.0,0.0,0.0,0.0,0.0,0.0,0.0,0.0,0.0,0.0,0.0,0.0,0.0,0.0,0.0,0.0,0.0,0.0,0.0,0.0,0.0,1.1552,1.0487,0.9535,0.9018,0.9066,0.8834,0.8339,0.7541,0.0,0.0,0.0,0.0,0.0,0.0,0.0,0.0,0.0,0.0,0.0,0.0,0.0,0.0,0.0,0.0,0.0,0.0,0.0,0.0,0.0,0.0,0.0,0.0,0.0,0.0,0.0,0.0,0.0,0.0,0.0,0.0,0.0,0.0,0.0,0.0,0.0,0.0,0.0,0.0,0.0,0.0,0.0,0.0,0.0,0.0,0.0,0.0,0.0,0.0,0.0,0.0,0.0,0.0,0.0,0.0,0.0,0.0,0.0,0.0,0.0,0.0,0.0,0.0,0.0,0.0,0.0,0.0,0.0,0.0,0.0,0.0,0.0,0.0,0.0,0.0,0.0,0.0,0.0,0.0,0.0,0.0,0.0,0.0,0.0,0.0,0.0,0.0,0.0,0.0,0.0,0.0,0.0,0.0,0.0,0.0,0.0,0.0,0.0,0.0,0.0,0.0,0.0,0.0,1.0418,0.9154,0.812,0.7676,0.7996,0.7533,0.6937,0.6242,0.0,0.0,0.0,0.0,0.0,0.0,0.0,0.0,0.0,0.0,0.0,0.0,0.0,0.0,0.0,0.0,0.0,0.0,0.0,0.0,0.0,0.0,0.0,0.0,0.0,0.0,0.0,0.0,0.0,0.0,0.0,0.0,0.0,0.0,0.0,0.0,0.0,0.0,0.0,0.0,0.0,0.0,0.0,0.0,0.0,0.0,0.0,0.0,0.0,0.0,0.0,0.0,0.0,0.0,0.0,0.0,0.0,0.0,0.0,0.0,0.0,0.0,0.0,0.0,0.0,0.0,0.0,0.0,0.0,0.0,0.0,0.0,0.0,0.0,0.0,0.0,0.0,0.0,0.0,0.0,0.0,0.0,0.0,0.0,0.0,0.0,0.0,0.0,0.0,0.0,0.0,0.0,0.0,0.0,0.0,0.0,0.0,0.0,0.0,0.0,0.0,0.0,0.0,1.0,0.8909,0.8289,0.7506,0.7099,0.7292,0.7053,0.6633,0.5938,0.578,0.0,0.0,0.0,0.0,0.0,0.0,0.0,0.0,0.0,0.0,0.0,0.0,0.0,0.0,0.0,0.0,0.0,0.0,0.0,0.0,0.0,0.0,0.0,0.0,0.0,0.0,0.0,0.0,0.0,0.0,0.0,0.0,0.0,0.0,0.0,0.0,0.0,0.0,0.0,0.0,0.0,0.0,0.0,0.0,0.0,0.0,0.0,0.0,0.0,0.0,0.0,0.0,0.0,0.0,0.0,0.0,0.0,0.0,0.0,0.0,0.0,0.0,0.0,0.0,0.0,0.0,0.0,0.0,0.0,0.0,0.0,0.0,0.0,0.0,0.0,0.0,0.0,0.0,0.0,0.0,0.0,0.0,0.0,0.0,0.0,0.0,0.0,0.0,0.0,0.0,0.0,0.0,0.0,0.0,0.0,0.0,0.0,0.0,0.0,0.0,0.0,0.0,0.8765,0.7859,0.8012,0.7207,0.6745,0.6899,0.6633,0.6247,0.5709,0.5004,0.0,0.0,0.0,0.0,0.0,0.0,0.0,0.0,0.0,0.0,0.0,0.0,0.0,0.0,0.0,0.0,0.0,0.0,0.0,0.0,0.0,0.0,0.0,0.0,0.0,0.0,0.0,0.0,0.0,0.0,0.0,0.0,0.0,0.0,0.0,0.0,0.0,0.0,0.0,0.0,0.0,0.0,0.0,0.0,0.0,0.0,0.0,0.0,0.0,0.0,0.0,0.0,0.0,0.0,0.0,0.0,0.0,0.0,0.0,0.0,0.0,0.0,0.0,0.0,0.0,0.0,0.0,0.0,0.0,0.0,0.0,0.0,0.0,0.0,0.0,0.0,0.0,0.0,0.0,0.0,0.0,0.0,0.0,0.0,0.0,0.0,0.0,0.0,0.0,0.0,0.0,0.0,0.0,0.0,0.0,0.0,0.0,0.0,0.0,0.0,0.0,0.0,0.8699,0.8012,0.8589,0.7053,0.6209,0.6865,0.5825,0.5093,0.5057,0.4659,0.0,0.0,0.0,0.0,0.0,0.0,0.0,0.0,0.0,0.0,0.0,0.0,0.0,0.0,0.0,0.0,0.0,0.0,0.0,0.0,0.0,0.0,0.0,0.0,0.0,0.0,0.0,0.0,0.0,0.0,0.0,0.0,0.0,0.0,0.0,0.0,0.0,0.0,0.0,0.0,0.0,0.0,0.0,0.0,0.0,0.0,0.0,0.0,0.0,0.0,0.0,0.0,0.0,0.0,0.0,0.0,0.0,0.0,0.0,0.0,0.0,0.0,0.0,0.0,0.0,0.0,0.0,0.0,0.0,0.0,0.0,0.0,0.0,0.0,0.0,0.0,0.0,0.0,0.0,0.0,0.0,0.0,0.0,0.0,0.0,0.0,0.0,0.0,0.0,0.0,0.0,0.0,0.0,0.0,0.0,0.0,0.0,0.0,0.0,0.0,0.0,0.0,0.8661,0.7897,0.0,0.7169,0.644,0.6286,0.5825,0.5401,0.5015,0.0,0.0,0.0,0.0,0.0,0.0,0.0,0.0,0.0,0.0,0.0,0.0,0.0,0.0,0.0,0.0,0.0,0.0,0.0,0.0,0.0,0.0,0.0,0.0,0.0,0.0,0.0,0.0,0.0,0.0,0.0,0.0,0.0,0.0,0.0,0.0,0.0,0.0,0.0,0.0,0.0,0.0,0.0,0.0,0.0,0.0,0.0,0.0,0.0,0.0,0.0,0.0,0.0,0.0,0.0,0.0,0.0,0.0,0.0,0.0,0.0,0.0,0.0,0.0,0.0,0.0,0.0,0.0,0.0,0.0,0.0,0.0,0.0,0.0,0.0,0.0,0.0,0.0,0.0,0.0,0.0,0.0,0.0,0.0,0.0,0.0,0.0,0.0,0.0,0.0,0.0,0.0,0.0,0.0,0.0,0.0,0.0,0.0,0.0,0.0,0.0,0.0,1.0507,0.915,0.8241,0.0,0.7553,0.7015,0.6556,0.6131,0.5709,0.5323,0.0,0.0,0.0,0.0,0.0,0.0,0.0,0.0,0.0,0.0,0.0,0.0,0.0,0.0,0.0,0.0,0.0,0.0,0.0,0.0,0.0,0.0,0.0,0.0,0.0,0.0,0.0,0.0,0.0,0.0,0.0,0.0,0.0,0.0,0.0,0.0,0.0,0.0,0.0,0.0,0.0,0.0,0.0,0.0,0.0,0.0,0.0,0.0,0.0,0.0,0.0,0.0,0.0,0.0,0.0,0.0,0.0,0.0,0.0,0.0,0.0,0.0,0.0,0.0,0.0,0.0,0.0,0.0,0.0,0.0,0.0,0.0,0.0,0.0,0.0,0.0,0.0,0.0,0.0,0.0,0.0,0.0,0.0,0.0,0.0,0.0,0.0,0.0,0.0,0.0,0.0,0.0,0.0,0.0,0.0,0.0,0.0,0.0,0.0,0.0,0.0,0.0,1.149,1.0169,0.9165,0.8742,0.8165,0.7821,0.7783,0.663,0.5902,0.0,0.0,0.0,0.0,0.0,0.0,0.0,0.0,0.0,0.0,0.0,0.0,0.0,0.0,0.0,0.0,0.0,0.0,0.0,0.0,0.0,0.0,0.0,0.0,0.0,0.0,0.0,0.0,0.0,0.0,0.0,0.0,0.0,0.0,0.0,0.0,0.0,0.0,0.0,0.0,0.0,0.0,0.0,0.0,0.0,0.0,0.0,0.0,0.0,0.0,0.0,0.0,0.0,0.0,0.0,0.0,0.0,0.0,0.0,0.0,0.0,0.0,0.0,0.0,0.0,0.0,0.0,0.0,0.0,0.0,0.0,0.0,0.0,0.0,0.0,0.0,0.0,0.0,0.0,0.0,0.0,0.0,0.0,0.0,0.0,0.0,0.0,0.0,0.0,0.0,0.0,0.0,0.0,0.0,0.0,0.0,0.0,0.0,0.0,0.0,0.0,0.0,0.0,1.1527,1.0527,0.9604,0.8775,0.8551,0.828,0.7821,0.7476,0.6861,0.5941,0.0,0.0,0.0,0.0,0.0,0.0,0.0,0.0,0.0,0.0,0.0,0.0,0.0,0.0,0.0,0.0,0.0,0.0,0.0,0.0,0.0,0.0,0.0,0.0,0.0,0.0,0.0,0.0,0.0,0.0,0.0,0.0,0.0,0.0,0.0,0.0,0.0,0.0,0.0,0.0,0.0,0.0,0.0,0.0,0.0,0.0,0.0,0.0,0.0,0.0,0.0,0.0,0.0,0.0,0.0,0.0,0.0,0.0,0.0,0.0,0.0,0.0,0.0,0.0,0.0,0.0,0.0,0.0,0.0,0.0,0.0,0.0,0.0,0.0,0.0,0.0,0.0,0.0,0.0,0.0,0.0,0.0,0.0,0.0,0.0,0.0,0.0,0.0,0.0,0.0,0.0,0.0,0.0,0.0,0.0,0.0,0.0,0.0,0.0,0.0,0.0,0.0,1.1896,1.1124,1.0239,0.9046,0.8937,0.8742,0.8203,0.7936,0.7447,0.6581,0.0,0.0,0.0,0.0,0.0,0.0,0.0,0.0,0.0,0.0,0.0,0.0,0.0,0.0,0.0,0.0,0.0,0.0,0.0,0.0,0.0,0.0,0.0,0.0,0.0,0.0,0.0,0.0,0.0,0.0,0.0,0.0,0.0,0.0,0.0,0.0,0.0,0.0,0.0,0.0,0.0,0.0,0.0,0.0,0.0,0.0,0.0,0.0,0.0,0.0,0.0,0.0,0.0,0.0,0.0,0.0,0.0,0.0,0.0,0.0,0.0,0.0,0.0,0.0,0.0,0.0,0.0,0.0,0.0,0.0,0.0,0.0,0.0,0.0,0.0,0.0,0.0,0.0,0.0,0.0,0.0,0.0,0.0,0.0,0.0,0.0,0.0,0.0,0.0,0.0,0.0,0.0,0.0,0.0,0.0,0.0,0.0,0.0,0.0,0.0,0.0,0.0,1.2455,1.1805,1.0925,0.9511,0.9359,0.9203,0.878,0.8241,0.782,0.7525,0.0,0.0,0.0,0.0,0.0,0.0,0.0,0.0,0.0,0.0,0.0,0.0,0.0,0.0,0.0,0.0,0.0,0.0,0.0,0.0,0.0,0.0,0.0,0.0,0.0,0.0,0.0,0.0,0.0,0.0,0.0,0.0,0.0,0.0,0.0,0.0,0.0,0.0,0.0,0.0,0.0,0.0,0.0,0.0,0.0,0.0,0.0,0.0,0.0,0.0,0.0,0.0,0.0,0.0,0.0,0.0,0.0,0.0,0.0,0.0,2.1383,0.0,0.0,0.0,0.0,0.0,0.0,0.0,0.0,0.0,0.0,0.0,0.0,0.0,0.0,0.0,0.0,0.0,0.0,0.0,0.0,0.0,0.0,0.0,0.0,0.0,0.0,0.0,0.0,0.0,0.0,0.0,0.0,0.0,0.0,0.0,0.0,0.0,0.0,0.0,0.0,0.0,1.2492,1.2198,1.1502,0.9954,0.9771,0.962,0.9208,0.9056,0.8543,0.7562,0.7253,0.0,0.0,0.0,0.0,0.0,0.0,0.0,0.0,0.0,0.0,0.0,0.0,0.0,0.0,0.0,0.0,0.0,0.0,0.0,0.0,0.0,0.0,0.0,0.0,0.0,0.0,0.0,0.0,0.0,0.0,0.0,0.0,0.0,0.0,0.0,0.0,0.0,0.0,0.0,0.0,0.0,0.0,0.0,0.0,0.0,0.0,0.0,0.0,0.0,0.0,0.0,0.0,0.0,0.0,0.0,0.0,0.0,0.0,0.0,0.0,2.142,0.0,0.0,0.0,0.0,0.0,0.0,0.0,0.0,0.0,0.0,0.0,0.0,0.0,0.0,0.0,0.0,0.0,0.0,0.0,0.0,0.0,0.0,0.0,0.0,0.0,0.0,0.0,0.0,0.0,0.0,0.0,0.0,0.0,0.0,0.0,0.0,0.0,0.0,0.0,0.0,1.2657,1.2628,1.2143,1.0551,1.0519,1.0331,0.9657,0.9483,0.9101,0.8363,0.7789,0.0,0.0,0.0,0.0,0.0,0.0,0.0,0.0,0.0,0.0,0.0,0.0,0.0,0.0,0.0,0.0,0.0,0.0,0.0,0.0,0.0,0.0,0.0,0.0,0.0,0.0,0.0,0.0,0.0,0.0,0.0,0.0,0.0,0.0,0.0,0.0,0.0,0.0,0.0,0.0,0.0,0.0,0.0,0.0,0.0,0.0,0.0,0.0,0.0,0.0,0.0,0.0,0.0,2.2809,2.2264,2.2078,2.1998,2.1954,2.1954,2.2043,2.175,2.1209,0.0,0.0,0.0,0.0,0.0,0.0,0.0,0.0,0.0,0.0,0.0,0.0,0.0,0.0,0.0,0.0,0.0,0.0,0.0,0.0,0.0,0.0,0.0,0.0,0.0,1.9454,1.9375,0.0,0.0,0.0,0.0,0.0,0.0,0.0,0.0,0.0,0.0,0.0,0.0,1.2818,1.2959,1.2614,1.1316,1.1424,1.123,1.0301,1.0042,0.973,0.9297,0.8372,0.7914,0.0,0.0,0.0,0.0,0.0,0.0,0.0,0.0,0.0,0.0,0.0,0.0,0.0,0.0,0.0,0.0,0.0,0.0,0.0,0.0,0.0,0.0,0.0,0.0,0.0,0.0,0.0,0.0,0.0,0.0,0.0,0.0,2.8242,2.8703,0.0,0.0,0.0,0.0,0.0,0.0,0.0,0.0,0.0,0.0,0.0,0.0,0.0,2.4082,2.5083,2.4125,2.4039,2.4872,2.3996,2.3541,2.3497,2.3081,2.2925,2.2916,2.3333,0.0,2.1559,2.0888,0.0,0.0,0.0,0.0,0.0,0.0,0.0,0.0,0.0,0.0,0.0,0.0,0.0,0.0,0.0,0.0,0.0,0.0,0.0,0.0,0.0,0.0,2.0704,2.0125,2.0018,1.9846,0.0,1.7737,1.6514,1.6413,0.0,0.0,0.0,0.0,0.0,0.0,0.0,0.0,1.2788,1.2758,1.2618,1.2226,1.2253,1.206,1.1595,1.152,1.0953,0.9625,0.9394,0.9053,0.8435,0.8332,0.0,0.0,0.0,0.0,0.0,0.0,0.0,0.0,0.0,0.0,0.0,0.0,0.0,0.0,0.0,0.0,0.0,0.0,0.0,0.0,0.0,0.0,0.0,0.0,0.0,0.0,0.0,0.0,0.0,2.8203,2.8285,2.8597,2.8391,2.8292,0.0,0.0,0.0,0.0,0.0,0.0,0.0,0.0,0.0,2.5704,2.5189,2.561,2.6987,2.561,2.5305,2.6047,2.5179,2.4681,2.45,2.4339,2.4211,2.4211,2.4188,2.3963,2.3514,2.2059,2.1315,2.1047,0.0,0.0,0.0,0.0,0.0,1.9635,1.9575,1.9504,0.0,0.0,0.0,0.0,0.0,0.0,0.0,0.0,0.0,0.0,0.0,0.0,0.0,2.0162,2.0118,2.0031,1.9749,1.8595,1.742,0.0,1.6415,1.6027,1.5675,0.0,0.0,0.0,0.0,1.3671,1.3203,1.301,1.277,1.2337,1.2443,1.2379,1.1846,1.1662,1.1283,1.0652,1.0288,1.0052,0.9913,0.9556,0.9422,0.0,0.0,0.0,0.0,0.0,0.0,0.0,0.0,0.0,0.0,0.0,0.0,0.0,0.0,0.0,0.0,0.0,0.0,0.0,0.0,0.0,0.0,0.0,0.0,0.0,0.0,0.0,0.0,2.8822,2.8459,2.843,2.8167,2.8094,0.0,0.0,0.0,0.0,0.0,0.0,2.5808,2.6038,2.6505,2.7185,2.6505,2.6917,2.8471,2.6958,2.6535,2.7232,2.637,2.5819,2.5641,2.5515,2.5473,2.5431,2.5284,2.5368,2.5483,2.3566,2.2594,2.2272,2.1617,2.13,2.1214,2.1099,2.0869,2.057,2.0507,2.0372,2.0203,2.0346,0.0,2.0788,2.0978,0.0,0.0,0.0,0.0,2.121,2.0336,0.0,2.0118,2.0118,2.0118,2.0042,1.9791,1.9098,1.8283,0.0,1.7,1.6471,1.5997,0.0,0.0,0.0,0.0,1.4044,1.3787,1.3583,1.3258,1.2724,1.2866,1.278,1.2179,1.1963,1.1732,1.1524,1.1094,1.0874,1.0982,1.0534,1.037,1.0616,0.0,0.0,0.0,0.0,0.0,0.0,0.0,0.0,0.0,0.0,0.0,0.0,0.0,0.0,0.0,0.0,0.0,0.0,0.0,0.0,0.0,0.0,0.0,0.0,0.0,0.0,0.0,0.0,0.0,2.8371,2.814,0.0,0.0,0.0,0.0,2.7255,2.7121,2.673,2.5872,2.6629,2.7133,2.7185,2.7133,2.7551,2.8471,2.7592,2.7551,2.8379,2.751,2.7103,2.7092,2.664,2.6434,2.6434,2.6887,2.7092,2.6969,2.5136,2.4378,2.4329,2.3908,2.3494,2.3122,2.2656,2.2493,2.2352,2.1526,2.1475,2.1735,2.1501,2.2066,2.2774,2.2324,2.2263,0.0,0.0,2.0893,2.0818,2.0249,2.0118,2.0118,2.0118,2.0118,1.9867,1.896,1.862,1.8477,0.0,1.7429,1.6587,1.6558,0.0,1.541,1.5391,1.4852,1.4467,1.444,1.4428,1.4282,1.3939,1.3935,1.3698,1.3083,1.3036,1.2655,1.1816,1.1747,1.1514,1.1014,1.0982,1.0951,1.0982,1.0982,0.0,0.0,0.0,0.0,0.0,0.0,0.0,0.0,0.0,0.0,0.0,0.0,0.0,0.0,0.0,0.0,0.0,0.0,0.0,0.0,0.0,0.0,0.0,0.0,0.0,0.0,0.0,0.0,3.0329,2.9639,0.0,2.9352,2.8765,2.8321,2.8251,2.7925,2.7668,2.7528,2.7846,2.8059,2.8059,2.8059,2.8179,2.851,2.8179,2.8179,2.851,2.8179,2.8059,2.8007,2.7846,2.7805,2.7765,2.7696,2.7777,2.7943,2.6697,2.5939,2.5526,2.4923,2.4577,2.4356,2.3577,2.3125,2.2838,2.236,2.2149,2.2046,2.2269,2.2581,2.2836,2.267,2.2691,2.2626,2.2125,2.1981,2.189,2.1502,2.1408,2.1201,2.0472,2.0591,2.0561,1.9452,1.9251,1.9269,1.9269,1.791,1.6751,1.6842,1.6475,1.6171,1.6171,1.5555,1.5089,1.5089,1.4736,1.4435,1.4339,1.4326,1.4226,1.4022,1.3992,1.387,1.3571,1.3139,1.2803,1.262,1.2236,1.2027,1.2027,1.2027,1.2027,0.0,0.0,0.0,0.0,0.0,0.0,0.0,0.0,0.0,0.0,0.0,0.0,0.0,0.0,0.0,0.0,0.0,0.0,0.0,0.0,0.0,0.0,0.0,0.0,0.0,0.0,3.1102,3.1307,3.0619,3.0262,3.0433,2.9781,2.9353,2.9303,2.8917,2.8648,2.8593,2.8382,2.8246,2.8246,2.8065,2.7942,2.7942,2.8162,2.8246,2.8246,2.8426,2.851,2.8498,2.833,2.8246,2.8194,2.7751,2.7707,2.7906,2.7275,2.6815,2.6387,2.5747,2.548,2.5406,2.4643,2.4181,2.3888,2.3544,2.2945,2.2412,2.2858,2.2989,2.2981,2.2911,2.3057,2.3171,2.2785,2.2676,2.2542,2.1982,2.183,2.1607,2.0621,2.0724,2.073,1.9762,1.9632,1.9657,1.9489,1.8361,1.7473,1.7573,1.7251,1.6955,1.687,1.6275,1.5797,1.5739,1.5391,1.504,1.4824,1.4795,1.4706,1.4529,1.4499,1.4499,1.4499,1.4082,1.3842,1.3842,1.3246,1.2889,1.2889,1.2942,1.3086,1.339,0.0,0.0,0.0,0.0,0.0,0.0,0.0,0.0,0.0,0.0,0.0,0.0,0.0,0.0,0.0,0.0,0.0,0.0,0.0,0.0,0.0,0.0,0.0,3.3282,3.2762,3.2095,3.1219,3.1029,3.0931,3.0802,3.1238,3.118,3.0393,3.0152,2.9679,2.8846,2.8137,2.7743,2.7693,2.7162,2.6935,2.6961,2.7452,2.7717,2.7743,2.8273,2.8514,2.8478,2.7972,2.7731,2.7707,2.7189,2.6961,2.6961,2.6949,2.6949,2.6911,2.6496,2.6306,2.6256,2.5785,2.557,2.5478,2.5038,2.3968,2.2913,2.3291,2.3374,2.3287,2.3177,2.3444,2.3667,2.3019,2.2831,2.2579,2.1602,2.1356,2.117,2.056,2.0428,2.0313,1.9801,1.972,1.9591,1.9124,1.8874,1.8717,1.8715,1.8151,1.7644,1.744,1.695,0.0,1.6446,1.6418,1.6151,1.5487,1.5429,1.5167,1.458,1.4521,1.4521,1.4521,1.4531,1.451,1.451,1.3885,1.3541,1.3541,1.3666,1.4127,1.4904,0.0,0.0,0.0,0.0,0.0,0.0,0.0,0.0,0.0,0.0,0.0,0.0,0.0,0.0,0.0,0.0,0.0,0.0,0.0,0.0,0.0,0.0,3.4582,3.4119,3.3581,3.3269,3.3443,3.294,3.2562,3.2527,3.2145,3.1783,3.1429,3.1355,3.0675,2.9152,2.8888,2.8437,2.7704,2.7195,2.7285,2.8047,2.8238,2.8325,2.8285,2.885,2.89,2.8499,2.8348,2.8273,2.826,2.8109,2.8047,2.8009,2.7704,2.7553,2.7483,2.6953,2.6735,2.6649,2.5845,2.5136,2.4558,2.4365,2.4001,2.3601,2.3668,2.3663,2.3668,2.3636,2.3765,2.3916,2.3796,2.3443,2.303,2.2763,2.2393,2.1863,2.0839,2.092,2.0956,1.998,2.0115,2.0271,1.9683,1.9556,1.9359,1.8982,1.831,1.7827,1.7775,1.7168,0.0,1.6683,1.6683,1.6451,1.5823,1.577,1.5568,1.5063,1.5019,1.5046,1.5154,1.5016,1.494,1.494,1.4665,1.4531,1.4531,1.4551,1.4669,0.0,0.0,0.0,0.0,0.0,0.0,0.0,0.0,0.0,0.0,0.0,0.0,0.0,0.0,0.0,0.0,0.0,0.0,0.0,0.0,0.0,0.0,3.5578,3.5593,3.527,3.4464,3.4008,3.437,3.4011,3.3593,3.3337,3.2931,3.25,3.2028,3.1676,3.1011,2.991,2.9359,2.8779,2.8173,2.7494,2.744,2.8083,2.821,2.8252,2.8209,2.8771,2.8837,2.8492,2.8311,2.8209,0.0,2.7988,2.7886,2.786,2.7588,2.746,0.0,0.0,0.0,0.0,0.0,2.5298,2.4717,2.4609,2.4238,2.3877,2.401,2.4012,2.4004,2.3943,2.3933,2.3951,2.394,2.3496,2.2985,2.2718,2.2405,2.1957,2.1017,2.1017,2.1042,2.0322,2.0254,2.0229,1.9865,0.0,0.0,1.9008,1.8437,1.7944,1.7919,1.731,1.6851,0.0,1.6802,1.6678,1.6316,1.6266,1.6177,1.5895,1.5869,0.0,0.0,0.0,1.5384,1.5114,1.5242,0.0,0.0,0.0,1.5584,0.0,0.0,0.0,0.0,1.6668,1.7328,0.0,0.0,0.0,0.0,0.0,0.0,0.0,0.0,0.0,0.0,0.0,0.0,0.0,0.0,0.0,0.0,3.6646,3.6492,3.6415,3.5367,3.4601,3.4501,3.4409,3.4147,3.3561,3.3431,3.3095,3.2385,3.1615,3.1039,3.0759,0.0,0.0,0.0,0.0,2.7604,2.7749,2.7889,2.7941,2.7959,2.8396,2.8592,2.8537,2.8109,2.7924,2.7933,2.7382,2.7175,2.7175,2.7175,2.7136,2.7085,2.695,2.6917,2.6853,2.6209,2.5762,0.0,0.0,0.0,0.0,2.4341,2.4432,2.4337,2.4168,2.4027,2.3891,2.3672,2.3204,2.2591,2.2045,2.1859,2.166,2.1057,2.0885,2.0856,2.0731,2.027,1.9848,1.9782,1.9334,1.8916,1.8783,1.84,1.8066,1.7936,1.7411,0.0,1.6846,1.6846,1.6822,1.6749,0.0,0.0,1.6676,1.6652,1.6676,1.6676,1.6339,1.5924,1.5451,1.5899,1.6231,1.6433,1.6433,1.6765,1.749,1.749,1.749,1.7473,1.7124,1.7575,0.0,0.0,0.0,0.0,0.0,0.0,0.0,0.0,0.0,0.0,0.0,0.0,0.0,0.0,0.0,3.6858,3.713,3.713,3.6508,3.6166,3.577,3.5136,3.4579,3.403,3.3536,3.3006,3.2637,3.2461,3.2313,3.1671,3.0372,3.0057,0.0,2.8806,2.8216,2.8325,2.918,2.9011,2.8899,2.8847,0.0,0.0,2.8964,2.8608,2.8587,2.8833,2.8465,2.8281,2.8281,2.8281,2.7999,2.7488,2.6589,2.6261,2.6197,2.5614,2.5333,2.5243,2.5135,2.5001,2.4861,2.4885,2.4872,2.4769,2.4269,2.4067,0.0,2.3313,2.2709,2.2187,2.1964,2.154,2.113,2.0999,2.0903,2.0797,2.0797,2.0488,2.0071,1.9649,1.937,1.8968,1.8158,1.8047,1.8089,1.8067,1.7543,1.7149,1.7127,1.7114,1.6941,1.6446,1.6402,1.6234,1.5862,1.584,1.5874,1.5999,1.6266,1.6749,1.7484,1.7624,1.7906,1.8417,1.8429,1.8521,1.8667,1.8667,1.8667,1.8691,1.8977,1.9229,0.0,0.0,0.0,0.0,0.0,0.0,0.0,0.0,0.0,0.0,0.0,3.8051,0.0,0.0,3.8367,3.808,3.8153,3.791,3.717,3.6819,3.6241,3.5175,3.4748,3.4173,3.3283,3.2895,3.2611,3.2363,3.2254,3.1926,3.1236,3.1103,3.083,3.0375,2.9938,2.9952,3.0494,3.0204,3.0018,3.0011,3.014,3.0125,3.0011,2.9827,2.9657,2.948,2.9252,2.8961,2.8649,2.8573,2.836,2.8036,2.7182,2.6687,2.6385,2.5761,2.5551,2.5489,2.5175,2.5063,2.5039,2.5015,2.4815,2.4475,2.4177,2.3662,2.312,2.2758,2.2408,2.2127,2.2078,2.199,2.1838,2.1453,2.1309,2.1136,2.0739,2.0274,1.987,1.96,1.9248,1.8838,1.8333,1.8322,1.8234,1.7728,1.7382,1.7199,1.7199,1.7199,1.7081,1.6774,1.6752,1.6667,1.642,1.6386,1.6333,1.6151,1.6587,1.6986,1.7279,1.7529,1.7924,1.854,1.8552,1.871,1.8987,1.8987,1.8987,1.9011,1.982,2.0342,0.0,0.0,0.0,0.0,0.0,0.0,0.0,3.8153,3.849,3.849,3.8925,3.9299,3.9299,3.9299,3.9249,3.9116,3.8869,3.84,3.7609,3.7107,3.6349,3.5029,3.4744,3.4212,3.2999,3.2787,3.2537,3.2169,3.1981,3.1979,3.2139,3.1981,3.1908,3.1908,3.165,3.1492,3.1492,3.1174,3.0984,3.0984,3.0925,3.0852,3.0792,3.0734,3.038,2.9776,2.9635,2.9229,2.8704,2.8505,2.8406,2.8333,2.7723,2.7243,2.6789,2.6251,2.6043,2.5974,2.5493,2.5314,2.53,2.519,2.4709,2.4175,2.4091,2.3267,2.2388,2.2413,2.2383,2.2333,2.2333,2.2509,2.2548,2.1888,2.1614,2.1318,2.0653,2.0082,1.97,1.97,1.9296,1.893,1.8855,1.8836,1.853,1.7625,1.7482,1.7496,1.7475,1.7475,1.7475,1.7455,1.7455,1.7455,1.7455,1.7455,1.7289,1.69,1.7247,1.7286,1.6938,1.7321,1.7763,1.8251,1.8411,1.8781,1.9327,1.9464,1.9592,1.9708,2.0616,2.1207,3.6454,3.7055,3.7565,3.8234,3.8278,3.8351,0.0,3.9148,3.9175,3.9175,3.9245,3.9299,3.9299,3.9299,3.91,3.8444,3.8302,3.7906,3.6865,3.6663,3.6172,3.4877,3.4182,3.3583,3.2967,3.2362,3.1985,3.1944,3.191,3.191,3.1928,3.191,3.1908,3.1908,3.1879,3.1836,3.1836,3.1521,3.1333,3.1333,3.1042,3.0746,3.044,3.0156,2.9831,2.9446,2.9129,2.8946,2.8829,2.8284,2.8064,2.7991,2.7394,2.7122,2.7024,2.6729,2.6594,2.6594,2.6522,2.652,2.6407,2.5819,2.5178,2.4525,2.3985,2.3324,2.2764,2.2809,2.2834,2.2822,2.2822,2.2424,2.199,2.1896,2.1301,2.0703,2.061,2.0299,2.0048,2.0048,1.9932,1.9744,1.9387,1.9332,1.9151,1.8612,1.8535,1.8511,1.8442,1.8433,1.8414,1.8364,1.8344,1.8344,1.8344,1.8344,1.8324,1.8285,1.8321,1.8378,1.8449,1.862,1.8746,1.8804,1.9583,2.0143,2.0512,2.1186,2.1694,2.2114,2.2245,2.2031,3.8621,3.8854,3.8892,3.9152,3.8838,3.8692,3.9577,3.9403,3.9193,3.9568,3.9816,3.9876,3.9694,3.9816,3.9699,0.0,3.8823,3.8377,3.7011,3.6683,3.623,3.5281,3.4775,3.4159,3.3228,3.287,3.2617,3.2312,3.2563,3.259,3.2312,3.2563,3.2699,3.2699,3.2699,3.2699,3.2699,3.2574,3.252,3.2504,3.1951,3.164,3.1484,3.0936,3.0304,2.9715,2.9159,2.889,2.8814,2.8566,2.8484,2.8454,2.8189,2.8091,2.7993,2.7221,2.6923,2.6923,2.6834,2.6549,2.6101,2.535,2.4443,2.3598,2.3299,2.2809,2.2418,2.2773,2.3091,2.3223,2.2832,2.2712,2.251,2.1744,2.1277,2.0907,2.0512,2.0314,2.022,2.022,2.02,2.0131,1.9942,1.9925,1.9871,1.9645,1.9099,1.8703,1.866,1.8664,1.8664,1.8621,1.8621,1.8621,1.8621,1.8621,1.8621,1.8621,1.8621,1.8638,1.8693,1.8747,1.896,1.9305,1.9666,2.01,2.0594,2.1291,2.1722,2.1924,2.2318,2.2557,4.0123,4.0068,3.9815,3.9815,3.9223,3.8817,3.9555,3.9433,3.9299,3.9722,4.0199,4.0417,4.0096,4.0237,4.0161,3.9419,3.9146,3.8549,3.7217,3.6667,3.6175,3.5571,3.5329,3.4844,3.3901,3.3652,3.3419,3.3055,3.3182,3.3224,3.3018,3.3356,3.3565,3.3704,3.3704,3.3704,3.3704,3.3704,3.3704,3.3704,3.3024,3.2592,3.2351,3.1286,3.0498,2.9919,2.9381,2.9182,2.9259,2.9137,2.9068,2.9068,2.8944,2.8873,2.8779,2.7963,2.7625,2.7535,2.723,2.6688,2.597,2.4997,2.3821,2.283,2.2986,2.2621,2.2343,2.3125,2.3616,2.3722,2.3056,2.2989,2.2809,2.1602,2.1185,2.0905,2.0412,2.0304,2.0304,2.0304,2.0304,2.0304,2.0304,2.0304,2.0304,2.0304,1.9627,1.9136,1.9099,1.9062,1.9062,1.9062,1.9062,1.9062,1.9062,1.9062,1.9062,1.9062,1.9062,1.9006,1.8893,1.8912,1.907,1.9358,1.9584,1.9959,2.0493,2.1203,2.1634,2.1888,2.2577,2.3159,4.0123,4.0097,4.0097,4.0097,3.9395,3.8707,3.8725,3.9319,3.9834,3.9635,4.0238,4.0707,4.0424,4.0375,4.0161,3.9416,3.8692,3.7974,3.7194,3.642,3.582,3.5526,3.5504,3.5374,0.0,3.4503,3.4185,3.4161,3.3626,3.3529,3.4025,3.4075,3.4284,3.4738,3.4745,3.4745,3.4745,3.4745,3.4745,3.4745,3.4011,3.3284,3.253,3.069,2.9836,2.9804,2.9788,3.0032,3.0414,2.9968,2.9788,2.9705,2.9282,2.9091,2.9091,2.9052,2.8905,2.8654,2.7914,2.7245,2.6445,2.5062,2.3709,2.273,2.3386,2.3125,2.2861,2.418,2.4569,2.4413,2.3748,2.3098,2.2412,2.1605,2.0901,2.0404,2.032,2.0304,2.0304,2.0304,2.0304,2.0304,2.0304,2.0304,2.0304,2.0304,2.027,2.0202,2.0065,1.9993,1.9955,1.9955,1.9955,1.9955,1.9955,1.9955,1.9955,1.9955,1.9955,1.978,1.9387,1.9442,1.924,1.8736,1.9555,2.0148,2.0499,2.1242,2.1998,2.2784,2.35,2.4042,4.0842,4.0339,3.961,4.032,3.9364,3.8426,3.9076,3.9048,3.9153,4.0018,4.0629,4.1024,4.1064,4.1243,4.1111,4.0244,3.9891,3.9456,3.8668,3.7868,3.7342,3.7241,3.679,0.0,0.0,0.0,0.0,3.4797,3.4568,3.4512,3.4697,3.4617,3.4642,3.4809,3.4793,3.4793,3.4793,3.4793,3.4793,3.4793,3.3568,3.2343,3.1189,3.0545,3.0267,3.0267,3.0267,3.0351,3.0497,3.033,3.0267,3.0246,3.0097,3.0032,3.0032,3.0032,2.9658,2.9011,2.8119,2.6776,2.5269,2.4255,2.3058,2.211,2.2745,2.2814,2.2945,2.424,2.4282,2.3768,2.3101,2.243,2.1742,2.0975,2.0631,2.046,2.0441,2.0426,2.0426,2.0426,2.0426,2.0426,2.0426,2.0629,2.0746,2.0712,2.0477,2.0287,2.0252,2.0218,2.02,2.02,2.02,2.02,2.02,2.02,2.02,2.02,2.02,2.0148,2.001,2.0028,1.9942,1.9767,2.0047,2.024,2.0365,2.1291,2.1887,2.2237,2.3653,2.4416,4.0802,4.0347,3.9619,4.0309,3.939,3.8491,3.9157,3.9139,3.9229,4.0047,4.0899,4.1513,4.154,4.1896,4.1994,4.1454,4.1067,4.0716,4.0382,3.9658,3.9121,3.8974,3.8286,3.7707,0.0,0.0,0.0,3.5481,3.5186,3.5134,3.5295,3.5197,3.5214,3.5397,3.5351,3.5328,3.5328,3.5328,3.5194,3.4925,3.3698,3.2446,3.1128,3.084,3.0707,3.0707,3.0707,3.0804,3.0945,3.0767,3.0707,3.0703,3.0559,3.0497,3.0497,3.0497,2.9682,2.8451,2.7872,2.6426,2.47,2.3652,2.2601,2.1855,2.2489,2.2802,2.3195,2.4395,2.4335,2.3733,2.3074,2.2394,2.1629,2.0767,2.0577,2.0561,2.051,2.0596,2.068,2.068,2.0795,2.0861,2.0861,2.1055,2.1166,2.1119,2.0893,2.0663,2.0494,2.0579,2.0663,2.0663,2.0663,2.0663,2.0663,2.0663,2.0663,2.0663,2.0663,2.0663,2.0679,2.0679,2.0696,2.0729,2.0729,2.0729,2.0729,2.1371,2.1777,2.1973,2.3636,2.4512,4.0148,4.0092,4.0043,4.0095,3.9501,3.891,3.891,3.9486,3.9979,3.9753,4.1022,4.209,4.1865,4.2322,4.2771,4.2868,4.2101,4.1654,4.2223,4.1649,4.1024,0.0,0.0,0.0,0.0,0.0,0.0,3.6199,0.0,3.5397,3.5912,3.5825,3.5972,3.6502,3.6381,3.6322,3.6322,3.6301,3.5921,3.518,3.4458,3.3482,3.2317,3.1498,3.1142,3.1142,3.1142,3.1391,3.1781,3.1315,3.1142,3.1103,3.0723,3.058,3.0543,3.0476,2.9095,2.7249,2.7133,2.6119,2.4662,2.3257,2.2347,2.193,2.2614,2.3096,2.3609,2.4641,2.4664,2.4202,2.3594,2.2864,2.202,2.1001,2.076,2.0711,2.0595,2.0828,2.1039,2.1039,2.1307,2.1524,2.1522,2.1524,2.1507,2.1539,2.1539,2.137,2.0909,2.1103,2.1308,2.1308,2.1308,2.1308,2.1308,2.1308,2.1307,2.1307,2.1307,2.1339,2.1402,2.1402,2.1448,2.1508,2.1508,2.1508,2.1508,2.1524,2.1688,2.2046,2.3536,2.4411,4.0647,4.0037,3.9398,4.0145,3.9614,3.891,3.891,3.9058,3.9361,3.9906,4.0809,4.1646,4.2034,4.2717,4.3159,4.2941,4.2686,0.0,4.3436,4.2618,0.0,4.2611,4.1703,4.0481,3.9147,3.8831,0.0,0.0,3.6533,3.643,3.6571,3.6506,3.6502,3.6643,3.6523,3.6444,3.6444,3.636,3.5921,3.518,3.4458,3.3623,3.2715,3.1977,3.1617,3.1617,3.1617,3.169,3.18,3.1671,3.1617,3.1615,3.1504,3.1466,3.1329,3.0166,2.9057,2.7844,2.6156,2.4602,2.329,2.2927,2.2347,2.1984,2.2949,2.3318,2.3505,2.4017,2.3931,2.3491,2.2782,2.2263,2.1861,2.1589,2.1509,2.1509,2.1479,2.154,2.1601,2.1601,2.1676,2.1796,2.1979,2.1776,2.1658,2.1909,2.1895,2.1733,2.137,2.1401,2.1432,2.137,2.1416,2.1432,2.1386,2.1416,2.1447,2.1447,2.1447,2.1462,2.1478,2.1478,2.1493,2.1508,2.1508,2.1508,2.1508,2.1748,2.1938,2.2115,2.3886,2.478,4.0541,4.0266,3.9986,4.0538,4.0195,3.9728,3.9728,3.9462,3.943,4.0235,4.1035,4.1839,4.2548,4.3235,4.3656,4.3572,4.342,4.3686,4.4674,4.4228,4.4012,4.4643,4.3841,4.2602,4.1016,4.0249,3.9321,0.0,3.7321,3.695,3.711,3.705,3.7069,3.7225,3.7094,3.7038,3.7038,3.6943,3.6712,3.6292,3.5201,3.4178,3.3262,3.2091,3.1515,3.1391,0.0,3.158,3.1929,3.1874,3.1856,3.1838,3.1818,3.1611,3.1216,2.9955,2.8609,2.7191,2.5572,2.402,2.2752,2.2752,2.2495,2.2363,2.3294,2.3702,2.3902,2.428,2.4132,2.3687,2.2977,2.237,2.194,2.1825,2.1812,2.1812,2.1812,2.1899,2.2013,2.2158,2.2186,2.2243,2.2392,2.2223,2.2155,2.2337,2.234,2.2243,2.2056,2.1986,2.1928,2.1884,2.1913,2.1928,2.1884,2.1928,2.1943,2.1943,2.1943,2.1957,2.1969,2.1984,2.1998,2.2027,2.2027,2.2027,2.2027,2.2212,2.234,2.2398,2.4139,2.4962,4.0376,4.0813,4.1301,4.1245,4.1139,4.1061,4.1011,4.0466,4.0165,4.0829,4.161,4.2399,4.3163,4.3778,4.4199,4.4368,4.4162,4.4434,4.5803,4.5882,4.6047,4.6593,4.6023,4.4933,4.3211,4.1687,4.04,3.9385,3.7969,3.7262,3.756,3.7523,3.7614,3.7876,3.7807,3.7718,3.7701,3.7701,3.7647,3.7521,3.6083,3.4822,3.3737,3.2079,3.1159,3.089,0.0,0.0,3.1951,3.1914,3.193,3.1912,3.1735,3.132,3.0681,2.9609,2.7948,2.6088,2.5184,2.3947,2.2725,2.2712,2.2699,2.284,2.3643,2.4045,2.434,2.4731,2.456,2.4107,2.3422,2.2773,2.2209,2.1972,2.1913,2.1913,2.1913,2.2099,2.2347,2.2642,2.2699,2.2699,2.2699,2.2699,2.2699,2.2699,2.2699,2.2699,2.2699,2.2592,2.2511,2.2515,2.2528,2.2511,2.2515,2.2528,2.2528,2.2528,2.2528,2.2538,2.2605,2.2605,2.2632,2.2699,2.2699,2.2699,2.2699,2.2699,2.2699,2.2733,2.4323,2.5046,4.152,4.1989,4.2508,4.2489,4.2479,4.2399,4.2178,4.2006,4.1891,4.1812,4.2487,4.3125,4.3257,4.3924,4.4426,4.4397,4.4354,4.4842,4.6342,4.6164,4.6415,4.7885,4.7552,4.6307,4.4025,4.2955,0.0,0.0,0.0,3.793,3.7982,3.7965,3.7947,3.7893,3.7876,3.7824,3.7701,3.7701,3.736,3.6696,3.5813,3.4806,3.3668,3.2094,3.1208,3.0907,0.0,0.0,3.115,3.1812,3.2073,3.1985,3.1324,3.0994,3.0629,2.8596,2.7187,2.6089,2.4732,2.3658,2.2855,2.2738,2.2699,2.2903,2.3969,2.3919,2.3558,2.3977,2.3787,2.3332,2.2598,2.2508,2.2602,2.2548,2.2535,2.2535,2.2535,2.2575,2.2628,2.2685,2.2699,2.2699,2.2699,2.2699,2.2699,2.2699,2.2699,2.2699,2.2699,2.2672,2.2646,2.2579,2.2619,2.2646,2.2596,2.2632,2.2659,2.2659,2.2659,2.2672,2.2672,2.2685,2.2685,2.2699,2.2699,2.2699,2.2699,2.2699,2.2699,2.2733,2.4505,2.5343,4.2589,4.3064,4.3574,4.3534,4.3482,4.3388,4.3248,4.2794,4.2484,4.2768,4.3081,4.3426,4.3857,4.4252,4.4501,4.4473,4.4411,4.4795,4.5952,4.6238,4.678,4.804,4.7904,4.7077,4.5495,4.3788,4.2156,4.0609,0.0,3.8551,3.8378,3.852,3.8597,3.853,3.8514,3.848,3.8431,3.8431,3.8013,3.7226,3.6454,3.525,3.3701,3.2531,3.1565,3.0924,3.13,0.0,3.1327,3.2086,3.2073,3.1533,3.1081,3.0437,2.9616,2.8068,2.6777,2.5621,2.4491,2.3576,2.2893,2.2829,2.2803,2.2985,2.3955,2.3999,2.375,2.3947,2.3867,2.3536,2.276,2.2677,2.2803,2.2803,2.2803,2.2803,2.2803,2.2803,2.2803,2.2803,2.2803,2.2803,2.2803,2.2803,2.279,2.2764,2.2881,2.2952,2.2913,2.3025,2.2993,2.2685,2.2803,2.2906,2.285,2.2998,2.3061,2.3061,2.3061,2.3061,2.3061,2.3061,2.3061,2.3061,2.3098,2.311,2.311,2.3146,2.3382,2.3813,2.5088,2.5898,4.3643,4.4131,4.4648,4.46,4.4512,4.4399,4.4354,4.3642,4.3149,4.3744,4.3699,4.3745,4.4369,4.4501,4.4501,4.4501,4.4473,4.4692,4.5517,4.6117,4.6766,4.7644,4.7639,4.7236,4.6451,4.4212,0.0,4.1675,0.0,0.0,3.8733,3.8956,3.9101,3.9101,3.9101,3.9101,3.9101,3.8934,3.8432,3.7634,3.6829,3.5512,3.3768,3.2913,3.1931,3.0948,3.1717,0.0,0.0,3.2186,3.1977,3.1031,3.0738,2.9932,2.8809,2.794,2.6755,2.546,2.4654,2.3872,2.3166,2.3009,2.2914,2.3045,2.3863,2.3967,2.388,2.4054,2.3967,2.3689,2.3063,2.2906,2.2906,2.2906,2.2906,2.2906,2.2906,2.2906,2.2906,2.2906,2.2906,2.2906,2.2906,2.294,2.2965,2.2914,2.3126,2.3277,2.32,2.3392,2.3352,2.2947,2.3084,2.3206,2.3206,2.3359,2.3437,2.3437,2.3437,2.3437,2.3437,2.3437,2.3437,2.3437,2.3482,2.3522,2.3522,2.3577,2.4006,2.482,2.5618,2.6465,4.4665,4.5243,4.5834,4.5838,4.5826,4.5751,4.5522,4.5198,4.4883,4.4728,4.4535,4.4407,4.4482,4.4501,4.4501,4.4501,0.0,4.4763,4.557,4.57,4.5997,4.6821,4.6856,4.6492,4.5671,4.3968,4.2563,0.0,0.0,0.0,3.9059,3.9087,3.9101,3.9101,3.9101,3.9101,3.9101,3.8377,3.7596,3.6811,3.5993,3.4981,3.3784,3.2952,3.1984,3.0948,3.1813,0.0,0.0,3.152,3.1672,3.0836,3.0093,2.9578,2.9155,2.835,2.7384,2.637,2.555,2.4791,2.405,2.3323,2.3008,2.3045,2.3863,2.3585,2.3167,2.388,2.3567,2.2993,2.2924,2.2906,2.2906,2.2906,2.2906,2.2906,2.2906,2.2906,2.2906,2.2906,2.2906,2.2906,2.2906,2.3114,2.3265,2.3253,2.3427,2.3555,2.3555,2.3577,2.3566,2.3522,2.3551,2.3544,2.3544,2.3566,2.3577,2.3577,2.3577,2.3577,2.3577,2.3577,2.3577,2.3577,2.3588,2.3588,2.3588,2.3606,2.4006,2.482,2.5877,2.6779,4.5511,4.5769,4.5997,4.6005,4.6008,4.5955,4.5808,4.5477,4.5166,4.5055,4.4745,4.4501,4.4501,4.4501,4.4501,0.0,0.0,0.0,4.4914,4.5368,4.5786,4.609,4.6087,4.5911,0.0,0.0,4.1656,0.0,0.0,0.0,3.917,3.9129,3.9101,3.9101,3.9101,3.8859,3.8377,3.8061,3.7257,3.5974,3.5659,3.4983,3.403,3.371,3.3038,3.217,3.2532,0.0,0.0,3.1344,3.1038,3.0152,2.9822,2.9336,2.8788,2.8463,2.7818,2.702,2.653,2.5554,2.4454,2.3985,2.3562,2.3288,2.345,2.3265,2.3085,2.3417,2.3277,2.3033,2.3033,2.3033,2.3033,2.3033,2.3033,2.3033,2.3033,2.3151,2.3271,2.3271,2.3371,2.3445,2.3445,2.3535,2.3591,2.3558,2.3742,2.3878,2.386,2.3971,2.4106,2.4144,2.3959,2.3837,2.3837,2.3949,2.4019,2.4019,2.4019,2.4019,2.4019,2.4019,2.4019,2.4019,2.4049,2.4086,2.4086,2.4612,2.5284,2.6084,2.6995,2.7885,4.6002,4.6002,4.6002,4.6002,4.6005,4.5972,4.5848,4.5519,4.5197,4.5088,4.477,4.4501,4.4501,4.4501,4.4501,0.0,0.0,4.4501,4.4501,4.5003,4.5359,4.5359,0.0,4.5273,0.0,4.3194,0.0,0.0,0.0,0.0,0.0,3.896,3.8803,3.8803,3.8789,3.8385,3.7567,3.7312,3.6625,3.551,3.525,3.4804,3.4197,3.4197,3.3751,3.3001,0.0,0.0,0.0,3.1084,3.0509,2.9606,2.9606,2.9223,2.8646,2.8646,2.8264,2.7658,2.7256,2.6397,2.5392,2.4747,2.429,2.3892,2.3465,2.3283,2.3199,2.3114,2.3168,2.3211,2.3211,2.3271,2.3301,2.3301,2.3301,2.3301,2.3301,2.3463,2.3587,2.3587,2.37,2.3806,2.3806,2.3858,2.386,2.3829,2.4047,2.4191,2.4154,2.4312,2.4447,2.4491,2.4294,2.4143,2.4143,2.4284,2.4367,2.4367,2.4367,2.4367,2.4367,2.4367,2.4367,2.4367,2.4634,2.4782,2.4782,2.5643,2.647,2.7297,2.7874,2.859,4.6002,4.6002,4.6002,4.6002,4.6002,4.5933,4.5665,4.5451,4.5197,4.4884,4.4629,4.4501,4.4501,4.4501,4.4501,4.4501,4.4501,0.0,4.4501,4.4501,4.4501,4.4501,4.4501,4.4501,4.4501,4.2926,0.0,0.0,0.0,0.0,0.0,3.8575,3.8109,3.8109,3.8044,3.7627,3.6826,3.5963,3.5529,3.5491,3.4637,3.4197,3.4197,3.4197,3.3751,0.0,0.0,0.0,0.0,3.0604,3.014,2.9396,2.9396,2.924,2.8991,2.8991,2.8773,2.8377,2.7647,2.7387,2.7127,2.5586,2.5081,2.4935,2.4133,2.3707,2.3447,2.3163,2.3295,2.3504,2.3504,2.3642,2.3795,2.3795,2.3795,2.3795,2.3795,2.3795,2.3795,2.3795,2.3795,2.3806,2.3806,2.3969,2.4107,2.4107,2.433,2.45,2.45,2.45,2.45,2.45,2.45,2.4491,2.4491,2.45,2.45,2.45,2.45,2.45,2.45,2.45,2.45,2.45,2.528,2.5689,2.5689,2.6479,2.7344,2.8202,2.8202,2.8678,4.6002,4.6002,4.5986,4.5943,4.5925,4.5854,4.553,4.5314,4.5088,4.4849,4.4629,4.4501,4.4501,4.4501,4.4501,4.4501,4.4501,0.0,0.0,4.4501,4.4501,4.4501,4.4501,4.405,0.0,0.0,0.0,0.0,0.0,0.0,0.0,3.8365,3.8191,3.809,3.7555,3.6852,3.6061,3.5776,3.5335,3.4738,3.4458,3.4328,3.4328,3.4328,0.0,0.0,0.0,0.0,0.0,3.0319,2.9695,2.9461,2.9421,2.9341,2.9278,2.9265,2.9214,2.9056,2.8643,2.818,2.7699,2.7024,2.653,2.6011,2.5079,2.4314,2.375,2.3613,2.3667,2.3771,2.3771,2.3808,2.3873,2.3873,2.3873,2.4018,2.4632,2.4864,2.5119,2.568,2.5928,2.6061,2.6061,2.6108,2.6144,2.6144,2.6218,2.6281,2.6281,2.6281,2.6048,2.5461,2.5378,2.5155,2.4545,2.45,2.449,2.4497,2.4505,2.4513,2.4566,2.4566,2.4827,2.5378,2.5639,2.6058,2.6664,2.7466,2.8287,2.9099,2.9099,2.9289,4.5863,4.5953,4.5949,4.5847,4.5819,4.5734,4.5361,4.5203,4.503,4.4814,4.4621,4.4515,4.4584,4.4524,4.4501,4.4501,4.4501,4.4501,0.0,0.0,0.0,4.4501,0.0,0.0,0.0,0.0,0.0,0.0,0.0,0.0,0.0,3.7785,3.7423,3.7343,3.6786,3.6084,3.5261,3.5219,3.4927,3.4386,3.4386,3.4386,3.4386,3.4386,0.0,0.0,0.0,0.0,0.0,3.0183,2.9502,2.9492,2.9453,2.9443,2.9433,2.9431,2.9441,2.9404,2.9241,2.8915,2.8483,2.8044,2.7429,2.672,2.6105,2.4969,2.3881,2.385,2.3939,2.4047,2.4047,2.4107,2.4247,2.4542,2.4615,2.4864,2.5732,2.6014,2.6256,2.6757,2.6991,2.711,2.711,2.711,2.711,2.711,2.711,2.711,2.711,2.711,2.6895,2.6344,2.6288,2.6065,2.5528,2.4905,2.4541,2.4547,2.4827,2.5003,2.5047,2.5373,2.5784,2.6288,2.6587,2.7017,2.7549,2.8381,2.9054,2.954,2.9617,2.9708,0.0,4.5822,4.584,4.5723,4.5692,4.5571,4.5182,4.5105,0.0,4.477,4.4605,4.4551,4.4685,4.4592,4.4501,4.4501,4.4501,4.4501,4.4501,4.4501,0.0,0.0,4.4501,0.0,0.0,0.0,0.0,0.0,0.0,0.0,0.0,3.7001,3.6083,3.6026,3.5846,3.5346,3.4525,3.4461,3.442,3.4397,3.4397,3.4397,3.4397,3.4397,0.0,0.0,0.0,0.0,0.0,3.0193,2.9512,2.9512,2.9502,2.9502,2.9502,2.9502,2.9502,2.9502,2.9502,2.9502,2.94,2.8718,2.7893,2.7182,2.7182,2.5755,2.4127,2.4127,2.431,2.4506,2.4506,2.4648,2.497,2.5728,2.5896,2.6139,2.7016,2.7185,2.7212,2.7268,2.7287,2.7287,2.7287,2.7287,2.7287,2.7287,2.7287,2.7287,2.7287,2.7287,2.7268,2.7212,2.7185,2.7175,2.7119,2.568,2.4775,2.4775,2.5485,2.5887,2.5896,2.668,2.7137,2.7185,2.7988,2.84,2.84,2.9214,2.9607,2.9607,2.9815,2.9905,4.4559,0.0,4.5723,4.5584,4.5549,4.5466,0.0,4.5106,4.5042,4.4883,4.4751,4.4659,4.468,4.4592,4.4501,4.4501,4.4501,4.4501,4.4501,4.4501,0.0,4.4501,4.4501,4.3844,0.0,0.0,0.0,0.0,0.0,0.0,0.0,3.6796,3.603,3.5363,3.5292,3.505,3.4572,3.4701,3.472,3.455,3.455,3.455,3.455,3.455,0.0,0.0,0.0,0.0,3.1952,3.033,2.9655,2.9645,2.9598,2.9588,2.956,2.9531,2.954,2.9588,2.9588,2.9617,2.9617,2.9439,2.8801,2.8098,2.8098,2.7288,2.6358,2.6358,2.6394,2.6448,2.6448,2.6519,2.6635,2.6833,2.687,2.7095,2.792,2.8089,2.8295,2.8961,2.9092,2.9092,2.9092,2.9092,2.9092,2.9092,2.9092,2.9092,2.9092,2.9092,2.8829,2.8164,2.8089,2.7845,2.7235,2.6762,2.652,2.6509,2.6696,2.6817,2.687,2.7066,2.7479,2.8089,2.8942,2.9373,2.9373,2.9589,2.9683,2.9673,2.9832,2.995,4.3905,4.4832,4.5584,4.5438,4.5419,4.5341,4.5159,4.5103,4.5091,4.5022,4.4902,4.4808,4.487,4.477,4.4685,4.4685,4.4685,4.4659,0.0,0.0,4.4592,4.4592,4.424,0.0,0.0,0.0,0.0,0.0,0.0,0.0,0.0,3.6318,3.5722,3.525,3.5336,3.5205,3.4832,3.4954,3.4908,3.474,3.474,3.4689,3.4612,3.4612,3.4395,0.0,0.0,0.0,3.1447,3.0208,2.9701,2.9701,2.9655,2.9655,2.9636,2.9617,2.9598,2.9655,2.9655,2.9683,2.9701,2.9701,2.9382,2.8998,2.8998,2.8679,2.8137,2.7369,2.7153,2.7151,2.7151,2.7169,2.7298,2.7665,2.774,2.7984,2.881,2.8998,2.9138,2.9608,2.9701,2.9701,2.9701,2.9701,2.9701,2.9701,2.9701,2.9701,2.9701,2.9701,2.9514,2.9054,2.8998,2.8819,2.8387,2.8314,2.7959,2.7189,2.7489,2.7723,2.774,2.8124,2.8556,2.8979,2.9457,2.9701,2.9701,2.9754,2.9787,2.9796,3.003,3.0164,4.3335,4.4508,4.5285,4.53,4.5307,4.5275,4.5159,4.5136,4.5136,4.5136,4.5014,4.4974,4.5091,4.4979,4.4895,4.4895,0.0,0.0,4.4751,4.4738,4.4738,4.4738,4.3964,0.0,0.0,0.0,0.0,0.0,0.0,0.0,0.0,3.5874,3.5451,3.5457,3.562,3.5547,3.5185,3.5162,3.5064,3.4936,3.4908,3.4745,3.4448,3.4435,3.3963,0.0,0.0,0.0,3.0837,3.0021,2.9701,2.9701,2.9701,2.9701,2.9701,2.9701,2.9701,2.9701,2.9701,2.9701,2.9701,2.9701,2.9701,2.9701,2.9701,2.9701,2.9401,2.7974,2.758,2.758,2.758,2.758,2.7749,2.8435,2.8604,2.8791,2.9551,2.9729,2.971,2.9729,2.9729,2.9729,2.9729,2.9719,2.971,2.9729,2.9719,2.971,2.9729,2.9729,2.9729,2.9729,2.9729,2.9729,2.9729,2.9747,2.9162,2.7732,2.8253,2.863,2.862,2.9352,2.9765,2.9765,2.9764,2.9773,2.9782,2.9891,2.995,2.9947,3.0271,3.0402,4.2546,4.3507,4.441,4.5116,4.5307,4.5297,4.5256,4.5275,4.5275,4.5275,4.5159,4.508,4.5103,4.4979,4.4895,4.4895,0.0,4.4883,0.0,0.0,4.4858,4.4858,0.0,0.0,0.0,0.0,0.0,0.0,0.0,0.0,0.0,3.6028,3.5654,3.5657,3.567,3.5668,3.5614,3.5444,3.5265,3.5064,3.4944,3.45,3.3753,3.3633,3.3118,0.0,0.0,3.1006,3.0837,3.0021,2.9701,2.9701,2.9701,2.9701,2.9701,2.9701,2.9701,2.9701,2.9701,2.9701,2.9701,2.9701,2.9701,2.9701,2.9701,2.9701,2.9645,2.9382,2.9307,2.9307,2.9307,2.9307,2.9345,2.9476,2.9495,2.956,2.9745,2.9782,2.9808,2.9857,2.9874,2.9874,2.9874,2.9815,2.9808,2.9866,2.9815,2.9808,2.9866,2.9874,2.9874,2.9874,2.9874,2.9874,2.9874,2.998,2.9928,2.9661,2.9609,2.9609,2.9666,2.9904,3.0042,3.0042,3.008,3.0129,3.0129,3.0137,3.0151,3.0157,3.0317,3.0402,4.2311,4.3021,4.3673,4.4972,4.5307,4.5307,4.5307,4.5307,4.5307,4.5307,4.5246,4.5203,4.5203,4.5159,4.5114,4.5114,0.0,4.5091,4.5033,4.5022,4.4832,0.0,0.0,0.0,0.0,0.0,0.0,0.0,0.0,0.0,0.0,0.0,3.5698,3.5708,3.5698,3.5494,3.5068,3.4958,3.4758,3.4453,3.4453,3.3875,3.2789,3.2836,3.2344,3.1419,0.0,3.0649,3.0227,2.9852,2.9701,2.9701,2.9701,2.9701,2.9701,2.9701,2.9719,2.9746,2.9746,2.9773,2.9816,2.9816,2.9816,2.9816,2.9816,2.9816,2.9816,2.9816,2.9765,2.972,2.9747,2.9746,2.9755,2.9799,2.9816,2.9825,2.9849,2.9857,2.9866,2.9888,2.9897,2.9897,2.9897,2.9864,2.9866,2.9907,2.9864,2.9866,2.9907,2.9897,2.9921,2.9992,3.0019,3.0023,3.0052,3.0128,3.0155,3.0155,3.0078,3.0022,3.0059,3.0128,3.0155,3.0155,3.0183,3.019,3.019,3.0263,3.0309,3.0309,3.0477,3.057,4.2216,4.2774,4.3195,4.4876,4.5307,4.5307,4.5307,4.5307,4.5307,4.5307,4.5307,4.5307,4.5307,4.5307,0.0,4.5307,4.5307,4.5256,4.5159,0.0,0.0,0.0,0.0,0.0,0.0,0.0,0.0,0.0,0.0,0.0,0.0,0.0,3.5611,3.5427,3.5418,3.5025,3.4211,3.4211,3.4033,3.3733,3.3788,3.318,3.1994,3.2103,3.1624,3.0696,3.0696,3.033,2.9747,2.9729,2.9719,2.9719,2.9711,2.972,2.9719,2.9719,2.9774,2.9815,2.9815,2.9857,2.9897,2.9897,2.9897,2.9897,2.9897,2.9897,2.9897,2.9897,2.9842,2.9765,2.9816,2.9815,2.9832,2.9899,2.9897,2.9905,2.994,2.9948,2.9956,2.9972,2.998,2.998,2.998,2.9964,2.9964,2.9992,2.9984,2.9973,3.0019,3.0026,3.0063,3.0168,3.0181,3.0202,3.0284,3.0296,3.0302,3.0325,3.0265,3.026,3.026,3.0284,3.0296,3.0296,3.0314,3.0325,3.0325,3.0424,3.0476,3.0476,3.0638,3.0694,4.208,4.2704,4.3195,4.4876,4.5307,4.5307,4.5307,4.5307,4.5307,4.5307,4.5307,4.5307,4.5307,4.5307,4.5307,4.5307,4.5307,4.5297,0.0,0.0,0.0,0.0,0.0,0.0,0.0,0.0,0.0,0.0,0.0,0.0,0.0,0.0,0.0,3.462,3.4593,3.4172,3.33,3.3281,3.3272,3.3253,3.307,3.2506,3.1635,3.1527,3.0963,3.0065,3.0065,2.9999,2.9891,2.9825,2.979,2.979,2.9719,2.9738,2.979,2.979,2.9832,2.9888,2.9888,2.9907,2.9897,2.9897,2.9897,2.9897,2.9897,2.9897,2.9897,2.9897,2.9888,2.9899,2.988,2.9888,2.9888,2.9897,2.9897,2.994,3.0072,3.0087,3.011,3.0176,3.0171,3.0171,3.0171,3.0132,3.0128,3.026,3.0209,3.0228,3.0353,3.0356,3.0375,3.0381,3.0381,3.0437,3.0554,3.0563,3.0608,3.0668,3.0496,3.0392,3.0392,3.0506,3.0563,3.0563,3.0622,3.0653,3.0653,3.068,3.0683,3.0683,3.069,3.0694,4.181,4.2622,4.3195,4.4876,4.5307,4.5307,4.5307,4.5307,4.5307,4.5307,4.5307,4.5307,0.0,0.0,4.5307,4.5307,4.5307,4.5105,0.0,0.0,0.0,0.0,0.0,0.0,0.0,0.0,0.0,0.0,0.0,0.0,0.0,0.0,0.0,3.4509,3.4011,3.3343,3.247,3.245,3.2179,3.1658,3.2086,3.1725,3.0733,3.0764,3.0542,3.0117,3.0117,3.0092,3.0015,3.0003,2.994,2.9874,2.9924,2.9964,2.9996,3.0034,3.0052,3.0097,3.0097,3.0082,3.0098,3.0098,3.0098,3.0098,3.0098,3.0098,3.0098,3.0098,3.0098,3.0083,3.0038,3.0022,3.0038,3.0083,3.0098,3.0106,3.0142,3.0169,3.0176,3.0204,3.0211,3.0213,3.026,3.0247,3.0254,3.0356,3.0337,3.0342,3.0397,3.0402,3.0423,3.0516,3.0561,3.0607,3.0651,3.0655,3.0691,3.077,3.0656,3.0586,3.0586,3.0645,3.0661,3.0661,3.0683,3.0694,3.0694,3.0694,3.0704,3.0704,3.0704,3.0713,4.1778,4.2663,4.3195,4.4876,4.5307,4.5307,4.5307,4.5307,4.5307,4.5307,4.5307,4.5307,4.5307,0.0,0.0,0.0,4.4895,0.0,0.0,0.0,0.0,0.0,0.0,0.0,0.0,0.0,0.0,0.0,0.0,0.0,0.0,0.0,0.0,0.0,3.3177,3.2477,3.1603,3.1584,3.1292,3.0713,3.1266,3.1105,3.0353,3.0423,3.0402,3.0283,3.0283,3.0253,3.0189,3.0169,3.0099,3.0004,3.0104,3.0135,3.0169,3.0203,3.0228,3.0222,3.0222,3.0221,3.0211,3.0211,3.0211,3.0211,3.0211,3.0211,3.0211,3.0211,3.0213,3.0207,3.0185,3.0142,3.0147,3.0197,3.0211,3.0211,3.0211,3.0219,3.0221,3.0221,3.0247,3.0273,3.0321,3.0333,3.0353,3.0453,3.0467,3.0482,3.0518,3.0522,3.0559,3.0645,3.0704,3.0733,3.0734,3.0734,3.0742,3.0799,3.0767,3.0724,3.0724,3.0724,3.0724,3.0724,3.0724,3.0724,3.0724,3.0724,3.0736,3.0734,3.0734,3.0764,4.1968,4.2794,4.3195,4.4876,4.5307,4.5307,4.5307,4.5307,4.5307,4.5307,4.5307,4.5307,4.5307,4.5307,0.0,4.414,0.0,0.0,0.0,0.0,0.0,0.0,0.0,0.0,0.0,0.0,0.0,0.0,0.0,0.0,0.0,0.0,0.0,0.0,3.1988,3.1564,3.0713,3.0694,3.0694,3.0694,3.0694,3.0703,3.07,3.0637,3.0561,3.0501,3.0501,3.0453,3.0402,3.0329,3.0259,3.019,3.0196,3.024,3.0306,3.0306,3.0302,3.0291,3.031,3.026,3.0211,3.0211,3.0211,3.0192,3.0192,3.0192,3.0192,3.0192,3.0254,3.0291,3.0291,3.0254,3.0192,3.0192,3.0192,3.0192,3.0192,3.026,3.031,3.031,3.0367,3.0407,3.0407,3.0407,3.0453,3.0587,3.0603,3.0655,3.0772,3.0801,3.0801,3.0801,3.0801,3.0801,3.0801,3.0801,3.0801,3.0801,3.0801,3.0801,3.0801,3.0801,3.0801,3.0801,3.0801,3.0801,3.0801,3.0801,3.0801,3.0801,3.0801,3.0801,4.0856,4.2186,4.3195,4.4876,4.5307,4.5307,4.5307,4.5307,4.5307,4.5307,4.5307,4.5307,4.5307,4.5338,0.0,0.0,0.0,0.0,0.0,0.0,0.0,0.0,0.0,0.0,0.0,0.0,0.0,0.0,0.0,0.0,0.0,0.0,0.0,0.0,3.1409,3.0962,3.0694,3.0694,3.0694,3.0694,3.0694,3.071,3.0703,3.0676,3.0668,3.0638,3.0638,3.0606,3.052,3.0413,3.037,3.0359,3.0437,3.0492,3.0516,3.0565,3.0548,3.0506,3.0406,3.0327,3.0254,3.0213,3.0221,3.026,3.026,3.034,3.0406,3.0406,3.0433,3.0443,3.0443,3.0438,3.0395,3.0356,3.0297,3.0279,3.0333,3.04,3.0442,3.0442,3.0458,3.0492,3.0541,3.0545,3.059,3.0722,3.0731,3.0759,3.0799,3.0801,3.0801,3.0801,3.0801,3.0808,3.0806,3.0808,3.0794,3.0806,3.0807,3.0796,3.0801,3.0801,3.0801,3.0801,3.0801,3.0801,3.0801,3.0801,3.0791,3.0808,3.0808,3.0796,4.0948,4.2283,4.3195,4.4876,4.5307,4.5307,4.5307,4.5307,4.5307,0.0,4.5317,4.5338,4.5338,4.536,0.0,0.0,0.0,0.0,0.0,0.0,0.0,0.0,0.0,0.0,0.0,0.0,0.0,0.0,0.0,0.0,0.0,0.0,0.0,0.0,3.0962,3.0694,3.0694,3.0694,3.0694,3.0694,3.0694,3.0694,3.0694,3.0694,3.0694,3.0694,3.0694,3.0672,3.0637,3.0557,3.0519,3.0524,3.0606,3.0637,3.0645,3.068,3.0657,3.0591,3.0511,3.0422,3.0333,3.0298,3.0315,3.0378,3.0378,3.0433,3.0494,3.0494,3.0513,3.0536,3.0536,3.0537,3.0516,3.0458,3.0416,3.0395,3.0423,3.0481,3.0532,3.0532,3.0575,3.0633,3.0664,3.0689,3.07,3.0793,3.0804,3.081,3.081,3.081,3.081,3.081,3.081,3.0794,3.0807,3.0807,3.0792,3.08,3.08,3.0792,3.079,3.081,3.081,3.081,3.081,3.081,3.081,3.081,3.0796,3.0807,3.0807,3.0794,4.1732,4.2737,4.3195,4.4876,4.5307,4.5307,4.5307,4.5307,4.5307,4.5307,0.0,4.5408,4.5389,4.5352,0.0,0.0,0.0,0.0,0.0,0.0,0.0,0.0,0.0,0.0,0.0,0.0,0.0,0.0,0.0,0.0,0.0,0.0,0.0,0.0,3.0697,3.0697,3.0694,3.0694,3.0694,0.0,3.0694,3.0694,3.0694,3.0694,3.0694,3.0694,3.0694,3.0694,3.0694,3.0694,3.0694,3.0694,3.0694,3.0694,3.0694,3.0694,3.0661,3.0613,3.0608,3.0525,3.0409,3.0404,3.0458,3.0515,3.0515,3.052,3.0521,3.0521,3.0561,3.0619,3.0619,3.0619,3.0594,3.0539,3.0524,3.0519,3.0524,3.0571,3.0616,3.0616,3.0725,3.0808,3.0808,3.0808,3.0795,3.0798,3.0792,3.08,3.08,3.08,3.08,3.08,3.08,3.08,3.08,3.08,3.08,3.08,3.08,3.08,3.08,3.08,3.08,3.08,3.08,3.08,3.08,3.08,3.08,3.08,3.08,3.0839,4.116,4.2278,4.3195,4.4876,4.5307,4.5307,4.5307,4.5338,4.5388,4.5388,4.5398,4.5399,4.54,0.0,0.0,0.0,0.0,0.0,0.0,0.0,0.0,0.0,0.0,0.0,0.0,0.0,0.0,0.0,0.0,0.0,0.0,0.0,0.0,3.0713,3.0691,3.0701,3.0694,3.0694,3.0694,0.0,3.0694,3.0694,3.0694,3.0694,3.0694,3.0694,3.0694,3.0694,3.0694,3.0694,3.0694,3.0694,3.0694,3.0694,3.0694,3.0694,3.0685,3.0669,3.0626,3.0583,3.0556,3.0505,3.051,3.0574,3.0574,3.0647,3.0733,3.0733,3.0749,3.0765,3.0765,3.0755,3.0741,3.0745,3.0661,3.0603,3.0719,3.0757,3.0763,3.0763,3.078,3.0791,3.0791,3.0791,3.0792,3.0796,3.0799,3.08,3.08,3.08,3.08,3.08,3.08,3.08,3.08,3.08,3.08,3.08,3.08,3.08,3.08,3.08,3.08,3.08,3.08,3.08,3.08,3.08,3.08,3.08,3.08,3.1172,4.091,4.2086,4.3195,4.4876,4.5307,4.5307,4.5338,4.5084,4.4833,4.4916,4.4925,4.4914,4.4921,0.0,0.0,0.0,0.0,0.0,0.0,0.0,0.0,0.0,0.0,0.0,0.0,0.0,0.0,0.0,0.0,0.0,0.0,3.1055,3.0769,3.0703,3.0703,3.0707,3.0694,3.0694,3.0694,3.0694,3.0711,3.0698,3.0698,3.0701,3.0694,3.0694,3.0694,3.0694,3.0694,3.0694,3.0694,3.0694,3.0694,3.0704,3.0698,3.0698,3.0716,3.0739,3.0713,3.0697,3.0689,3.0646,3.0667,3.0697,3.0697,3.0745,3.0791,3.0791,3.0795,3.08,3.08,3.0795,3.0791,3.0791,3.0747,3.0701,3.0778,3.0798,3.0791,3.0791,3.0796,3.08,3.08,3.08,3.08,3.08,3.08,3.0958,3.1372,3.1428,3.1583,3.1996,3.2041,3.2044,3.2044,3.2044,3.1868,3.1457,3.1801,3.1854,3.1446,3.1815,3.1659,3.082,3.08,3.08,3.08,3.1211,3.1426,3.1426,3.1858,3.2276,4.0857,4.2142,4.333,4.4602,4.513,4.5352,4.5256,4.4731,4.4265,4.4216,4.4211,4.4211,0.0,0.0,0.0,0.0,0.0,0.0,0.0,0.0,0.0,0.0,0.0,0.0,0.0,0.0,0.0,0.0,0.0,0.0,3.0795,3.0793,3.0765,3.072,3.0717,3.0722,3.0711,3.0711,3.0711,3.0711,3.0716,3.0728,3.0728,3.0724,3.0704,3.0694,3.0694,3.0697,3.0701,3.0701,3.0704,3.0711,3.0711,3.0727,3.0728,3.0728,3.0747,3.0808,3.0808,3.0791,3.0793,3.0793,3.0808,3.0803,3.0803,3.0792,3.08,3.08,3.08,3.08,3.08,3.08,3.08,3.08,3.0813,3.0804,3.0803,3.0792,3.0801,3.0822,3.0823,3.0823,3.0823,3.0823,3.0806,3.0809,3.0927,3.1282,3.199,3.2203,3.2574,3.3318,3.3379,3.3378,3.3378,3.3379,3.3086,3.2344,3.2981,3.3089,3.2348,3.3011,3.2719,3.126,3.1239,3.1239,3.1221,3.1966,3.2319,3.2319,3.3043,3.3437,4.1028,4.2632,4.3893,4.3441,4.449,4.5445,4.4703,4.4544,4.4348,0.0,4.3443,0.0,0.0,0.0,0.0,0.0,0.0,0.0,0.0,0.0,0.0,0.0,0.0,0.0,0.0,0.0,0.0,0.0,0.0,0.0,3.0795,3.0795,3.0807,3.079,3.079,3.0798,3.0791,3.0791,3.0791,3.0791,3.0794,3.0796,3.0796,3.0791,3.0745,3.0694,3.0694,3.0711,3.0697,3.0697,3.0731,3.0791,3.0791,3.0791,3.0796,3.0796,3.0793,3.0794,3.0794,3.0804,3.0795,3.0795,3.0796,3.0798,3.0798,3.0799,3.08,3.08,3.08,3.08,3.08,3.08,3.08,3.08,3.0843,3.0864,3.0819,3.0799,3.0822,3.0886,3.089,3.0893,3.0893,3.0893,3.0877,3.082,3.1443,3.1945,3.2002,3.2679,3.3184,3.3301,3.3317,3.3315,3.3315,3.3305,3.3257,3.3159,3.33,3.3354,3.3237,3.3335,3.3261,3.2966,3.2967,3.2967,3.2965,3.3083,3.3145,3.3145,3.3262,3.367,4.111,4.1742,4.2112,4.2341,4.2978,4.3479,4.3131,4.3158,4.3019,4.2177,4.1653,0.0,0.0,0.0,0.0,0.0,0.0,0.0,0.0,0.0,0.0,0.0,0.0,0.0,0.0,0.0,0.0,0.0,0.0,3.08,3.08,3.08,3.0795,3.0799,3.0798,3.0808,3.0801,3.0801,3.0808,3.0804,3.0804,3.0804,3.0804,3.0804,3.0784,3.0767,3.0767,3.0753,3.0764,3.0764,3.0772,3.0801,3.0801,3.0791,3.0804,3.0804,3.0796,3.0792,3.0792,3.0796,3.08,3.08,3.08,3.08,3.08,3.08,3.08,3.08,3.08,3.08,3.08,3.0823,3.0864,3.0864,3.0889,3.0892,3.085,3.0869,3.0853,3.0859,3.0818,3.0793,3.0793,3.1182,3.1511,3.1482,3.2214,3.2914,3.3345,3.3771,3.4206,3.4647,3.4733,3.4759,3.4759,3.4791,3.4606,3.4117,3.455,3.4589,3.4081,3.4506,3.473,3.4693,3.3777,3.331,3.331,3.3743,3.3969,3.3988,3.4469,3.4864,4.072,4.0858,4.0935,4.1487,4.1801,4.195,4.1811,0.0,4.1364,0.0,0.0,0.0,0.0,0.0,0.0,0.0,0.0,0.0,0.0,0.0,0.0,0.0,0.0,0.0,0.0,0.0,0.0,0.0,0.0,3.08,3.08,3.08,3.0796,3.0804,3.0804,3.0798,3.08,3.08,3.0808,3.0804,3.0804,3.0804,3.0804,3.0804,3.0796,3.08,3.0806,3.0804,3.0791,3.0791,3.0795,3.08,3.08,3.079,3.0804,3.0804,3.0792,3.08,3.08,3.08,3.08,3.08,3.08,3.08,3.08,3.08,3.08,3.08,3.08,3.0801,3.0822,3.085,3.0875,3.0875,3.0859,3.0859,3.0878,3.0897,3.0878,3.0817,3.0768,3.0817,3.1032,3.1615,3.2118,3.2324,3.3084,3.3846,3.4447,3.4739,3.5112,3.5711,3.583,3.5853,3.5853,3.5898,3.5644,3.4997,3.5528,3.5589,3.4923,3.5484,3.579,3.5766,3.4558,3.3916,3.3916,3.4511,3.4798,3.4817,3.5473,3.5751,3.9454,4.0581,4.1755,4.1033,4.1578,4.2078,0.0,0.0,3.9699,3.8881,0.0,0.0,0.0,0.0,0.0,0.0,0.0,0.0,0.0,0.0,0.0,0.0,0.0,0.0,0.0,0.0,0.0,0.0,0.0,3.08,3.08,3.08,3.08,3.08,3.08,3.0799,3.0799,3.0799,3.0799,3.08,3.08,3.08,3.08,3.08,3.0799,3.0796,3.0802,3.0795,3.0798,3.0798,3.0806,3.0799,3.0799,3.0799,3.08,3.08,3.08,3.08,3.08,3.08,3.08,3.08,3.08,3.08,3.08,3.08,3.08,3.08,3.08,3.0803,3.0886,3.0858,3.0819,3.0818,3.0761,3.0723,3.0794,3.0859,3.0879,3.0814,3.0857,3.1152,3.1973,3.2168,3.2459,3.3207,3.4001,3.4557,3.4599,3.5217,3.5652,3.5706,3.5708,3.5711,3.5711,3.5706,3.5694,3.5655,3.5746,3.578,3.5738,3.5775,3.5765,3.5706,3.5613,3.5574,3.5589,3.5621,3.5648,3.5648,3.5687,3.5706,3.9994,4.0184,4.0355,4.0139,4.0409,4.0627,4.0331,4.0459,4.0249,3.8828,0.0,0.0,0.0,0.0,0.0,0.0,0.0,0.0,0.0,0.0,0.0,0.0,0.0,0.0,0.0,0.0,0.0,0.0,0.0,0.0,3.0801,3.08,3.08,3.08,3.08,3.08,3.08,3.08,3.08,3.08,3.08,3.08,3.08,3.08,3.08,3.08,3.0809,3.0807,3.0794,3.0794,3.0796,3.08,3.08,3.08,3.08,3.08,3.08,3.08,3.08,3.08,3.08,3.08,3.08,3.08,3.08,3.0823,3.0865,3.0865,3.0868,3.0871,3.0892,3.0877,3.0859,3.0859,3.0856,3.0812,3.0809,3.0782,3.0778,3.0804,3.1247,3.1682,3.1963,3.293,3.3768,3.3996,3.4759,3.5307,3.5308,3.5549,3.5696,3.5694,3.5689,3.5708,3.5708,3.5733,3.5756,3.5756,3.5755,3.5744,3.5744,3.5732,3.5722,3.5703,3.5703,3.5703,3.5703,3.5706,3.5704,3.5704,3.5704,3.5704,4.0353,4.0198,4.0009,4.0112,3.9955,3.9775,3.9795,4.0017,3.9902,3.8745,0.0,0.0,0.0,0.0,0.0,0.0,0.0,0.0,0.0,0.0,0.0,0.0,0.0,0.0,0.0,0.0,0.0,0.0,0.0,0.0,3.0796,3.0795,3.0794,3.0809,3.0804,3.08,3.08,3.08,3.08,3.08,3.08,3.08,3.08,3.08,3.08,3.08,3.08,3.08,3.08,3.08,3.08,3.08,3.08,3.08,3.08,3.08,3.08,3.08,3.08,3.08,3.0801,3.0823,3.0823,3.0824,3.0826,3.0868,3.089,3.089,3.0892,3.0894,3.0895,3.0879,3.0858,3.0834,3.0826,3.0799,3.077,3.0758,3.0831,3.1134,3.1625,3.216,3.2675,3.3757,3.4618,3.4837,3.536,3.5722,3.5721,3.572,3.5696,3.5708,3.5694,3.5693,3.5693,3.5749,3.5764,3.5764,3.5728,3.5693,3.5693,3.5707,3.5704,3.5704,3.5704,3.5704,3.5704,3.5704,3.5704,3.5704,3.5704,3.5704,0.0,0.0,0.0,4.0964,4.0344,3.9728,3.9824,0.0,3.8574,3.8548,0.0,0.0,0.0,0.0,0.0,0.0,0.0,0.0,0.0,0.0,0.0,0.0,0.0,0.0,0.0,0.0,0.0,0.0,0.0,3.0797,3.0797,3.0797,3.08,3.08,3.0791,3.0803,3.0803,3.0801,3.0801,3.0801,3.0801,3.08,3.08,3.08,3.08,3.08,3.08,3.08,3.08,3.08,3.08,3.08,3.08,3.08,3.08,3.08,3.08,3.08,3.08,3.0801,3.0803,3.0887,3.0908,3.0909,3.0893,3.0894,3.0894,3.0894,3.0894,3.0895,3.0897,3.0857,3.0795,3.0722,3.065,3.062,3.0699,3.0778,3.1063,3.1841,3.2046,3.2591,3.4225,3.4575,3.4906,3.5688,3.5805,3.5805,3.5805,3.5744,3.5693,3.5693,3.5708,3.5704,3.5704,3.5704,3.5704,3.5704,3.5704,3.5704,3.5704,3.5704,3.5704,3.5704,3.5704,3.5704,3.5704,3.5704,3.5704,3.5704,3.5704,3.5704,4.018,0.0,0.0,0.0,0.0,0.0,0.0,0.0,0.0,3.9579,0.0,0.0,0.0,0.0,0.0,0.0,0.0,0.0,0.0,0.0,0.0,0.0,0.0,0.0,0.0,0.0,0.0,0.0,3.0801,3.0807,3.0797,3.0797,3.0798,3.08,3.08,3.0801,3.0801,3.0799,3.0796,3.0796,3.0807,3.08,3.08,3.08,3.08,3.08,3.08,3.08,3.08,3.08,3.08,3.08,3.08,3.08,3.08,3.08,3.08,3.0801,3.0864,3.0866,3.0887,3.0892,3.0893,3.0893,3.0894,3.0895,3.0896,3.0896,3.0897,3.0898,3.0898,3.0898,3.0856,3.0796,3.0762,3.0732,3.0713,3.1173,3.1685,3.1943,3.2981,3.3957,3.4431,3.5006,3.5477,3.5688,3.5737,3.5737,3.5737,3.5713,3.5693,3.5693,3.5706,3.5704,3.5704,3.5704,3.5704,3.5704,3.5704,3.5704,3.5704,3.5704,3.5704,3.5704,3.5704,3.5704,3.5704,3.5704,3.5704,3.5704,3.5704,3.5704,3.8588,3.8208,3.7989,0.0,0.0,0.0,3.9812,3.9961,3.987,0.0,0.0,0.0,0.0,0.0,0.0,0.0,0.0,0.0,0.0,0.0,0.0,0.0,0.0,0.0,0.0,0.0,0.0,3.0759,3.0763,3.0774,3.0795,3.0805,3.0809,3.0809,3.0795,3.0797,3.0797,3.08,3.0801,3.0801,3.08,3.0796,3.0791,3.0791,3.0808,3.08,3.08,3.08,3.08,3.08,3.08,3.08,3.08,3.0822,3.0844,3.0844,3.0846,3.0848,3.089,3.0891,3.0892,3.0895,3.0896,3.0896,3.0897,3.0897,3.0898,3.0898,3.0879,3.0856,3.0856,3.0832,3.0805,3.0768,3.0732,3.0808,3.1126,3.184,3.2423,3.248,3.3563,3.4575,3.4942,3.5383,3.5699,3.5695,3.5704,3.5704,3.5704,3.5704,3.5704,3.5704,3.5704,3.5704,3.5704,3.5704,3.5704,3.5704,3.5704,3.5704,3.5704,3.5704,3.5704,3.5704,3.5704,3.5704,3.5704,3.5704,3.5704,3.5704,3.5704,3.5704,3.6296,3.6356,3.6643,0.0,0.0,0.0,3.8104,3.8162,3.8213,0.0,0.0,0.0,0.0,0.0,0.0,0.0,0.0,0.0,0.0,0.0,0.0,0.0,0.0,0.0,0.0,3.0606,3.0638,3.0691,3.07,3.0734,3.0796,3.0792,3.0807,3.0807,3.0806,3.0793,3.0793,3.0794,3.0795,3.0795,3.0796,3.08,3.08,3.08,3.0795,3.0804,3.0804,3.0803,3.0801,3.0804,3.0803,3.08,3.0801,3.0845,3.0907,3.0908,3.0892,3.0894,3.0895,3.0895,3.0895,3.0897,3.0897,3.0897,3.0898,3.0898,3.0898,3.0878,3.0833,3.08,3.0798,3.0737,3.0709,3.0682,3.0719,3.0939,3.1724,3.2608,3.3267,3.3311,3.3984,3.48,3.5574,3.5704,3.5704,3.5704,3.5704,3.5704,3.5704,3.5704,3.5704,3.5704,3.5704,3.5704,3.5704,3.5704,3.5704,3.5704,3.5704,3.5704,3.5704,3.5704,3.5704,3.5704,3.5704,3.5704,3.5704,3.5704,3.5704,3.5704,3.5704,3.5704,0.0,0.0,0.0,0.0,0.0,0.0,3.6231,3.6401,3.6403,0.0,3.6402,0.0,0.0,0.0,0.0,0.0,0.0,0.0,0.0,0.0,0.0,0.0,0.0,0.0,0.0,3.0606,3.063,3.0701,3.0707,3.0703,3.0728,3.0779,3.0793,3.0793,3.08,3.0802,3.0802,3.0809,3.0799,3.0799,3.0793,3.0798,3.0799,3.0801,3.0798,3.0797,3.0797,3.0834,3.0888,3.0818,3.0795,3.0801,3.0865,3.0887,3.0908,3.0892,3.0894,3.0895,3.0896,3.0897,3.0897,3.0898,3.0898,3.0898,3.0898,3.0857,3.0804,3.0742,3.0768,3.0796,3.073,3.0715,3.0699,3.063,3.1148,3.1678,3.1781,3.305,3.4147,3.4163,3.4869,3.5496,3.5665,3.5704,3.5704,3.5704,3.5704,3.5704,3.5704,3.5704,3.5704,3.5704,3.5704,3.5704,3.5704,3.5704,3.5704,3.5704,3.5704,3.5704,3.5704,3.5704,3.5704,3.5704,3.5704,3.5704,3.5704,3.5704,3.5704,3.5704,3.5704,3.5704,0.0,0.0,0.0,3.3986,0.0,0.0,0.0,3.4633,3.4648,3.464,3.4647,3.4645,3.4645,0.0,0.0,0.0,0.0,0.0,0.0,0.0,0.0,0.0,0.0,0.0,0.0,3.0591,3.0613,3.0657,3.0678,3.0698,3.0698,3.0733,3.0748,3.0742,3.0742,3.0769,3.0801,3.0802,3.081,3.079,3.0804,3.0798,3.0808,3.0795,3.0799,3.0801,3.0799,3.0819,3.0839,3.0775,3.0756,3.0761,3.082,3.0859,3.0859,3.0859,3.0859,3.0858,3.0898,3.0879,3.0857,3.0855,3.083,3.0803,3.0803,3.0773,3.0735,3.0715,3.0709,3.0682,3.0656,3.0643,3.0644,3.0603,3.125,3.1969,3.2363,3.3479,3.4529,3.4955,3.54,3.5704,3.5704,3.5704,3.5704,3.5704,3.5704,3.5679,3.5648,3.5643,3.5662,3.5645,3.5645,3.5645,3.5645,3.5656,3.5656,3.5645,3.5673,3.5679,3.5648,3.5643,3.5656,3.5645,3.5656,3.5656,3.5645,3.5645,3.5676,3.5704,3.5704,3.5704,0.0,0.0,0.0,0.0,0.0,3.2759,0.0,0.0,0.0,3.2891,3.2891,0.0,0.0,0.0,0.0,0.0,0.0,0.0,0.0,0.0,0.0,0.0,0.0,0.0,0.0,3.0588,3.0592,3.0608,3.0657,3.068,3.068,3.069,3.0704,3.0691,3.0694,3.0725,3.0786,3.0786,3.0786,3.0786,3.0786,3.0784,3.0776,3.0781,3.0774,3.0788,3.0777,3.0773,3.0774,3.0718,3.0691,3.0718,3.0765,3.0788,3.0784,3.0783,3.078,3.0796,3.0834,3.0829,3.0774,3.0774,3.0737,3.0709,3.0677,3.0682,3.0706,3.0684,3.0649,3.0593,3.0595,3.0597,3.0598,3.0598,3.1347,3.2237,3.2952,3.3924,3.4853,3.5544,3.5679,3.5679,3.5704,3.5684,3.5679,3.5679,3.5673,3.5662,3.562,3.5595,3.5602,3.5598,3.5598,3.5598,3.5598,3.5602,3.5602,3.5598,3.5645,3.5662,3.5595,3.5595,3.5602,3.5598,3.5602,3.5602,3.5598,3.5598,3.5622,3.5668,3.5668,3.5764,0.0,0.0,0.0,0.0,3.0664,0.0,0.0,0.0,3.11,3.1093,0.0,0.0,0.0,0.0,0.0,0.0,0.0,0.0,0.0,0.0,0.0,0.0,0.0,0.0,0.0,0.0,3.0598,3.0607,3.0608,3.0614,3.0614,3.0672,3.0694,3.0697,3.0697,3.0701,3.0704,3.0704,3.0704,3.0704,3.0704,3.0707,3.0717,3.072,3.0718,3.0704,3.0699,3.0711,3.0706,3.0691,3.0691,3.0696,3.0708,3.0712,3.071,3.0702,3.0717,3.0717,3.0724,3.0722,3.0717,3.0717,3.0713,3.0682,3.0626,3.065,3.0689,3.0637,3.0603,3.0598,3.06,3.0607,3.0598,3.0598,3.1792,3.2972,3.3088,3.4389,3.5563,3.5593,3.5606,3.5637,3.5684,3.5648,3.5606,3.5606,3.5608,3.561,3.5604,3.5604,3.5604,3.5598,3.5598,3.5598,3.5598,3.5598,3.5604,3.5598,3.5604,3.5604,3.5604,3.5604,3.5604,3.5598,3.5604,3.5604,3.5598,3.5598,3.5604,3.561,3.561,3.599,0.0,0.0,0.0,0.0,0.0,0.0,3.0607,0.0,3.0742,0.0,0.0,0.0,0.0,0.0,0.0,0.0,3.063,0.0,0.0,0.0,0.0,0.0,0.0,0.0,0.0,0.0,0.0,0.0,0.0,3.0521,3.0606,3.0628,3.0629,3.0634,3.0634,3.0668,3.0694,3.0694,3.0694,3.0694,3.0694,3.0694,3.0694,3.0698,3.0707,3.0704,3.0662,3.0642,3.063,3.0645,3.0638,3.0637,3.0641,3.0633,3.0647,3.0642,3.0639,3.0645,3.0699,3.0669,3.0633,3.0632,3.0633,3.0649,3.061,3.0626,3.0642,3.0601,3.061,3.0589,3.0607,3.0598,3.0714,3.1197,3.2217,3.3237,3.371,3.4773,3.5631,3.5602,3.5596,3.5602,3.5633,3.5628,3.5596,3.5596,3.5604,3.5591,3.5554,3.5547,3.5541,3.5534,3.5534,3.5534,3.5534,3.5534,3.5541,3.5534,3.5534,3.5547,3.5547,3.5585,3.5579,3.5534,3.5534,3.5534,3.5534,3.6016,3.6247,3.6247,3.6286,3.6472,2.9089,0.0,0.0,0.0,0.0,0.0,0.0,0.0,0.0,0.0,0.0,0.0,0.0,0.0,0.0,0.0,0.0,3.0599,0.0,0.0,0.0,0.0,0.0,0.0,0.0,0.0,0.0,0.0,3.1144,3.1144,3.1289,3.1294,3.1173,3.0933,3.0933,3.0858,3.068,3.068,3.068,3.068,3.068,3.068,3.068,3.068,3.068,3.0677,3.0625,3.0608,3.0604,3.0592,3.0598,3.0598,3.0598,3.0604,3.0603,3.0603,3.0603,3.061,3.0665,3.0649,3.0591,3.0601,3.0598,3.0598,3.0598,3.0598,3.0598,3.0598,3.0598,3.0598,3.0598,3.0598,3.0791,3.1618,3.2464,3.3323,3.4138,3.4977,3.5583,3.5572,3.5566,3.556,3.5566,3.5579,3.5566,3.5566,3.5573,3.556,3.5515,3.5489,3.5495,3.5507,3.55,3.55,3.55,3.5489,3.5495,3.55,3.5707,3.5836,3.5836,3.5881,3.5888,3.5827,3.5611,3.5611,3.5827,3.6423,3.6827,3.7065,3.7114,3.725,0.0,0.0,0.0,2.9616,0.0,0.0,0.0,0.0,3.0521,0.0,0.0,0.0,0.0,0.0,0.0,0.0,0.0,0.0,0.0,0.0,0.0,0.0,0.0,0.0,0.0,0.0,0.0,3.2768,3.2813,3.2873,3.3005,3.303,3.2623,3.1797,3.1758,3.1391,3.0602,3.0602,3.0602,3.0602,3.0602,3.0602,3.0602,3.0602,3.0602,3.0602,3.0602,3.0598,3.0598,3.0598,3.0598,3.0598,3.0598,3.0598,3.0602,3.0602,3.0602,3.0602,3.0607,3.0607,3.0602,3.0598,3.0598,3.0598,3.0598,3.0598,3.0598,3.0598,3.0598,3.0598,3.0598,3.0598,3.0791,3.1618,3.2468,3.3316,3.4133,3.4985,3.5591,3.5515,3.549,3.5496,3.5494,3.5502,3.549,3.549,3.5495,3.55,3.55,3.55,3.55,3.55,3.55,3.55,3.55,3.55,3.55,3.55,3.6231,3.6661,3.6661,3.6661,3.6661,3.6654,3.5904,3.5885,3.6654,3.6692,3.7142,3.7969,3.795,3.8419,0.0,0.0,2.9151,2.9387,0.0,0.0,0.0,0.0,0.0,0.0,0.0,0.0,0.0,0.0,0.0,0.0,0.0,0.0,0.0,0.0,0.0,0.0,0.0,0.0,0.0,0.0,0.0,3.2877,3.294,3.3006,0.0,3.3107,3.2952,3.2662,3.2101,3.1676,3.1405,3.0868,3.0598,3.0598,3.0598,3.0598,3.0598,3.0598,3.0598,3.0598,3.0598,3.0598,3.0598,3.0598,3.0598,3.0598,3.0598,3.0598,3.0598,3.0598,3.0598,3.0598,3.0598,3.0598,3.0598,3.0598,3.0598,3.0598,3.0598,3.0598,3.0598,3.0598,3.0598,3.0598,3.0598,3.1004,3.1613,3.2463,3.3288,3.4102,3.4916,3.5322,3.5534,3.5495,3.5501,3.5501,3.55,3.5494,3.5501,3.5501,3.5488,3.5446,3.5324,3.5289,3.5289,3.5289,3.5289,3.5354,3.5493,3.5981,3.6538,3.7123,3.7411,3.7565,3.7565,3.7565,3.7565,3.7565,3.7296,3.7296,3.7565,3.8142,3.8565,3.8873,3.9419,3.9534,2.8574,2.8838,0.0,2.9201,2.9542,0.0,3.0019,0.0,0.0,0.0,0.0,0.0,0.0,0.0,0.0,0.0,0.0,0.0,0.0,3.0554,0.0,0.0,0.0,0.0,0.0,0.0,3.3379,3.3788,3.3852,3.3938,0.0,0.0,3.388,3.3571,3.3015,3.2435,3.1811,3.1294,3.0888,3.0598,3.0598,3.0598,3.0598,3.0598,3.0598,3.0598,3.0598,3.0598,3.0598,3.0598,3.0598,3.0598,3.0598,3.0598,3.0598,3.0598,3.0598,3.0598,3.0598,3.0598,3.0598,3.0598,3.0598,3.0598,3.0598,3.0598,3.0598,3.0598,3.0598,3.0675,3.0951,3.141,3.2101,3.3247,3.3892,3.4492,3.5323,3.5496,3.5495,3.5507,3.55,3.55,3.55,3.55,3.55,3.55,3.55,3.5446,3.5324,3.5242,3.5209,3.5209,3.5458,3.5836,3.6358,3.6865,3.7411,3.7969,3.8296,3.845,3.845,3.845,3.845,3.845,3.8161,3.8142,3.845,3.9034,3.9457,3.9746,4.0265,4.0227]}]]